     2              OBSERVATION DATA    GPS                 RINEX VERSION / TYPE
teqc 2000Feb29 Duncan Agnew 20030513 23:34:59UTC            PGM / RUN BY / DATE
                                                            COMMENT
L2: 1 -> 1; 150 -> 5; 250 -> 9                              COMMENT
L2: 1 -> 1; 150 -> 5; 250 -> 9                              COMMENT
L2: 1 -> 1; 150 -> 5; 250 -> 9                              COMMENT
L2: 1 -> 1; 150 -> 5; 250 -> 9                              COMMENT
L2: 1 -> 1; 150 -> 5; 250 -> 9                              COMMENT
Original Marker Name: GUAD                                  COMMENT
Campaign Name: Baja 2002-3                                  COMMENT
4-Character Station Name: GUAD                              COMMENT
6-Character Antenna Code: DMRCHT                            COMMENT
Vertical Measurement Point: BCR                             COMMENT
Vertical Offset to Rinex Ref. Point: 0.0348                 COMMENT
Radial Measurement Point: ECF                               COMMENT
Radial Offset to Rinex Ref. Point: 0.1897                   COMMENT
Antenna Height from Field Measurement: 1.2581 m             COMMENT
Additional Antenna Identification Info.:                    COMMENT
Turborogue and Ashtech Choke Ring                           COMMENT
Original XYZ: -2648789.5213 -4921540.6887 3062798.0682      COMMENT
New XYZ position is based on association with SCEC monument COMMENT
D5S5Z3N7+0011. Position of that monument is believed to be  COMMENT
valid to within 1 m horizontally; vertical accuracy         COMMENT
should be no worse than 3-times this value.                 COMMENT
                                                            COMMENT
Revised Rinex header created by UCSD GPS archive for        COMMENT
GSAC on 11-Jul-2003 (2003:192) 15:49:42 GMT                 COMMENT
For assistance contact dagnew@ucsd.edu                      COMMENT
or anderson@python.ucsd.edu                                 COMMENT
                                                            COMMENT
GUADALUPE ISLA                                              MARKER NAME
JGG CICESE (ENSENADA)                                       OBSERVER / AGENCY
734 ASHTECH Z-XII3 CC00                                     REC # / TYPE / VERS
003 DORNE-MARGOL. TYPE T                                    ANT # / TYPE
 -2648786.5996 -4921527.4371  3062786.3360                  APPROX POSITION XYZ
        1.2089        0.0000        0.0000                  ANTENNA: DELTA H/E/N
     1     1     0                                          WAVELENGTH FACT L1/2
     7    C1    L1    L2    P1    P2    S1    S2            # / TYPES OF OBSERV
     0                                                      INTERVAL
  2003     4    18     0     0   30.000000                  TIME OF FIRST OBS
  2003     4    18    17     0   30.000000                  TIME OF LAST OBS
                                                            END OF HEADER
 03  4 18  0  0 30.0000000  0  8G18G31G21G14G23G 9G15G 3
  21925082.760   -15297747.41449 -11514512.21647  21925082.421    21925087.583
       235.000         191.000
  22975345.517   -10561784.51849  -7883689.18846  22975345.070    22975351.990
       220.000         168.000
  22292163.752   -15185524.52649 -11801213.76146  22292163.806    22292170.524
       230.000         180.000
  20380208.647   -23779746.18249 -18129365.56348  20380208.205    20380213.436
       240.000         213.000
  22278169.312   -14773941.47649 -10701248.30547  22278168.985    22278175.833
       234.000         190.000
  23622893.484    -7511000.38349  -5826370.03545  23622893.691    23622902.015
       214.000         155.000
  20478292.759   -25804541.42349 -19777414.13347  20478292.233    20478298.774
       243.000         212.000
  21916138.162   -17970040.62549 -13985022.84547  21916137.933    21916145.083
       235.000         193.000
 03  4 18  0  1  0.0000000  0  8G18G31G21G14G23G 9G15G 3
  21934039.222   -15250681.16949 -11477837.21547  21934038.181    21934044.612
       235.000         191.000
  22967807.558   -10601396.24349  -7914555.44346  22967807.538    22967814.066
       221.000         168.000
  22305345.773   -15116252.95449 -11747235.96246  22305345.621    22305351.183
       229.000         180.000
  20374429.789   -23810114.16849 -18153028.88848  20374429.406    20374434.543
       239.000         213.000
  22285961.023   -14732995.42149 -10669342.29247  22285960.231    22285967.222
       232.000         189.000
  23627038.826    -7489215.20449  -5809394.61945  23627039.371    23627047.385
       214.000         154.000
  20482409.436   -25782908.11849 -19760557.01247  20482409.073    20482415.764
       243.000         212.000
  21917343.618   -17963706.00449 -13980086.77447  21917343.399    21917350.205
       235.000         193.000
 03  4 18  0  1 30.0000000  0  8G18G31G21G14G23G 9G15G 3
  21943007.637   -15203550.97049 -11441112.40347  21943007.162    21943013.073
       234.000         191.000
  22960368.971   -10640486.32049  -7945015.21346  22960368.068    22960375.836
       219.000         169.000
  22318590.528   -15046651.66249 -11693001.24846  22318590.152    22318596.532
       229.000         180.000
  20368752.041   -23839950.72649 -18176278.11548  20368751.607    20368756.747
       239.000         213.000
  22293753.667   -14692043.86249 -10637431.99547  22293753.216    22293760.419
       232.000         189.000
  23631291.036    -7466870.39849  -5791983.04445  23631290.218    23631300.739
       215.000         157.000
  20486605.523   -25760857.52149 -19743374.72847  20486605.088    20486611.622
       244.000         212.000
  21918649.924   -17956840.98149 -13974737.39847  21918649.535    21918657.045
       235.000         193.000
 03  4 18  0  2  0.0000000  0  8G18G31G21G14G23G 9G15G 3
  21951988.356   -15156356.95649 -11404337.85147  21951988.075    21951993.812
       235.000         191.000
  22953029.908   -10679053.20049  -7975067.27746  22953028.849    22953036.550
       219.000         169.000
  22331898.023   -14976720.61749 -11638509.56646  22331897.549    22331904.649
       230.000         179.000
  20363175.548   -23869255.18249 -18199112.71948  20363175.167    20363180.309
       239.000         213.000
  22301547.519   -14651086.60349 -10605517.25047  22301546.710    22301554.178
       233.000         188.000
  23635649.424    -7443965.47549  -5774135.05245  23635647.462    23635656.184
       208.000         153.000
  20490881.312   -25738388.40749 -19725866.32447  20490880.668    20490887.365
       243.000         212.000
  21920057.145   -17949445.83449 -13968974.93847  21920056.880    21920064.169
       234.000         193.000
 03  4 18  0  2 30.0000000  0  8G18G31G21G14G23G 9G15G 3
  21960981.273   -15109099.17949 -11367513.62047  21960980.859    21960985.980
       234.000         191.000
  22945790.524   -10717095.96349  -8004710.99646  22945789.820    22945797.216
       219.000         166.000
  22345268.093   -14906460.55449 -11583761.52646  22345267.153    22345274.042
       229.000         179.000
  20357700.333   -23898027.34249 -18221532.55348  20357699.998    20357705.070
       239.000         213.000
  22309342.371   -14610123.80849 -10573598.20347  22309341.794    22309348.792
       232.000         188.000
  23640114.309    -7420500.42449  -5755850.60245  23640115.029    23640122.618
       212.000         150.000
  20495236.851   -25715499.80049 -19708031.04847  20495236.383    20495242.926
       243.000         212.000
  21921565.155   -17941521.01149 -13962799.75147  21921565.166    21921572.013
       235.000         193.000
 03  4 18  0  3  0.0000000  0  8G18G31G21G14G23G 9G15G 3
  21969985.956   -15061779.28249 -11330640.96747  21969985.965    21969991.256
       235.000         191.000
  22938650.931   -10754614.43449  -8033946.12646  22938651.072    22938658.993
       224.000         169.000
  22358700.572   -14835872.60349 -11528757.97746  22358700.314    22358707.100
       230.000         179.000
  20352326.289   -23926267.94149 -18243538.17948  20352325.978    20352331.010
       239.000         213.000
  22317138.087   -14569156.70349 -10541675.78547  22317137.987    22317144.626
       233.000         188.000
  23644686.254    -7396476.25449  -5737130.43445  23644687.643    23644694.810
       216.000         155.000
  20499672.245   -25692191.74449 -19689868.92647  20499671.663    20499678.242
       244.000         212.000
  21923173.611   -17933068.45549 -13956213.33947  21923173.553    21923180.209
       234.000         193.000
 03  4 18  0  3 30.0000000  0  8G18G31G21G14G23G 9G15G 3
  21979002.355   -15014397.71749 -11293720.28547  21979002.163    21979007.879
       235.000         191.000
  22931611.443   -10791607.98849  -8062772.23846  22931611.256    22931618.486
       221.000         171.000
  22372195.274   -14764957.67649 -11473499.63146  22372195.052    22372201.118
       229.000         179.000
  20347053.451   -23953976.96249 -18265129.59348  20347053.108    20347058.155
       239.000         214.000
  22324934.671   -14528185.87249 -10509750.46747  22324934.240    22324941.279
       233.000         188.000
  23649364.485    -7371893.50749  -5717975.00645  23649363.716    23649372.534
       211.000         155.000
  20504187.492   -25668463.91849 -19671379.70947  20504186.957    20504193.604
       243.000         211.000
  21924882.253   -17924089.43049 -13949216.68947  21924882.220    21924889.208
       235.000         193.000
 03  4 18  0  4  0.0000000  0  8G18G31G21G14G23G 9G15G 3
  21988030.707   -14966953.90449 -11256751.09247  21988030.983    21988036.101
       236.000         191.000
  22924671.894   -10828074.82149  -8091187.93646  22924671.420    22924678.130
       221.000         168.000
  22385752.298   -14693715.17449 -11417986.04746  22385751.906    22385758.319
       229.000         179.000
  20341881.886   -23981153.48949 -18286306.07748  20341881.508    20341886.631
       239.000         214.000
  22332731.932   -14487210.52749 -10477821.64547  22332731.302    22332738.730
       232.000         188.000
  23654148.205    -7346751.16949  -5698383.58445  23654146.695    23654157.369
       206.000         149.000
  20508782.976   -25644314.63249 -19652562.08747  20508782.355    20508789.165
       243.000         211.000
  21926691.216   -17914583.71349 -13941809.63547  21926691.347    21926698.328
       234.000         193.000
 03  4 18  0  4 30.0000000  0  8G18G31G21G14G23G 9G15G 3
  21997070.893   -14919447.94149 -11219733.45947  21997069.905    21997076.045
       234.000         190.000
  22917833.105   -10864013.69649  -8119192.24246  22917833.124    22917840.634
       223.000         172.000
  22399371.512   -14622145.60349 -11362217.60046  22399371.868    22399377.998
       229.000         178.000
  20336811.697   -24007797.34149 -18307067.49048  20336811.388    20336816.421
       239.000         214.000
  22340530.154   -14446230.69049 -10445889.30447  22340529.653    22340536.809
       233.000         188.000
  23659039.041    -7321049.18349  -5678356.08645  23659040.327    23659048.151
       214.000         152.000
  20513458.824   -25619742.88649 -19633415.28247  20513458.338    20513464.838
       244.000         211.000
  21928600.120   -17904552.08549 -13933992.77347  21928599.856    21928606.977
       234.000         193.000
 03  4 18  0  5  0.0000000  0  8G18G31G21G14G23G 9G15G 3
  22006122.177   -14871882.10449 -11182669.17547  22006121.689    22006127.700
       234.000         190.000
  22911094.481   -10899425.48849  -8146785.81546  22911093.970    22911100.361
       221.000         172.000
  22413052.679   -14550251.23949 -11306196.06346  22413053.256    22413058.409
       228.000         178.000
  20331842.584   -24033909.94849 -18327414.94448  20331842.239    20331847.255
       239.000         214.000
  22348328.858   -14405248.40349 -10413955.06747  22348328.274    22348335.447
       232.000         188.000
  23664036.438    -7294789.27049  -5657893.79245  23664037.508    23664044.979
       214.000         153.000
  20518214.815   -25594749.76849 -19613940.13347  20518214.306    20518220.958
       243.000         211.000
  21930608.634   -17893997.06849 -13925768.08147  21930608.586    21930615.392
       234.000         192.000
 03  4 18  0  5 30.0000000  0  8G18G31G21G14G23G 9G15G 3
  22015185.043   -14824256.55049 -11145558.37147  22015185.284    22015191.204
       235.000         191.000
  22904456.019   -10934309.44449  -8173968.10746  22904456.265    22904462.001
       224.000         169.000
  22426795.506   -14478032.57149 -11249921.82846  22426795.353    22426801.486
       228.000         178.000
  20326974.560   -24059491.32349 -18347348.45548  20326974.179    20326979.191
       239.000         214.000
  22356127.859   -14364263.70849 -10382018.97046  22356127.765    22356134.541
       233.000         187.000
  23669139.804    -7267971.84949  -5636997.05145  23669140.515    23669148.152
       214.000         151.000
  20523051.148   -25569334.78949 -19594136.26047  20523050.768    20523057.392
       244.000         211.000
  21932716.649   -17882919.67349 -13917136.34547  21932716.666    21932723.671
       235.000         192.000
 03  4 18  0  6  0.0000000  0  8G18G31G21G14G23G 9G15G 3
  22024259.463   -14776570.56649 -11108400.47247  22024258.923    22024264.733
       234.000         190.000
  22897918.888   -10968663.37149  -8200737.39646  22897918.481    22897926.335
       222.000         173.000
  22440600.081   -14405489.00849 -11193394.43146  22440600.346    22440606.544
       228.000         178.000
  20322207.921   -24084540.18549 -18366867.02048  20322207.688    20322212.621
       239.000         214.000
  22363927.839   -14323275.71749 -10350080.27747  22363927.435    22363934.477
       234.000         188.000
  23674349.430    -7240595.99249  -5615665.21945  23674349.019    23674357.187
       213.000         153.000
  20527968.132   -25543495.81349 -19574002.00247  20527967.724    20527974.338
       243.000         211.000
  21934923.999   -17871319.76549 -13908097.45047  21934923.738    21934930.033
       235.000         192.000
 03  4 18  0  6 30.0000000  0  8G18G31G21G14G23G 9G15G 3
  22033345.174   -14728824.35749 -11071195.64947  22033344.973    22033350.128
       235.000         189.000
  22891482.463   -11002486.56949  -8227093.07846  22891481.727    22891488.747
       221.000         172.000
  22454466.328   -14332621.07149 -11136614.27346  22454465.657    22454472.300
       229.000         178.000
  20317542.591   -24109056.47949 -18385970.59748  20317542.318    20317547.275
       239.000         214.000
  22371728.238   -14282284.39949 -10318139.00147  22371727.915    22371734.926
       232.000         188.000
  23679665.224    -7212661.69649  -5593898.25545  23679664.609    23679674.440
       212.000         156.000
  20532965.938   -25517232.30449 -19553536.94247  20532965.504    20532972.223
       244.000         211.000
  21937230.579   -17859198.29049 -13898652.14647  21937230.341    21937237.166
       235.000         192.000
 03  4 18  0  7  0.0000000  0  8G18G31G21G14G23G 9G15G 3
  22042442.523   -14681018.02649 -11033943.97347  22042442.595    22042447.471
       235.000         189.000
  22885147.250   -11035778.14949  -8253034.59946  22885146.633    22885153.150
       221.000         169.000
  22468394.282   -14259429.40249 -11079581.84446  22468394.344    22468400.726
       229.000         177.000
  20312978.587   -24133040.30249 -18404659.26348  20312978.398    20312983.289
       239.000         214.000
  22379529.120   -14241290.16549 -10286195.47247  22379529.204    22379536.369
       233.000         188.000
  23685086.874    -7184169.48649  -5571696.50845  23685086.836    23685092.785
       212.000         152.000
  20538044.571   -25490543.85549 -19532740.75647  20538043.928    20538050.774
       243.000         211.000
  21939636.303   -17846556.17949 -13888801.14247  21939636.236    21939643.043
       234.000         192.000
 03  4 18  0  7 30.0000000  0  8G18G31G21G14G23G 9G15G 3
  22051551.049   -14633152.55349 -10996646.22147  22051551.129    22051556.066
       234.000         189.000
  22878913.221   -11068537.99149  -8278561.72746  22878913.018    22878921.111
       224.000         170.000
  22482383.637   -14185915.20049 -11022298.09046  22482383.590    22482389.697
       228.000         177.000
  20308515.821   -24156492.14849 -18422933.40148  20308515.537    20308520.559
       239.000         214.000
  22387330.678   -14200293.69149 -10254250.17047  22387330.494    22387336.882
       234.000         188.000
  23690614.737    -7155120.38249  -5549060.83645  23690615.728    23690621.602
       213.000         152.000
  20543204.120   -25463430.24649 -19511613.27147  20543203.686    20543210.257
       243.000         211.000
  21942140.827   -17833394.83449 -13878545.55047  21942140.702    21942147.807
       234.000         192.000
 03  4 18  0  8  0.0000000  0  8G18G31G21G14G23G 9G15G 3
  22060670.758   -14585228.03949 -10959302.46047  22060670.815    22060675.993
       235.000         189.000
  22872780.649   -11100765.16949  -8303673.77846  22872780.254    22872787.853
       223.000         173.000
  22496434.187   -14112078.98949 -10964763.42246  22496433.933    22496440.629
       229.000         177.000
  20304154.273   -24179412.25049 -18440793.19348  20304154.007    20304159.017
       239.000         214.000
  22395132.387   -14159294.99249 -10222303.14346  22395131.243    22395138.931
       231.000         187.000
  23696248.584    -7125514.49749  -5525991.30645  23696249.038    23696256.336
       213.000         153.000
  20548444.760   -25435890.66249 -19490153.85747  20548444.208    20548450.705
       243.000         211.000
  21944743.968   -17819715.28349 -13867886.16747  21944743.620    21944750.617
       235.000         192.000
 03  4 18  0  8 30.0000000  0  8G18G31G21G14G23G 9G15G 3
  22069801.698   -14537245.30649 -10921913.32747  22069801.594    22069806.835
       235.000         189.000
  22866749.402   -11132459.33249  -8328370.53046  22866748.759    22866755.407
       220.000         169.000
  22510545.914   -14037921.73149 -10906978.58446  22510546.153    22510552.423
       229.000         176.000
  20299893.840   -24201800.86449 -18458238.83848  20299893.476    20299898.553
       239.000         214.000
  22402934.257   -14118294.62249 -10190354.83246  22402934.241    22402940.577
       231.000         186.000
  23701987.980    -7095352.23849  -5502488.28545  23701988.205    23701997.161
       214.000         155.000
  20553766.504   -25407924.74849 -19468362.23547  20553766.064    20553772.494
       243.000         211.000
  21947445.492   -17805518.97149 -13856824.10647  21947445.380    21947452.172
       234.000         192.000
 03  4 18  0  9  0.0000000  0  8G18G31G21G14G23G 9G15G 3
  22078943.657   -14489203.80549 -10884478.40947  22078943.346    22078949.325
       233.000         189.000
  22860819.897   -11163619.23049  -8352650.99846  22860820.393    22860826.746
       224.000         171.000
  22524718.667   -13963443.53449 -10848943.67946  22524718.272    22524724.375
       228.000         176.000
  20295734.655   -24223657.40749 -18475269.87948  20295734.335    20295739.405
       239.000         214.000
  22410736.848   -14077292.36249 -10158405.02846  22410737.060    22410743.510
       232.000         187.000
  23707833.612    -7064633.66449  -5478551.71045  23707834.068    23707842.035
       216.000         157.000
  20559169.514   -25379531.67849 -19446237.76647  20559168.983    20559175.794
       243.000         211.000
  21950245.096   -17790806.67949 -13845359.98547  21950244.902    21950252.035
       233.000         192.000
 03  4 18  0  9 30.0000000  0  8G18G31G21G14G23G 9G15G 3
  22088096.524   -14441104.46649 -10846998.41947  22088096.099    22088101.525
       234.000         188.000
  22854992.074   -11194244.72649  -8376514.97246  22854991.199    22854998.841
       221.000         172.000
  22538952.281   -13888645.66549 -10790659.66346  22538951.549    22538958.341
       228.000         175.000
  20291676.584   -24244982.72249 -18491886.97748  20291676.315    20291681.286
       239.000         214.000
  22418539.752   -14036288.67049 -10126454.11046  22418539.428    22418546.337
       231.000         187.000
  23713784.969    -7033359.78149  -5454182.41045  23713783.899    23713792.684
       213.000         153.000
  20564653.877   -25350711.27849 -19423780.31847  20564653.477    20564660.031
       243.000         211.000
  21953142.582   -17775579.98549 -13833495.03547  21953142.935    21953149.434
       234.000         192.000
 03  4 18  0 10  0.0000000  0  8G18G31G21G14G23G 9G15G 3
  22097260.567   -14392947.78349 -10809473.74047  22097260.905    22097265.367
       235.000         188.000
  22849266.008   -11224335.24849  -8399962.12546  22849265.253    22849271.858
       224.000         172.000
  22553246.626   -13813528.66349 -10732126.96546  22553246.702    22553252.729
       228.000         175.000
  20287719.538   -24265776.88849 -18508090.19548  20287719.234    20287724.221
       239.000         214.000
  22426342.657   -13995283.70349 -10094502.20346  22426342.576    22426349.313
       232.000         187.000
  23719841.730    -7001531.04349  -5429380.83045  23719841.415    23719851.013
       212.000         152.000
  20570219.640   -25321463.08349 -19400989.53647  20570219.064    20570225.839
       243.000         211.000
  21956137.821   -17759840.03249 -13821230.14847  21956137.652    21956144.370
       234.000         192.000
 03  4 18  0 10 30.0000000  0  8G18G31G21G14G23G 9G15G 3
  22106435.455   -14344733.31049 -10771904.04447  22106434.824    22106440.559
       232.000         188.000
  22843641.973   -11253889.78949  -8422991.62146  22843640.337    22843648.235
       221.000         171.000
  22567601.614   -13738092.97749 -10673345.93646  22567601.545    22567607.929
       226.000         175.000
  20283863.599   -24286039.83549 -18523879.47248  20283863.424    20283868.284
       239.000         214.000
  22434146.107   -13954277.30149 -10062549.17146  22434145.904    22434153.007
       233.000         187.000
  23726004.100    -6969147.42649  -5404146.84945  23726003.649    23726014.426
       213.000         156.000
  20575866.983   -25291786.11249 -19377864.63447  20575866.494    20575872.971
       243.000         211.000
  21959230.467   -17743587.78049 -13808566.06247  21959230.341    21959237.573
       234.000         192.000
 03  4 18  0 11  0.0000000  0  8G18G31G21G14G23G 9G15G 3
  22115621.105   -14296461.65649 -10734289.79246  22115621.004    22115626.915
       234.000         187.000
  22838119.926   -11282907.67749  -8445602.92046  22838120.108    22838126.544
       225.000         173.000
  22582017.008   -13662339.26549 -10614317.10346  22582016.885    22582023.426
       226.000         174.000
  20280108.742   -24305771.61949 -18539254.85948  20280108.463    20280113.353
       239.000         214.000
  22441949.739   -13913269.39049 -10030594.96946  22441949.022    22441956.675
       231.000         187.000
  23732272.169    -6936209.42749  -5378480.87045  23732272.310    23732280.690
       215.000         156.000
  20581596.029   -25261679.74549 -19354405.12847  20581595.288    20581602.085
       243.000         211.000
  21962420.533   -17726824.24449 -13795503.57247  21962420.703    21962428.019
       235.000         192.000
 03  4 18  0 11 30.0000000  0  8G18G31G21G14G23G 9G15G 3
  22124817.750   -14248133.76049 -10696631.70547  22124817.737    22124823.235
       234.000         188.000
  22832700.181   -11311389.30749  -8467796.40746  22832700.161    22832706.241
       223.000         172.000
  22596492.606   -13586269.30249 -10555041.83446  22596492.184    22596499.463
       226.000         174.000
  20276454.723   -24324973.50549 -18554217.33948  20276454.473    20276459.222
       239.000         214.000
  22449753.163   -13872261.08349  -9998640.47346  22449752.979    22449759.675
       231.000         186.000
  23738645.436    -6902718.56149  -5352384.07745  23738643.949    23738652.136
       209.000         151.000
  20587406.666   -25231144.36849 -19330611.34247  20587406.195    20587412.885
       243.000         210.000
  21965707.512   -17709551.57149 -13782044.36547  21965707.687    21965715.034
       235.000         192.000
 03  4 18  0 12  0.0000000  0  8G18G31G21G14G23G 9G15G 3
  22134025.111   -14199748.54349 -10658928.96946  22134024.694    22134030.524
       232.000         187.000
  22827382.500   -11339333.07249  -8489570.73246  22827381.812    22827388.645
       223.000         171.000
  22611028.589   -13509882.47449 -10495519.65546  22611027.351    22611035.155
       227.000         174.000
  20272901.728   -24343644.61249 -18568766.23148  20272901.302    20272906.184
       239.000         214.000
  22457557.053   -13831251.45349  -9966684.93646  22457556.877    22457563.606
       232.000         186.000
  23745123.629    -6868674.20249  -5325856.02745  23745125.252    23745132.915
       215.000         152.000
  20593299.254   -25200178.75749 -19306482.31747  20593298.766    20593305.377
       243.000         210.000
  21969091.286   -17691770.01049 -13768188.61647  21969091.175    21969098.588
       234.000         192.000
 03  4 18  0 12 30.0000000  0  8G18G31G21G14G23G 9G15G 3
  22143243.036   -14151307.65849 -10621182.84146  22143243.042    22143248.244
       234.000         187.000
  22822167.304   -11366739.34549  -8510926.25046  22822167.492    22822174.499
       223.000         174.000
  22625624.596   -13433180.62049 -10435752.03246  22625625.176    22625631.208
       225.000         174.000
  20269449.486   -24361786.10249 -18582902.43148  20269449.162    20269454.143
       239.000         214.000
  22465361.030   -13790241.52149  -9934729.16646  22465360.894    22465367.880
       232.000         186.000
  23751707.268    -6834078.01949  -5298897.96845  23751707.105    23751717.013
       215.000         156.000
  20599273.648   -25168783.25649 -19282018.30647  20599273.300    20599279.759
       243.000         210.000
  21972571.319   -17673481.85249 -13753938.11247  21972570.746    21972578.173
       233.000         192.000
 03  4 18  0 13  0.0000000  0  8G18G31G21G14G23G 9G15G 3
  22152471.869   -14102810.41949 -10583392.80947  22152472.093    22152477.303
       234.000         188.000
  22817054.565   -11393607.09149  -8531862.15146  22817054.922    22817061.255
       224.000         175.000
  22640280.398   -13356163.89049 -10375739.03346  22640280.530    22640286.570
       225.000         173.000
  20266098.115   -24379397.63649 -18596625.68248  20266097.932    20266102.684
       239.000         214.000
  22473165.119   -13749230.73449  -9902772.72346  22473165.002    22473171.232
       232.000         186.000
  23758395.862    -6798930.04849  -5271509.96645  23758395.415    23758405.382
       212.000         158.000
  20605330.006   -25136957.00649 -19257218.63547  20605329.707    20605336.132
       243.000         210.000
  21976147.711   -17654687.45649 -13739293.14347  21976147.720    21976154.622
       234.000         191.000
 03  4 18  0 13 30.0000000  0  8G18G31G21G14G23G 9G15G 3
  22161711.363   -14054257.26149 -10545559.19647  22161711.307    22161716.838
       234.000         188.000
  22812044.351   -11419935.84549  -8552378.04946  22812043.921    22812050.706
       223.000         173.000
  22654995.937   -13278833.06549 -10315481.29146  22654995.723    22655001.892
       225.000         173.000
  20262847.504   -24396479.66949 -18609936.33748  20262847.253    20262852.043
       239.000         215.000
  22480969.369   -13708219.26549  -9870815.74746  22480968.629    22480975.545
       231.000         185.000
  23765189.074    -6763230.84649  -5243692.43545  23765189.881    23765196.949
       211.000         151.000
  20611468.439   -25104699.40849 -19232082.86047  20611467.988    20611474.355
       243.000         210.000
  21979820.214   -17635388.21349 -13724254.77947  21979819.997    21979826.451
       233.000         190.000
 03  4 18  0 14  0.0000000  0  8G18G31G21G14G23G 9G15G 3
  22170961.292   -14005648.49849 -10507682.25846  22170961.043    22170966.413
       234.000         187.000
  22807136.651   -11445725.37649  -8572473.76646  22807136.468    22807143.839
       224.000         172.000
  22669771.237   -13201189.15249 -10254979.59946  22669771.983    22669777.072
       226.000         173.000
  20259697.527   -24413032.76249 -18622834.82948  20259697.213    20259701.987
       239.000         215.000
  22488773.689   -13667207.37949  -9838858.45946  22488774.206    22488780.332
       232.000         185.000
  23772087.383    -6726981.46349  -5215446.07545  23772089.815    23772093.007
       221.000         150.000
  20617688.954   -25072010.09849 -19206610.68847  20617688.411    20617695.186
       243.000         210.000
  21983588.474   -17615585.98149 -13708824.49547  21983588.868    21983595.158
       234.000         190.000
 03  4 18  0 14 30.0000000  0  9G25G18G31G21G14G23G 9G15G 3
  24482123.049    -5703097.97149  -4090888.51145  24482121.840    24482134.596
       207.000         138.000
  22180219.451   -13956996.67649 -10469771.75846  22180219.683    22180224.539
       234.000         187.000
  22802329.506   -11470987.81149  -8592158.80846  22802329.626    22802335.600
       225.000         173.000
  22684603.430   -13123245.42449 -10194244.27346  22684603.496    22684609.320
       225.000         172.000
  20256645.830   -24429069.59049 -18635331.03548  20256645.416    20256650.348
       239.000         215.000
  22496575.776   -13626207.63249  -9806910.61546  22496575.435    22496582.234
       232.000         185.000
  23779087.768    -6690194.95749  -5186781.18945  23779086.131    23779096.779
       211.000         153.000
  20623989.379   -25038901.45549 -19180811.75647  20623989.000    20623995.443
       243.000         210.000
  21987449.856   -17595294.47449 -13693012.93647  21987450.015    21987456.661
       234.000         191.000
 03  4 18  0 15  0.0000000  0  9G25G18G31G21G14G23G 9G15G 3
  24464230.654    -5797120.04449  -4164151.81645  24464228.667    24464241.737
       204.000         138.000
  22189489.213   -13908283.84649 -10431813.72446  22189488.697    22189494.505
       233.000         187.000
  22797626.141   -11495704.32249  -8611418.40246  22797625.342    22797633.032
       223.000         174.000
  22699495.990   -13044984.52149 -10133261.77646  22699495.896    22699502.038
       224.000         172.000
  20253695.678   -24444572.54849 -18647411.24248  20253695.368    20253700.318
       239.000         215.000
  22504378.857   -13585201.95349  -9774958.15546  22504378.073    22504385.470
       231.000         185.000
  23786192.857    -6652853.67049  -5157684.23345  23786192.472    23786203.243
       209.000         154.000
  20630373.113   -25005354.84049 -19154671.54547  20630372.720    20630379.085
       243.000         210.000
  21991407.505   -17574496.83949 -13676807.00247  21991407.246    21991414.534
       234.000         191.000
 03  4 18  0 15 30.0000000  0  9G25G18G31G21G14G23G 9G15G 3
  24446321.701    -5891230.30649  -4237483.92345  24446320.804    24446329.273
       202.000         136.000
  22198769.938   -13859512.45249 -10393810.06846  22198769.072    22198775.654
       232.000         186.000
  22793026.185   -11519876.82449  -8630254.11246  22793025.747    22793032.343
       223.000         172.000
  22714448.305   -12966409.56749 -10072034.59346  22714447.175    22714454.195
       224.000         171.000
  20250846.678   -24459544.04149 -18659077.32348  20250846.321    20250851.116
       239.000         215.000
  22512182.695   -13544192.50749  -9743002.76546  22512182.181    22512188.981
       231.000         185.000
  23793403.840    -6614960.73749  -5128157.29045  23793402.900    23793412.607
       214.000         155.000
  20636839.836   -24971371.84949 -19128191.29847  20636839.243    20636846.055
       243.000         210.000
  21995460.893   -17553196.53649 -13660209.38047  21995460.919    21995467.621
       234.000         191.000
 03  4 18  0 16  0.0000000  0  9G25G18G31G21G14G23G 9G15G 3
  24428395.712    -5985428.16449  -4310884.24545  24428395.913    24428408.706
       207.000         141.000
  22208061.545   -13810684.22749 -10355762.12646  22208061.559    22208066.568
       232.000         186.000
  22788529.565   -11543506.61249  -8648666.93846  22788529.309    22788535.972
       223.000         172.000
  22729459.986   -12887522.97149 -10010564.56646  22729459.463    22729466.891
       224.000         171.000
  20248098.415   -24473986.21049 -18670330.93948  20248098.123    20248102.914
       239.000         215.000
  22519986.973   -13503181.04449  -9711045.78246  22519986.887    22519993.164
       232.000         185.000
  23800719.075    -6576518.28149  -5098202.04245  23800719.815    23800726.498
       216.000         152.000
  20643389.383   -24936953.72949 -19101371.98547  20643388.869    20643395.588
       243.000         210.000
  21999609.286   -17531396.68749 -13643222.49647  21999609.327    21999615.917
       234.000         191.000
 03  4 18  0 16 30.0000000  0  9G25G18G31G21G14G23G 9G15G 3
  24410453.729    -6079711.87349  -4384351.50345  24410452.316    24410464.080
       206.000         138.000
  22217363.875   -13761800.74749 -10317671.11746  22217364.299    22217368.848
       235.000         186.000
  22784136.110   -11566594.59949  -8666657.57446  22784136.091    22784142.521
       224.000         173.000
  22744530.658   -12808326.62049  -9948853.16946  22744529.850    22744536.841
       223.000         171.000
  20245450.520   -24487900.81649 -18681173.46948  20245450.236    20245455.069
       239.000         215.000
  22527791.362   -13462168.69949  -9679088.12846  22527791.295    22527798.220
       231.000         185.000
  23808138.793    -6537528.54949  -5067820.41445  23808137.519    23808147.007
       211.000         152.000
  20650021.472   -24902101.64749 -19074214.52247  20650020.998    20650027.731
       243.000         210.000
  22003852.181   -17509100.18349 -13625848.61247  22003852.170    22003859.430
       234.000         191.000
 03  4 18  0 17  0.0000000  0  9G25G18G31G21G14G23G 9G15G 3
  24392495.883    -6174079.45149  -4457884.14545  24392494.118    24392505.929
       206.000         139.000
  22226676.833   -13712862.19149 -10279537.17746  22226676.962    22226682.555
       234.000         187.000
  22779845.721   -11589140.60149  -8684225.86246  22779845.461    22779851.992
       223.000         173.000
  22759659.847   -12728821.67749  -9886901.34246  22759659.356    22759666.248
       224.000         170.000
  20242902.948   -24501288.38749 -18691605.32048  20242902.540    20242907.445
       239.000         215.000
  22535595.887   -13421155.51649  -9647129.81146  22535595.462    22535602.040
       232.000         185.000
  23815661.819    -6497992.33149  -5037013.08545  23815663.479    23815670.119
       212.000         148.000
  20656736.267   -24866815.52249 -19046718.85347  20656735.809    20656742.403
       243.000         210.000
  22008189.332   -17486308.29349 -13608088.70547  22008189.058    22008195.888
       234.000         191.000
 03  4 18  0 17 30.0000000  0  9G25G18G31G21G14G23G 9G15G 3
  24374522.245    -6268528.70249  -4531480.34245  24374520.481    24374531.192
       207.000         141.000
  22235999.868   -13663869.09949 -10241360.78546  22235998.738    22236006.580
       230.000         187.000
  22775658.348   -11611144.78849  -8701371.97146  22775657.570    22775665.656
       222.000         173.000
  22774847.641   -12649009.48549  -9824710.08046  22774847.651    22774854.214
       223.000         170.000
  20240455.459   -24514149.90749 -18701627.26548  20240455.244    20240460.137
       239.000         215.000
  22543400.563   -13380142.01149  -9615171.24546  22543400.499    22543407.142
       232.000         185.000
  23823289.462    -6457911.07649  -5005780.88445  23823290.319    23823299.462
       217.000         155.000
  20663533.644   -24831095.15649 -19018884.81647  20663533.004    20663539.698
       243.000         210.000
  22012620.382   -17463022.92249 -13589944.27347  22012620.050    22012627.192
       234.000         190.000
 03  4 18  0 18  0.0000000  0  9G25G18G31G21G14G23G 9G15G 3
  24356533.680    -6363057.20149  -4605138.39845  24356531.824    24356545.378
       209.000         142.000
  22245333.085   -13614821.70849 -10203142.07146  22245333.136    22245339.019
       233.000         186.000
  22771574.240   -11632606.72649  -8718095.54046  22771574.487    22771580.705
       226.000         174.000
  22790093.729   -12568890.65049  -9762279.87346  22790093.357    22790100.267
       223.000         170.000
  20238108.030   -24526485.55149 -18711239.43048  20238107.600    20238112.726
       239.000         215.000
  22551205.357   -13339128.09949  -9583212.35046  22551205.176    22551212.356
       231.000         185.000
  23831020.028    -6417285.39649  -4974124.51545  23831020.408    23831029.303
       213.000         153.000
  20670413.695   -24794940.18749 -18990712.12747  20670413.241    20670419.675
       242.000         209.000
  22017145.045   -17439245.73349 -13571416.61347  22017144.968    22017151.692
       233.000         190.000
 03  4 18  0 18 30.0000000  0  9G25G18G31G21G14G23G 9G15G 3
  24338530.426    -6457662.35249  -4678856.13945  24338527.278    24338539.033
       205.000         142.000
  22254677.006   -13565720.39449 -10164881.32046  22254677.188    22254681.068
       233.000         185.000
  22767593.504   -11653526.67149  -8734396.80146  22767592.584    22767599.984
       223.000         174.000
  22805398.034   -12488466.53649  -9699611.75546  22805397.852    22805404.690
       223.000         170.000
  20235860.459   -24538296.59349 -18720442.81948  20235860.176    20235865.044
       239.000         215.000
  22559009.956   -13298114.20649  -9551253.48846  22559009.733    22559016.794
       231.000         185.000
  23838854.230    -6376116.63449  -4942044.96245  23838854.255    23838861.562
       209.000         150.000
  20677376.424   -24758350.88249 -18962201.00147  20677376.010    20677382.532
       243.000         209.000
  22021762.956   -17414978.58249 -13552507.15647  22021763.001    22021769.583
       234.000         190.000
 03  4 18  0 19  0.0000000  0  9G25G18G31G21G14G23G 9G15G 3
  24320512.822    -6552342.12649  -4752632.02045  24320512.540    24320523.474
       209.000         143.000
  22264031.020   -13516565.07749 -10126578.47846  22264030.412    22264034.994
       232.000         183.000
  22763715.615   -11673904.37049  -8750275.50546  22763714.888    22763722.436
       224.000         174.000
  22820760.075   -12407738.17649  -9636706.59446  22820760.057    22820767.129
       223.000         169.000
  20233712.669   -24549583.27049 -18729237.61648  20233712.372    20233717.159
       239.000         215.000
  22566814.800   -13257100.23849  -9519294.56746  22566814.589    22566820.750
       232.000         185.000
  23846791.355    -6334405.39249  -4909542.75045  23846792.459    23846800.974
       214.000         152.000
  20684421.892   -24721326.97749 -18933351.22347  20684421.253    20684428.088
       242.000         209.000
  22026473.841   -17390222.89149 -13533217.02547  22026473.789    22026480.696
       234.000         190.000
 03  4 18  0 19 30.0000000  0  9G25G18G31G21G14G23G 9G15G 3
  24302481.735    -6647093.71649  -4826463.91845  24302480.203    24302491.790
       210.000         143.000
  22273395.058   -13467356.06149 -10088233.79846  22273394.010    22273400.261
       231.000         182.000
  22759941.144   -11693739.59349  -8765731.50946  22759940.351    22759947.694
       224.000         174.000
  22836180.046   -12326706.16349  -9573564.81646  22836179.522    22836186.134
       221.000         169.000
  20231664.531   -24560346.30549 -18737624.37448  20231664.070    20231669.124
       239.000         215.000
  22574619.532   -13216086.08849  -9487335.49746  22574619.566    22574625.982
       231.000         184.000
  23854832.053    -6292152.82349  -4876618.63545  23854832.293    23854840.801
       211.000         152.000
  20691550.037   -24683868.11949 -18904162.51047  20691549.628    20691556.135
       242.000         209.000
  22031277.362   -17364980.29749 -13513547.48447  22031277.364    22031284.233
       234.000         190.000
 03  4 18  0 20  0.0000000  0  9G25G18G31G21G14G23G 9G15G 3
  24284437.505    -6741914.82649  -4900349.95645  24284436.624    24284447.616
       211.000         143.000
  22282769.196   -13418093.70849 -10049847.57746  22282769.300    22282775.757
       232.000         184.000
  22756269.770   -11713032.29049  -8780764.75646  22756269.572    22756275.785
       224.000         173.000
  22851657.571   -12245371.75549  -9510187.39346  22851656.847    22851664.491
       221.000         168.000
  20229715.900   -24570586.38349 -18745603.63348  20229715.599    20229720.369
       239.000         215.000
  22582424.279   -13175071.91949  -9455376.42446  22582424.873    22582431.229
       232.000         184.000
  23862974.956    -6249359.85449  -4843273.51745  23862976.575    23862982.253
       215.000         146.000
  20698761.028   -24645974.10649 -18874634.72747  20698760.356    20698767.101
       242.000         209.000
  22036173.181   -17339252.51649 -13493499.87647  22036173.425    22036180.194
       234.000         190.000
 03  4 18  0 20 30.0000000  0  9G25G18G31G21G14G23G 9G15G 3
  24266380.534    -6836803.04049  -4974288.35245  24266378.386    24266391.220
       209.000         144.000
  22292153.789   -13368777.84149 -10011419.66046  22292154.782    22292160.363
       233.000         185.000
  22752701.850   -11731782.31749  -8795375.17446  22752701.503    22752707.879
       224.000         173.000
  22867192.384   -12163735.78049  -9446575.00646  22867192.392    22867199.517
       223.000         169.000
  20227866.677   -24580303.94349 -18753175.73848  20227866.389    20227871.120
       239.000         215.000
  22590229.201   -13134057.74449  -9423417.34146  22590228.860    22590235.815
       232.000         185.000
  23871220.936    -6206027.69649  -4809508.15845  23871219.848    23871228.037
       213.000         146.000
  20706054.841   -24607644.67849 -18844767.66047  20706054.487    20706060.933
       242.000         209.000
  22041161.081   -17313041.12349 -13473075.43047  22041161.042    22041168.078
       233.000         190.000
 03  4 18  0 21  0.0000000  0  9G25G18G31G21G14G23G 9G15G 3
  24248311.261    -6931756.03849  -5048277.19545  24248310.824    24248319.951
       210.000         145.000
  22301548.769   -13319408.87949  -9972950.35046  22301548.689    22301554.658
       233.000         186.000
  22749236.924   -11749989.67549  -8809562.71546  22749236.261    22749243.619
       225.000         172.000
  22882784.414   -12081799.38849  -9382728.50846  22882784.808    22882790.408
       222.000         168.000
  20226116.702   -24589499.95849 -18760341.44748  20226116.231    20226121.249
       238.000         215.000
  22598033.916   -13093043.52949  -9391458.23346  22598033.267    22598039.952
       231.000         184.000
  23879569.387    -6162157.31049  -4775323.46245  23879569.788    23879574.759
       216.000         151.000
  20713431.584   -24568879.77549 -18814561.26047  20713431.030    20713437.829
       242.000         208.000
  22046240.641   -17286347.79849 -13452275.44947  22046240.485    22046247.550
       233.000         190.000
 03  4 18  0 21 30.0000000  0  9G25G18G31G21G14G23G 9G15G 3
  24230229.991    -7026771.43949  -5122314.72645  24230229.681    24230240.353
       214.000         146.000
  22310953.436   -13269987.15349  -9934439.92246  22310953.029    22310957.604
       232.000         185.000
  22745875.539   -11767654.50049  -8823327.52846  22745876.098    22745882.239
       227.000         175.000
  22898433.413   -11999563.78849  -9318648.87846  22898433.764    22898439.017
       223.000         168.000
  20224465.822   -24598175.21649 -18767101.37448  20224465.514    20224470.292
       239.000         215.000
  22605838.542   -13052029.52849  -9359499.27446  22605838.154    22605844.803
       231.000         183.000
  23888020.150    -6117750.10549  -4740720.48945  23888020.907    23888026.820
       212.000         154.000
  20720891.100   -24529679.76349 -18784015.81547  20720890.316    20720897.529
       242.000         208.000
  22051411.481   -17259174.62449 -13431101.55947  22051411.456    22051418.196
       233.000         190.000
 03  4 18  0 22  0.0000000  0  9G25G18G31G21G14G23G 9G15G 3
  24212137.570    -7121845.90149  -5196398.27145  24212135.977    24212146.983
       210.000         145.000
  22320367.982   -13220512.03949  -9895887.90446  22320366.812    22320373.158
       228.000         182.000
  22742617.425   -11784776.26149  -8836669.15746  22742616.334    22742623.730
       225.000         174.000
  22914139.300   -11917029.31549  -9254336.34846  22914139.351    22914146.350
       223.000         168.000
  20222914.021   -24606329.86949 -18773455.63548  20222913.878    20222918.450
       239.000         215.000
  22613643.346   -13011014.97849  -9327539.90546  22613642.711    22613649.317
       232.000         183.000
  23896572.542    -6072806.34349  -4705699.41345  23896570.059    23896581.745
       207.000         149.000
  20728433.599   -24490043.69449 -18753130.59347  20728433.154    20728439.813
       242.000         208.000
  22056673.558   -17231522.54749 -13409554.50147  22056673.203    22056679.998
       233.000         190.000
 03  4 18  0 22 30.0000000  0  9G25G18G31G21G14G23G 9G15G 3
  24194034.194    -7216976.90849  -5270525.94045  24194034.359    24194045.793
       214.000         147.000
  22329792.814   -13170983.43349  -9857294.21446  22329793.426    22329798.765
       232.000         183.000
  22739462.585   -11801354.57049  -8849587.32246  22739462.817    22739469.227
       226.000         174.000
  22929901.768   -11834196.78749  -9189791.57546  22929901.689    22929908.059
       222.000         167.000
  20221461.219   -24613964.38549 -18779404.59148  20221460.964    20221465.705
       239.000         215.000
  22621448.372   -12969999.58649  -9295579.88346  22621448.617    22621455.013
       231.000         184.000
  23905226.837    -6027326.91549  -4670260.92045  23905227.256    23905235.411
       213.000         148.000
  20736059.174   -24449971.15749 -18721905.26347  20736058.885    20736065.300
       242.000         208.000
  22062026.413   -17203392.98649 -13387635.36847  22062025.937    22062033.425
       233.000         189.000
 03  4 18  0 23  0.0000000  0  9G25G18G31G21G14G23G 9G15G 3
  24175920.524    -7312163.26049  -5344696.71245  24175918.830    24175928.952
       210.000         144.000
  22339227.933   -13121402.96849  -9818660.09646  22339228.014    22339233.637
       231.000         184.000
  22736411.053   -11817390.72949  -8862083.03446  22736411.080    22736417.141
       226.000         174.000
  22945720.495   -11751068.46449  -9125016.31146  22945721.078    22945728.334
       223.000         167.000
  20220107.005   -24621080.91249 -18784949.92348  20220106.591    20220111.496
       238.000         215.000
  22629253.223   -12928984.63149  -9263620.19546  22629252.904    22629259.480
       231.000         183.000
  23913982.621    -5981314.45949  -4634406.97745  23913983.144    23913991.575
       215.000         149.000
  20743767.594   -24409463.41449 -18690340.80747  20743767.089    20743773.920
       242.000         208.000
  22067469.595   -17174788.93549 -13365346.51347  22067469.539    22067476.846
       232.000         189.000
 03  4 18  0 23 30.0000000  0  9G25G18G31G21G14G23G 9G15G 3
  24157797.123    -7407401.28449  -5418907.79545  24157797.964    24157806.085
       211.000         145.000
  22348672.935   -13071769.08149  -9779984.36346  22348672.136    22348678.495
       229.000         183.000
  22733462.905   -11832883.55649  -8874155.36846  22733462.381    22733469.158
       226.000         175.000
  22961595.727   -11667644.15749  -9060010.41346  22961594.219    22961601.247
       217.000         167.000
  20218851.473   -24627678.75549 -18790091.08248  20218851.271    20218855.992
       239.000         215.000
  22637058.247   -12887968.82149  -9231659.84946  22637058.181    22637064.124
       231.000         183.000
  23922839.974    -5934768.64249  -4598137.49945  23922841.621    23922847.649
       209.000         149.000
  20751558.992   -24368519.25049 -18658436.27947  20751558.575    20751564.976
       242.000         208.000
  22073002.906   -17145711.03349 -13342688.41547  22073002.598    22073009.632
       232.000         189.000
 03  4 18  0 24  0.0000000  0  9G25G18G31G21G14G23G 9G15G 3
  24139664.130    -7502688.48549  -5493157.18445  24139665.018    24139674.383
       213.000         146.000
  22358127.824   -13022082.23749  -9741267.38046  22358127.560    22358133.584
       229.000         182.000
  22730618.162   -11847833.20349  -8885804.44746  22730617.711    22730624.412
       226.000         176.000
  22977526.943   -11583925.09449  -8994774.83346  22977526.899    22977534.087
       222.000         167.000
  20217694.484   -24633758.85049 -18794828.80048  20217694.132    20217698.879
       239.000         215.000
  22644863.433   -12846952.28649  -9199698.93446  22644862.198    22644869.603
       229.000         182.000
  23931798.520    -5887690.72749  -4561453.50545  23931799.420    23931805.807
       206.000         149.000
  20759433.480   -24327138.60349 -18626191.65947  20759433.163    20759439.751
       242.000         208.000
  22078626.088   -17116161.06349 -13319662.47947  22078626.165    22078633.319
       233.000         189.000
 03  4 18  0 24 30.0000000  0  9G25G18G31G21G14G23G 9G15G 3
  24121522.400    -7598022.58449  -5567443.16445  24121521.728    24121532.586
       210.000         145.000
  22367592.922   -12972342.61149  -9702509.24446  22367592.458    22367598.211
       228.000         181.000
  22727876.466   -11862240.23849  -8897030.69846  22727875.899    22727882.707
       225.000         175.000
  22993514.119   -11499912.72349  -8929310.71546  22993514.561    22993520.121
       223.000         166.000
  20216635.699   -24639322.66549 -18799164.22848  20216635.325    20216640.082
       239.000         215.000
  22652668.514   -12805935.13149  -9167737.54046  22652668.074    22652675.274
       230.000         182.000
  23940858.445    -5840082.25049  -4524356.04445  23940858.998    23940865.539
       218.000         155.000
  20767390.971   -24285321.88649 -18593607.23647  20767390.555    20767397.139
       242.000         208.000
  22084338.701   -17086141.08649 -13296270.30547  22084338.740    22084345.697
       232.000         189.000
 03  4 18  0 25  0.0000000  0  9G25G18G31G21G14G23G 9G15G 3
  24103372.186    -7693401.08449  -5641763.74345  24103371.333    24103383.143
       208.000         146.000
  22377067.923   -12922550.63749  -9663710.32346  22377067.788    22377072.539
       230.000         180.000
  22725238.081   -11876104.70249  -8907834.15746  22725238.235    22725244.267
       226.000         175.000
  23009556.854   -11415607.93349  -8863618.73346  23009556.336    23009563.616
       220.000         166.000
  20215675.010   -24644370.91449 -18803097.90848  20215674.640    20215679.557
       239.000         215.000
  22660474.041   -12764917.44449  -9135775.72346  22660473.770    22660480.878
       230.000         183.000
  23950019.039    -5791944.53949  -4486846.07845  23950019.217    23950025.118
       211.000         150.000
  20775431.377   -24243069.11949 -18560683.02247  20775430.809    20775437.612
       242.000         208.000
  22090140.345   -17055653.15749 -13272513.48447  22090140.474    22090146.947
       233.000         188.000
 03  4 18  0 25 30.0000000  0  9G25G18G31G21G14G23G 9G15G 3
  24085214.125    -7788821.06949  -5716116.70245  24085211.525    24085223.699
       205.000         144.000
  22386553.171   -12872706.21149  -9624870.53346  22386553.671    22386558.386
       231.000         181.000
  22722703.176   -11889426.49549  -8918214.79946  22722703.280    22722709.541
       225.000         175.000
  23025654.907   -11331011.79649  -8797699.69546  23025653.452    23025662.123
       218.000         166.000
  20214812.358   -24648904.15949 -18806630.29148  20214812.137    20214816.919
       239.000         216.000
  22668279.707   -12723898.84449  -9103813.18846  22668278.657    22668286.085
       230.000         182.000
  23959279.250    -5743278.65749  -4448924.68345  23959280.136    23959288.119
       206.000         143.000
  20783554.907   -24200379.83849 -18527418.66947  20783554.495    20783561.129
       242.000         208.000
  22096030.808   -17024698.81549 -13248393.22847  22096030.766    22096037.705
       232.000         188.000
 03  4 18  0 26  0.0000000  0  9G25G18G31G21G14G23G 9G15G 3
  24067048.853    -7884279.72449  -5790499.75045  24067047.999    24067059.135
       208.000         147.000
  22396048.272   -12822809.06349  -9585989.67746  22396048.548    22396054.227
       231.000         182.000
  22720271.235   -11902205.70449  -8928172.60546  22720270.074    22720278.738
       224.000         174.000
  23041808.297   -11246125.36949  -8731554.50046  23041807.319    23041813.122
       219.000         166.000
  20214047.551   -24652923.22649 -18809762.01548  20214047.156    20214051.896
       239.000         216.000
  22676085.290   -12682879.01549  -9071849.70646  22676084.234    22676091.831
       228.000         180.000
  23968640.242    -5694085.99849  -4410592.72845  23968640.885    23968649.857
       215.000         149.000
  20791761.577   -24157253.82149 -18493813.99647  20791761.073    20791767.786
       242.000         208.000
  22102009.681   -16993279.74449 -13223910.84847  22102009.737    22102016.562
       232.000         188.000
 03  4 18  0 26 30.0000000  0  9G25G18G31G21G14G23G 9G15G 3
  24048876.292    -7979775.04849  -5864911.40045  24048877.189    24048885.570
       213.000         146.000
  22405553.611   -12772859.42849  -9547067.90146  22405553.798    22405559.331
       231.000         182.000
  22717942.566   -11914442.75049  -8937707.96046  22717942.666    22717949.563
       226.000         175.000
  23058016.552   -11160949.71349  -8665183.91946  23058016.827    23058023.662
       220.000         165.000
  20213380.428   -24656429.02549 -18812493.79048  20213380.118    20213384.812
       239.000         216.000
  22683891.179   -12641858.05749  -9039885.35846  22683891.519    22683898.227
       230.000         181.000
  23978101.484    -5644367.89449  -4371851.33445  23978103.864    23978111.213
       213.000         151.000
  20800051.239   -24113691.39649 -18459869.25747  20800050.934    20800057.600
       242.000         208.000
  22108076.608   -16961397.82349 -13199067.80547  22108076.547    22108083.483
       232.000         188.000
 03  4 18  0 27  0.0000000  0  9G25G18G31G21G14G23G 9G15G 3
  24030697.327    -8075304.49749  -5939349.60545  24030695.975    24030705.395
       211.000         146.000
  22415068.567   -12722857.58349  -9508105.43846  22415067.682    22415073.982
       228.000         181.000
  22715717.100   -11926137.93449  -8946821.10546  22715716.976    22715723.467
       226.000         176.000
  23074279.830   -11075486.27849  -8598589.09146  23074279.609    23074284.716
       220.000         164.000
  20212810.700   -24659422.73849 -18814826.53848  20212810.512    20212815.102
       239.000         216.000
  22691697.619   -12600836.05449  -9007920.18146  22691698.774    22691704.829
       232.000         183.000
  23987662.395    -5594125.56649  -4332701.46545  23987661.368    23987671.127
       209.000         147.000
  20808423.934   -24069692.80349 -18425584.65047  20808423.418    20808430.199
       242.000         208.000
  22114231.171   -16929055.39849 -13173865.92147  22114231.136    22114238.090
       232.000         188.000
 03  4 18  0 27 30.0000000  0  9G25G18G31G21G14G23G 9G15G 3
  24012512.564    -8170865.43949  -6013812.39745  24012512.424    24012520.041
       210.000         146.000
  22424593.427   -12672803.27649  -9469102.11946  22424593.167    22424598.898
       229.000         181.000
  22713594.691   -11937291.27249  -8955512.02146  22713594.146    22713600.931
       225.000         176.000
  23090597.740   -10989735.88849  -8531770.65546  23090596.862    23090605.243
       217.000         164.000
  20212338.295   -24661905.18649 -18816760.89748  20212338.010    20212342.732
       239.000         216.000
  22699504.348   -12559812.65749  -8975953.92346  22699504.470    22699510.743
       231.000         182.000
  23997322.768    -5543360.34449  -4293144.14445  23997323.169    23997329.213
       211.000         149.000
  20816879.634   -24025257.84649 -18390960.02447  20816879.005    20816885.937
       241.000         207.000
  22120472.996   -16896254.26549 -13148306.60747  22120473.325    22120480.254
       232.000         188.000
 03  4 18  0 28  0.0000000  0  9G25G18G31G21G14G23G 9G15G 3
  23994322.233    -8266455.17149  -6088297.59645  23994321.677    23994331.981
       210.000         148.000
  22434128.509   -12622696.35449  -9430057.79446  22434128.846    22434135.148
       229.000         181.000
  22711575.279   -11947902.91749  -8963780.84746  22711574.954    22711581.885
       226.000         175.000
  23106969.904   -10903699.45049  -8464729.34446  23106969.638    23106975.201
       220.000         164.000
  20211963.050   -24663877.05149 -18818297.40148  20211962.759    20211967.558
       239.000         216.000
  22707311.301   -12518787.54949  -8943986.32346  22707311.246    22707317.749
       230.000         182.000
  24007082.256    -5492073.15849  -4253180.15845  24007082.253    24007089.308
       212.000         151.000
  20825418.398   -23980386.37049 -18355995.25047  20825417.693    20825424.854
       241.000         207.000
  22126801.793   -16862996.02449 -13122391.10547  22126801.644    22126808.809
       233.000         188.000
 03  4 18  0 28 30.0000000  0  9G25G18G31G21G14G23G 9G15G 3
  23976126.975    -8362070.84949  -6162803.03945  23976125.234    23976136.115
       207.000         148.000
  22443673.584   -12572537.00449  -9390972.60946  22443674.388    22443679.669
       231.000         182.000
  22709659.023   -11957973.17449  -8971627.80546  22709658.441    22709666.130
       225.000         176.000
  23123396.303   -10817378.22349  -8397466.10846  23123397.185    23123403.628
       221.000         163.000
  20211684.792   -24665339.31749 -18819436.81348  20211684.642    20211689.201
       240.000         216.000
  22715118.327   -12477760.61349  -8912017.30446  22715117.961    22715124.995
       227.000         180.000
  24016940.841    -5440265.79349  -4212810.78645  24016940.238    24016948.944
       201.000         147.000
  20834040.140   -23935078.67649 -18320690.55647  20834039.545    20834046.247
       241.000         207.000
  22133217.274   -16829282.73549 -13096121.02646  22133217.592    22133224.074
       233.000         187.000
 03  4 18  0 29  0.0000000  0  9G25G18G31G21G14G23G 9G15G 3
  23957927.264    -8457709.93749  -6237326.70445  23957925.403    23957937.040
       209.000         149.000
  22453228.794   -12522325.18249  -9351846.53846  22453229.013    22453233.768
       231.000         182.000
  22707845.767   -11967502.15449  -8979052.99146  22707846.075    22707852.932
       228.000         177.000
  23139876.780   -10730773.35949  -8329981.84346  23139875.518    23139881.761
       216.000         163.000
  20211503.313   -24666292.97549 -18820179.91048  20211502.998    20211507.749
       240.000         216.000
  22722925.750   -12436731.69549  -8880046.74346  22722925.276    22722933.103
       228.000         180.000
  24026898.133    -5387939.16249  -4172036.74745  24026897.245    24026905.790
       209.000         143.000
  20842744.949   -23889334.77849 -18285045.97947  20842744.498    20842751.207
       241.000         207.000
  22139719.022   -16795115.78849 -13069497.43946  22139718.802    22139725.995
       232.000         187.000
 03  4 18  0 29 30.0000000  0  9G25G18G31G21G14G23G 9G15G 3
  23939723.462    -8553370.10349  -6311866.81445  23939723.324    23939733.582
       213.000         150.000
  22462793.863   -12472060.97049  -9312679.62246  22462793.921    22462799.099
       230.000         181.000
  22706135.409   -11976490.58149  -8986056.97046  22706134.230    22706141.404
       224.000         176.000
  23156410.849   -10643886.17949  -8262277.62246  23156410.421    23156417.780
       219.000         163.000
  20211418.374   -24666739.35049 -18820527.71748  20211418.066    20211422.740
       240.000         216.000
  22730733.664   -12395700.84649  -8848074.67646  22730733.760    22730740.951
       230.000         180.000
  24036954.159    -5335095.31449  -4130859.72345  24036954.832    24036964.139
       212.000         149.000
  20851532.727   -23843154.91849 -18249061.68347  20851532.255    20851538.925
       241.000         207.000
  22146306.531   -16760497.85449 -13042522.44446  22146306.051    22146313.457
       231.000         187.000
 03  4 18  0 30  0.0000000  0  9G25G18G31G21G14G23G 9G15G 3
  23921516.257    -8649048.67749  -6386421.23945  23921516.179    23921525.112
       214.000         149.000
  22472368.657   -12421744.73349  -9273472.19046  22472367.913    22472374.341
       230.000         181.000
  22704527.589   -11984938.88649  -8992640.07946  22704528.302    22704534.327
       227.000         175.000
  23172998.462   -10556717.95749  -8194354.39045  23172998.537    23173004.373
       219.000         161.000
  20211429.718   -24666679.55449 -18820481.10948  20211429.429    20211434.049
       240.000         216.000
  22738542.251   -12354667.91849  -8816100.98546  22738542.575    22738548.219
       230.000         180.000
  24047108.204    -5281735.46449  -4089280.64245  24047107.484    24047119.012
       208.000         151.000
  20860403.330   -23796539.42949 -18212737.93547  20860402.784    20860409.630
       241.000         206.000
  22152979.583   -16725430.88849 -13015197.55146  22152979.312    22152986.270
       232.000         187.000
 03  4 18  0 30 30.0000000  0  9G25G18G31G21G14G23G 9G15G 3
  23903306.100    -8744742.72049  -6460987.75645  23903305.016    23903314.657
       209.000         150.000
  22481953.492   -12371375.93249  -9234223.79746  22481953.477    22481959.627
       230.000         181.000
  22703022.883   -11992847.24549  -8998802.44146  22703021.965    22703029.995
       223.000         176.000
  23189639.433   -10469269.87449  -8126213.08745  23189639.357    23189646.949
       219.000         162.000
  20211537.250   -24666114.41649 -18820040.72748  20211536.964    20211541.620
       240.000         216.000
  22746351.158   -12313632.55849  -8784125.36346  22746350.939    22746357.651
       230.000         180.000
  24057360.306    -5227860.83949  -4047300.48445  24057360.566    24057367.839
       215.000         151.000
  20869356.865   -23749488.22649 -18176074.68047  20869356.265    20869363.151
       241.000         206.000
  22159737.711   -16689916.85849 -12987524.30446  22159737.833    22159744.367
       231.000         187.000
 03  4 18  0 31  0.0000000  0  9G25G18G31G21G14G23G 9G15G 3
  23885093.477    -8840450.09349  -6535564.63045  23885091.695    23885099.944
       210.000         150.000
  22491548.282   -12320954.86749  -9194934.69346  22491548.515    22491553.614
       230.000         181.000
  22701620.371   -12000216.17049  -9004544.46446  22701620.285    22701626.854
       227.000         175.000
  23206333.462   -10381543.12249  -8057854.62545  23206333.570    23206339.534
       220.000         162.000
  20211740.751   -24665045.04249 -18819207.43548  20211740.493    20211745.097
       240.000         216.000
  22754160.381   -12272594.76449  -8752147.86946  22754159.393    22754167.360
       229.000         179.000
  24067709.963    -5173473.39849  -4004920.66845  24067706.104    24067716.565
       197.000         145.000
  20878393.296   -23702001.44249 -18139072.00247  20878392.849    20878399.674
       241.000         206.000
  22166580.503   -16653957.80449 -12959504.28146  22166580.236    22166587.030
       231.000         186.000
 03  4 18  0 31 30.0000000  0  9G25G18G31G21G14G23G 9G15G 3
  23866878.731    -8936167.33749  -6610149.17945  23866878.224    23866888.750
       214.000         152.000
  22501153.265   -12270480.56849  -9155604.09646  22501153.416    22501157.882
       230.000         179.000
  22700321.002   -12007045.28049  -9009865.85246  22700320.295    22700328.022
       226.000         177.000
  23223080.225   -10293538.11349  -7989279.38045  23223080.576    23223086.892
       219.000         162.000
  20212040.092   -24663471.78749 -18817981.50748  20212039.776    20212044.534
       239.000         216.000
  22761970.038   -12231553.47049  -8720167.66546  22761968.717    22761976.728
       227.000         179.000
  24078156.794    -5118573.58249  -3962141.60445  24078154.291    24078164.356
       202.000         139.000
  20887512.760   -23654078.56049 -18101729.50947  20887512.386    20887519.178
       241.000         206.000
  22173507.747   -16617555.08049 -12931138.54346  22173507.540    22173514.852
       231.000         186.000
 03  4 18  0 32  0.0000000  0  9G25G18G31G21G14G23G 9G15G 3
  23848662.637    -9031892.27149  -6684739.77645  23848661.395    23848671.395
       213.000         151.000
  22510768.127   -12219954.02249  -9116232.78746  22510767.370    22510773.677
       228.000         178.000
  22699123.955   -12013335.76849  -9014767.52646  22699123.404    22699129.578
       225.000         176.000
  23239879.943   -10205255.90449  -7920488.08745  23239878.727    23239886.004
       217.000         161.000
  20212435.025   -24661396.28549 -18816364.22348  20212434.723    20212439.475
       240.000         216.000
  22769780.272   -12190509.32549  -8688185.24446  22769779.899    22769787.404
       227.000         179.000
  24088700.928    -5063163.96049  -3918965.30145  24088702.638    24088712.140
       219.000         148.000
  20896714.934   -23605720.63549 -18064048.02847  20896714.516    20896721.293
       241.000         206.000
  22180518.911   -16580711.19249 -12902429.05546  22180519.176    22180525.741
       231.000         186.000
 03  4 18  0 32 30.0000000  0  9G25G18G31G21G14G23G 9G15G 3
  23830445.683    -9127622.14349  -6759334.18245  23830445.106    23830453.761
       213.000         152.000
  22520392.997   -12169374.83449  -9076820.46246  22520393.136    22520399.084
       230.000         179.000
  22698029.286   -12019087.78249  -9019249.61946  22698028.652    22698034.687
       225.000         174.000
  23256731.666   -10116699.48149  -7851483.14845  23256732.429    23256738.099
       221.000         162.000
  20212925.353   -24658819.52349 -18814356.33948  20212925.213    20212929.756
       240.000         216.000
  22777591.456   -12149461.67049  -8656200.07246  22777592.101    22777599.195
       230.000         179.000
  24099342.077    -5007245.45449  -3875392.37545  24099344.011    24099354.028
       214.000         152.000
  20906000.006   -23556927.43849 -18026027.37047  20905999.478    20906006.368
       240.000         206.000
  22187613.713   -16543427.99549 -12873377.23246  22187613.435    22187620.353
       231.000         186.000
 03  4 18  0 33  0.0000000  0  9G25G18G31G21G14G23G 9G15G 3
  23812228.126    -9223354.63249  -6833930.64545  23812227.948    23812236.258
       214.000         152.000
  22530028.014   -12118743.21449  -9037367.27546  22530028.106    22530034.639
       229.000         180.000
  22697037.092   -12024302.19549  -9023312.79046  22697036.878    22697043.725
       227.000         176.000
  23273635.675   -10027868.07849  -7782263.95945  23273635.507    23273640.998
       220.000         161.000
  20213510.805   -24655743.10949 -18811959.11948  20213510.468    20213515.201
       240.000         216.000
  22785403.440   -12108410.66949  -8624212.30246  22785403.703    22785409.657
       227.000         179.000
  24110079.473    -4950819.98749  -3831424.53345  24110074.753    24110089.147
       197.000         146.000
  20915367.772   -23507699.60649 -17987668.04047  20915367.273    20915374.088
       241.000         206.000
  22194791.650   -16505708.07249 -12843985.11846  22194791.665    22194799.310
       232.000         186.000
 03  4 18  0 33 30.0000000  0  9G25G18G31G21G14G23G 9G15G 3
  23794010.650    -9319086.70149  -6908526.78445  23794009.260    23794019.837
       213.000         152.000
  22539672.894   -12068058.78749  -8997872.95346  22539672.639    22539679.391
       228.000         180.000
  22696147.148   -12028979.36349  -9026957.34346  22696146.525    22696154.206
       227.000         176.000
  23290591.779    -9938763.69249  -7712832.02645  23290591.679    23290597.540
       220.000         161.000
  20214191.092   -24652167.98949 -18809173.29748  20214190.877    20214195.392
       240.000         216.000
  22793215.816   -12067355.96049  -8592221.63446  22793215.275    22793222.522
       227.000         179.000
  24120912.850    -4893888.97549  -3787062.83145  24120913.089    24120924.354
       214.000         145.000
  20924818.205   -23458037.21649 -17948970.09647  20924817.870    20924824.575
       240.000         205.000
  22202052.221   -16467553.44149 -12814254.26546  22202052.099    22202059.035
       231.000         186.000
 03  4 18  0 34  0.0000000  0  9G25G18G31G21G14G23G 9G15G 3
  23775793.845    -9414815.90749  -6983120.69845  23775792.911    23775801.050
       216.000         153.000
  22549327.735   -12017321.80349  -8958337.68946  22549327.905    22549333.238
       230.000         179.000
  22695359.206   -12033119.74749  -9030183.59946  22695358.520    22695366.888
       226.000         177.000
  23307599.353    -9849388.30349  -7643188.93345  23307600.164    23307603.908
       219.000         160.000
  20214966.101   -24648095.20549 -18805999.68248  20214965.840    20214970.450
       239.000         216.000
  22801028.921   -12026297.30049  -8560227.89946  22801027.747    22801035.419
       227.000         178.000
  24131842.723    -4836454.16749  -3742308.42445  24131843.672    24131851.015
       218.000         150.000
  20934351.310   -23407940.46849 -17909933.68747  20934350.761    20934357.676
       241.000         205.000
  22209395.110   -16428966.15449 -12784186.28046  22209394.886    22209402.189
       231.000         186.000
 03  4 18  0 34 30.0000000  0  9G25G18G31G21G14G23G 9G15G 3
  23757578.119    -9510539.63849  -7057710.35145  23757577.162    23757585.816
       212.000         154.000
  22558992.724   -11966531.79849  -8918761.09746  22558992.345    22558998.268
       230.000         178.000
  22694673.401   -12036723.68649  -9032991.85646  22694673.195    22694680.529
       224.000         176.000
  23324658.479    -9759742.89349  -7573335.41345  23324658.115    23324665.054
       216.000         160.000
  20215835.652   -24643525.68549 -18802438.99848  20215835.358    20215839.972
       240.000         216.000
  22808842.858   -11985234.11249  -8528230.64246  22808842.497    22808850.149
       226.000         178.000
  24142867.877    -4778516.81349  -3697162.38445  24142870.788    24142878.957
       219.000         151.000
  20943967.095   -23357409.31049 -17870558.77347  20943966.514    20943973.404
       241.000         205.000
  22216820.079   -16389947.75549 -12753782.36346  22216819.846    22216827.201
       231.000         185.000
 03  4 18  0 35  0.0000000  0  9G25G18G31G21G14G23G 9G15G 3
  23739363.830    -9606254.89449  -7132293.40945  23739362.491    23739375.075
       214.000         154.000
  22568667.865   -11915688.80049  -8879143.19546  22568668.266    22568673.007
       231.000         178.000
  22694089.444   -12039791.97749  -9035382.73146  22694089.379    22694096.645
       226.000         176.000
  23341768.557    -9669828.78749  -7503272.52645  23341768.470    23341773.142
       216.000         159.000
  20216799.394   -24638460.97049 -18798492.45448  20216799.011    20216803.754
       240.000         217.000
  22816657.892   -11944166.26649  -8496229.75946  22816658.566    22816665.362
       229.000         179.000
  24153988.215    -4720078.55949  -3651626.03745  24153989.191    24154001.503
       208.000         143.000
  20953665.462   -23306444.23649 -17830845.75147  20953664.950    20953671.743
       240.000         205.000
  22224326.713   -16350500.60149 -12723044.35246  22224326.289    22224333.905
       231.000         185.000
 03  4 18  0 35 30.0000000  0  9G25G18G31G21G14G23G 9G15G 3
  23721151.550    -9701959.36649  -7206868.10445  23721151.359    23721160.795
       215.000         154.000
  22578353.342   -11864792.58949  -8839483.84046  22578353.301    22578358.797
       230.000         179.000
  22693607.438   -12042325.12249  -9037356.60646  22693607.283    22693613.648
       226.000         176.000
  23358929.480    -9579646.87149  -7433000.99245  23358930.359    23358937.587
       219.000         159.000
  20217857.268   -24632901.94649 -18794160.73448  20217857.189    20217861.602
       240.000         217.000
  22824473.983   -11903093.36449  -8464224.92646  22824473.346    22824481.293
       227.000         179.000
  24165203.350    -4661140.86049  -3605700.65545  24165198.881    24165214.513
       198.000         139.000
  20963446.327   -23255045.46849 -17790794.78447  20963445.888    20963452.730
       240.000         205.000
  22231914.374   -16310626.96149 -12691974.01146  22231914.096    22231921.329
       230.000         185.000
 03  4 18  0 36  0.0000000  0  9G25G18G31G21G14G23G 9G15G 3
  23702941.979    -9797650.10449  -7281432.07045  23702940.915    23702950.729
       213.000         155.000
  22588048.788   -11813843.06749  -8799782.93346  22588048.559    22588053.650
       228.000         179.000
  22693227.179   -12044323.66949  -9038913.92146  22693227.146    22693234.459
       226.000         177.000
  23376141.359    -9489198.81149  -7362522.01245  23376139.735    23376148.565
       214.000         158.000
  20219008.959   -24626849.73849 -18789444.71648  20219008.662    20219013.199
       240.000         217.000
  22832290.859   -11862015.24949  -8432216.03946  22832290.704    22832297.931
       228.000         179.000
  24176513.467    -4601705.95149  -3559387.80245  24176512.928    24176523.826
       213.000         149.000
  20973309.682   -23203213.34649 -17750406.14747  20973309.120    20973316.001
       241.000         205.000
  22239582.859   -16270328.90249 -12660572.95246  22239582.697    22239590.177
       231.000         185.000
 03  4 18  0 36 30.0000000  0  9G25G18G31G21G14G23G 9G15G 3
  23684735.571    -9893324.42549  -7355983.25345  23684736.948    23684745.882
       216.000         156.000
  22597754.310   -11762840.67449  -8760040.83746  22597753.561    22597759.496
       229.000         178.000
  22692948.444   -12045788.50349  -9040055.34146  22692947.589    22692956.020
       225.000         177.000
  23393403.268    -9398485.79649  -7291836.59845  23393404.153    23393412.351
       219.000         158.000
  20220254.133   -24620306.12649 -18784345.78748  20220253.910    20220258.685
       240.000         217.000
  22840108.902   -11820931.61449  -8400202.84246  22840108.212    22840115.624
       228.000         178.000
  24187918.178    -4541775.26649  -3512688.60345  24187919.312    24187926.827
       214.000         151.000
  20983255.358   -23150948.36149 -17709680.22047  20983254.945    20983261.897
       241.000         205.000
  22247331.716   -16229608.66149 -12628842.92146  22247331.673    22247338.560
       231.000         185.000
 03  4 18  0 37  0.0000000  0  9G25G18G31G21G14G23G 9G15G 3
  23666532.721    -9988979.91249  -7430519.77745  23666532.950    23666542.163
       215.000         156.000
  22607469.751   -11711785.04349  -8720257.27546  22607469.834    22607475.791
       228.000         178.000
  22692771.046   -12046720.30449  -9040781.42446  22692770.622    22692778.066
       226.000         178.000
  23410715.548    -9307509.10749  -7220945.76345  23410714.979    23410721.560
       216.000         156.000
  20221592.619   -24613272.25449 -18778864.84248  20221592.303    20221597.024
       240.000         216.000
  22847927.848   -11779842.24449  -8368185.18446  22847927.309    22847934.378
       226.000         177.000
  24199416.651    -4481350.52049  -3465604.37145  24199417.882    24199422.215
       214.000         142.000
  20993283.382   -23098250.76749 -17668617.18647  20993283.033    20993289.694
       241.000         205.000
  22255160.392   -16188468.67549 -12596785.82446  22255160.243    22255167.793
       231.000         185.000
 03  4 18  0 37 30.0000000  0  9G25G18G31G21G14G23G 9G15G 3
  23648333.931   -10084613.78249  -7505039.43745  23648334.139    23648341.908
       216.000         156.000
  22617195.541   -11660675.61849  -8680431.77646  22617194.832    22617201.193
       228.000         178.000
  22692695.081   -12047119.52949  -9041092.51146  22692695.464    22692702.321
       227.000         178.000
  23428077.975    -9216269.73449  -7149850.16345  23428074.462    23428088.989
       211.000         157.000
  20223024.162   -24605749.17549 -18773002.69048  20223023.842    20223028.649
       240.000         216.000
  22855748.055   -11738746.66849  -8336162.67846  22855748.415    22855755.011
       226.000         177.000
  24211008.880    -4420433.22549  -3418136.28045  24211008.907    24211018.757
       209.000         136.000
  21003393.748   -23045120.70649 -17627217.15047  21003393.263    21003400.115
       240.000         205.000
  22263068.664   -16146910.93949 -12564403.19146  22263068.978    22263075.383
       231.000         185.000
 03  4 18  0 38  0.0000000  0  9G25G18G31G21G14G23G 9G15G 3
  23630140.057   -10180223.16049  -7579540.03045  23630139.225    23630147.283
       216.000         157.000
  22626931.493   -11609512.58849  -8640564.51446  22626931.401    22626937.302
       228.000         177.000
  22692720.460   -12046987.04449  -9040989.31046  22692720.077    22692725.777
       225.000         177.000
  23445489.783    -9124769.21949  -7078551.15345  23445490.035    23445494.222
       217.000         155.000
  20224548.577   -24597738.34849 -18766760.48448  20224548.377    20224552.825
       240.000         217.000
  22863569.473   -11697644.67249  -8304135.18346  22863569.011    22863576.804
       226.000         177.000
  24222694.362    -4359025.55049  -3370286.17845  24222693.318    24222703.459
       207.000         143.000
  21013586.212   -22991558.91649 -17585480.70147  21013585.727    21013592.471
       240.000         204.000
  22271055.870   -16104937.89149 -12531696.94946  22271055.929    22271063.216
       231.000         184.000
 03  4 18  0 38 30.0000000  0  9G25G18G31G21G14G23G 9G15G 3
  23611951.184   -10275805.25349  -7654019.35345  23611951.866    23611960.408
       217.000         158.000
  22636677.852   -11558296.09249  -8600655.57946  22636678.524    22636683.281
       229.000         178.000
  22692846.504   -12046323.83849  -9040472.52946  22692846.020    22692853.070
       224.000         175.000
  23462951.364    -9033008.94349  -7007049.71145  23462950.997    23462959.938
       216.000         157.000
  20226165.509   -24589241.23949 -18760139.35248  20226165.277    20226170.009
       240.000         217.000
  22871392.182   -11656536.14449  -8272102.58046  22871392.514    22871398.268
       227.000         177.000
  24234472.829    -4297129.13349  -3322055.27045  24234473.753    24234482.077
       211.000         150.000
  21023860.810   -22937565.90549 -17543408.24147  21023860.424    21023867.045
       241.000         204.000
  22279121.760   -16062551.72149 -12498668.79046  22279121.785    22279128.824
       231.000         184.000
 03  4 18  0 39  0.0000000  0  9G25G18G31G21G14G23G 9G15G 3
  23593768.050   -10371357.43449  -7728475.38245  23593768.194    23593776.173
       218.000         158.000
  22646434.315   -11507026.15749  -8560705.00746  22646434.070    22646439.700
       227.000         177.000
  22693073.547   -12045130.72249  -9039542.83646  22693073.622    22693081.117
       224.000         176.000
  23480462.037    -8940990.33249  -6935346.93845  23480463.284    23480467.224
       218.000         155.000
  20227874.743   -24580259.22749 -18753140.37548  20227874.454    20227879.219
       240.000         217.000
  22879216.177   -11615420.92449  -8240064.77846  22879216.648    22879223.551
       227.000         177.000
  24246344.002    -4234745.91849  -3273445.04445  24246345.504    24246351.520
       210.000         150.000
  21034217.338   -22883142.13049 -17501000.11947  21034216.725    21034223.552
       240.000         204.000
  22287265.732   -16019754.89549 -12465320.63746  22287265.947    22287272.538
       231.000         184.000
 03  4 18  0 39 30.0000000  0  9G25G18G31G21G14G23G 9G15G 3
  23575591.195   -10466876.80649  -7802905.87545  23575591.717    23575597.287
       218.000         157.000
  22656200.795   -11455701.99649  -8520712.18546  22656199.629    22656207.145
       226.000         177.000
  22693401.374   -12043407.93449  -9038200.42946  22693402.045    22693409.080
       224.000         176.000
  23498021.516    -8848714.34449  -6863443.69545  23498022.008    23498027.975
       217.000         155.000
  20229676.060   -24570793.22349 -18745764.26648  20229675.847    20229680.463
       240.000         217.000
  22887041.655   -11574298.03949  -8208020.99246  22887041.561    22887048.318
       227.000         177.000
  24258307.608    -4171876.95749  -3224456.28245  24258307.073    24258313.794
       202.000         143.000
  21044655.810   -22828287.49349 -17458256.27147  21044655.198    21044662.279
       240.000         204.000
  22295487.527   -15976549.25149 -12431653.92746  22295487.635    22295494.848
       231.000         184.000
 03  4 18  0 40  0.0000000  0  9G25G18G31G21G14G23G 9G15G 3
  23557420.935   -10562361.14349  -7877309.03445  23557420.307    23557427.207
       217.000         158.000
  22665977.611   -11404323.81249  -8480677.26446  22665978.140    22665984.198
       227.000         177.000
  22693829.810   -12041156.68549  -9036446.22446  22693829.159    22693836.195
       225.000         176.000
  23515629.884    -8756182.98549  -6791341.39445  23515628.909    23515636.306
       214.000         155.000
  20231569.165   -24560845.05449 -18738012.43648  20231568.826    20231573.457
       240.000         217.000
  22894868.477   -11533167.60249  -8175971.31846  22894868.003    22894875.384
       227.000         177.000
  24270363.112    -4108524.82049  -3175090.94345  24270361.398    24270366.353
       205.000         135.000
  21055176.151   -22773002.64149 -17415177.18947  21055175.845    21055182.441
       240.000         204.000
  22303786.654   -15932937.22349 -12397670.54646  22303786.550    22303793.763
       231.000         184.000
 03  4 18  0 40 30.0000000  0  9G25G18G31G21G14G23G 9G15G 3
  23539257.847   -10657807.92749  -7951682.95045  23539257.951    23539265.749
       217.000         158.000
  22675764.876   -11352892.08349  -8440600.61546  22675765.104    22675770.187
       227.000         177.000
  22694358.461   -12038378.48849  -9034281.40546  22694357.903    22694364.749
       225.000         176.000
  23533286.428    -8663397.80749  -6719041.27345  23533288.034    23533295.042
       218.000         157.000
  20233553.630   -24550416.48149 -18729886.26748  20233553.362    20233558.091
       241.000         217.000
  22902696.741   -11492029.86349  -8143915.95746  22902696.663    22902704.476
       229.000         178.000
  24282510.043    -4044691.75749  -3125350.86345  24282510.668    24282517.857
       215.000         136.000
  21065778.246   -22717288.53449 -17371763.61247  21065777.855    21065784.545
       239.000         203.000
  22312162.525   -15888921.95849 -12363372.95846  22312162.841    22312170.073
       230.000         183.000
 03  4 18  0 41  0.0000000  0  9G25G18G31G21G14G23G 9G15G 3
  23521102.614   -10753213.83149  -8026024.99545  23521102.160    23521110.891
       218.000         158.000
  22685562.528   -11301405.87449  -8400481.52046  22685561.932    22685568.678
       226.000         176.000
  22694987.428   -12035073.29949  -9031705.94746  22694987.617    22694994.336
       226.000         176.000
  23550991.193    -8570359.55749  -6646544.05445  23550991.378    23550999.021
       216.000         156.000
  20235629.462   -24539507.97849 -18721386.12548  20235629.155    20235633.807
       240.000         217.000
  22910526.888   -11450883.43949  -8111853.84046  22910526.882    22910534.881
       229.000         178.000
  24294748.521    -3980379.12049  -3075237.12845  24294750.084    24294755.875
       215.000         147.000
  21076462.023   -22661144.97249 -17328015.40147  21076461.439    21076468.454
       239.000         203.000
  22320614.854   -15844504.81349 -12328762.22146  22320615.190    22320621.927
       230.000         183.000
 03  4 18  0 41 30.0000000  0  9G25G18G31G21G14G23G 9G15G 3
  23502955.765   -10848576.15149  -8100333.09645  23502954.793    23502963.329
       217.000         159.000
  22695370.338   -11249864.92949  -8360319.76846  22695369.912    22695375.889
       225.000         175.000
  22695716.548   -12031242.12349  -9028720.63046  22695716.502    22695723.215
       226.000         176.000
  23568743.626    -8477069.50949  -6573850.53545  23568741.220    23568754.795
       212.000         155.000
  20237796.201   -24528121.59149 -18712513.60748  20237795.935    20237800.693
       241.000         217.000
  22918358.522   -11409728.26449  -8079784.90046  22918358.181    22918366.079
       227.000         178.000
  24307077.800    -3915588.60249  -3024751.05145  24307078.240    24307086.890
       210.000         151.000
  21087227.349   -22604572.69449 -17283933.12447  21087226.687    21087233.754
       239.000         203.000
  22329143.186   -15799688.32549 -12293840.29846  22329143.146    22329149.926
       231.000         183.000
 03  4 18  0 42  0.0000000  0  9G25G18G31G21G14G23G 9G15G 3
  23484817.585   -10943891.65449  -8174604.70145  23484816.990    23484823.791
       218.000         158.000
  22705188.618   -11198269.04849  -8320115.20846  22705187.666    22705194.588
       225.000         175.000
  22696545.627   -12026885.40749  -9025325.79946  22696544.829    22696552.255
       224.000         175.000
  23586543.715    -8383528.86849  -6500961.82745  23586542.027    23586549.432
       212.000         154.000
  20240053.742   -24516258.01449 -18703269.25248  20240053.493    20240058.116
       241.000         217.000
  22926191.771   -11368563.49749  -8047708.48846  22926190.768    22926198.868
       227.000         177.000
  24319497.740    -3850321.49749  -2973893.61745  24319494.834    24319503.322
       198.000         145.000
  21098074.302   -22547571.70449 -17239516.79047  21098073.987    21098080.750
       239.000         203.000
  22337747.168   -15754474.23349 -12258608.56846  22337746.800    22337754.348
       231.000         183.000
 03  4 18  0 42 30.0000000  0  9G25G18G31G21G14G23G 9G15G 3
  23466688.780   -11039157.94649  -8248837.96845  23466688.839    23466695.676
       218.000         159.000
  22715017.472   -11146618.12649  -8279867.75946  22715017.471    22715023.402
       227.000         175.000
  22697474.429   -12022004.43249  -9021522.46546  22697474.395    22697481.617
       225.000         175.000
  23604391.293    -8289739.41849  -6427879.17945  23604389.931    23604401.217
       212.000         155.000
  20242401.814   -24503918.87849 -18693654.33248  20242401.347    20242406.219
       241.000         217.000
  22934027.062   -11327389.13249  -8015624.59046  22934026.924    22934033.618
       228.000         176.000
  24332007.595    -3784580.25049  -2922666.78245  24332008.531    24332015.969
       213.000         140.000
  21109002.732   -22490142.66649 -17194766.91047  21109002.052    21109009.010
       239.000         202.000
  22346426.302   -15708865.34949 -12223069.20346  22346426.391    22346433.126
       230.000         183.000
 03  4 18  0 43  0.0000000  0  8G25G18G31G21G14G23G15G 3
  23448570.141   -11134370.82749  -8323029.64945  23448569.563    23448578.526
       218.000         160.000
  22724857.236   -11094910.44149  -8239576.08746  22724857.259    22724862.855
       226.000         175.000
  22698503.068   -12016598.76449  -9017310.24446  22698503.073    22698509.587
       225.000         176.000
  23622286.097    -8195701.00649  -6354602.57845  23622286.791    23622291.942
       214.000         153.000
  20244840.314   -24491104.42849 -18683669.03748  20244839.889    20244844.666
       240.000         217.000
  22941864.580   -11286203.27049  -7983531.71946  22941864.488    22941870.839
       227.000         175.000
  21120012.701   -22432284.94449 -17149682.99547  21120012.470    21120018.892
       239.000         202.000
  22355180.384   -15662862.48549 -12187222.84246  22355179.971    22355187.884
       230.000         183.000
 03  4 18  0 43 30.0000000  0  8G25G18G31G21G14G23G15G 3
  23430462.251   -11229527.63349  -8397177.61345  23430461.589    23430470.349
       217.000         160.000
  22734707.687   -11043146.09449  -8199240.26646  22734707.390    22734713.093
       227.000         176.000
  22699631.385   -12010669.57249  -9012690.11046  22699631.042    22699637.649
       226.000         176.000
  23640228.137    -8101415.24349  -6281133.23445  23640228.890    23640234.660
       216.000         155.000
  20247368.958   -24477816.14449 -18673314.51948  20247368.638    20247373.464
       241.000         217.000
  22949704.325   -11245005.62649  -7951429.67246  22949704.060    22949710.573
       228.000         176.000
  21131104.131   -22373999.17749 -17104265.53347  21131103.471    21131110.564
       239.000         202.000
  22364008.884   -15616468.20849 -12151071.48746  22364008.649    22364016.244
       229.000         183.000
 03  4 18  0 44  0.0000000  0  8G25G18G31G21G14G23G15G 3
  23412364.996   -11324628.70349  -8471282.17445  23412365.337    23412371.455
       218.000         160.000
  22744568.394   -10991327.94149  -8158862.52246  22744568.523    22744574.197
       227.000         176.000
  22700858.544   -12004220.64149  -9007664.98946  22700858.573    22700864.560
       226.000         174.000
  23658216.534    -8006886.41349  -6207474.48045  23658218.716    23658222.569
       216.000         154.000
  20249986.980   -24464058.35849 -18662594.15848  20249986.636    20249991.374
       241.000         217.000
  22957545.879   -11203798.78449  -7919320.46446  22957545.402    22957553.037
       226.000         176.000
  21142276.341   -22315288.68649 -17058517.11647  21142275.687    21142282.644
       239.000         202.000
  22372910.896   -15569687.86049 -12114619.29646  22372910.896    22372918.071
       229.000         182.000
 03  4 18  0 44 30.0000000  0  8G25G18G31G21G14G23G15G 3
  23394278.960   -11419670.58549  -8545340.59145  23394279.247    23394285.689
       219.000         161.000
  22754439.600   -10939454.70549  -8118441.83546  22754439.579    22754446.010
       227.000         175.000
  22702184.660   -11997252.17549  -9002235.03246  22702184.585    22702190.540
       226.000         175.000
  23676250.999    -7912115.21249  -6133626.87645  23676250.783    23676258.244
       213.000         154.000
  20252694.144   -24449831.90049 -18651508.59648  20252693.882    20252698.607
       241.000         217.000
  22965389.146   -11162581.39549  -7887203.04346  22965388.962    22965395.965
       227.000         176.000
  21153529.450   -22256153.32749 -17012437.64947  21153529.117    21153536.061
       239.000         202.000
  22381885.985   -15522522.85349 -12077867.37246  22381885.333    22381893.280
       229.000         182.000
 03  4 18  0 45  0.0000000  0  8G25G18G31G21G14G23G15G 3
  23376204.888   -11514649.78249  -8619350.18645  23376204.460    23376212.582
       217.000         161.000
  22764321.387   -10887525.64749  -8077977.66346  22764320.709    22764327.735
       226.000         175.000
  22703609.437   -11989764.86549  -8996400.77446  22703609.438    22703616.459
       225.000         176.000
  23694331.321    -7817102.91349  -6059591.34945  23694330.966    23694339.849
       214.000         155.000
  20255490.331   -24435137.91049 -18640058.72548  20255489.986    20255494.727
       240.000         217.000
  22973234.760   -11121352.72049  -7855076.83846  22973233.991    22973241.581
       228.000         176.000
  21164863.367   -22196593.36949 -16966027.32947  21164862.830    21164869.762
       239.000         201.000
  22390934.008   -15474975.23749 -12040817.31846  22390934.179    22390941.449
       229.000         182.000
 03  4 18  0 45 30.0000000  0  8G25G18G31G21G14G23G15G 3
  23358143.228   -11609563.36649  -8693308.64645  23358142.894    23358152.013
       217.000         161.000
  22774213.673   -10835540.91049  -8037470.10846  22774213.200    22774219.038
       226.000         174.000
  22705132.772   -11981759.67549  -8990162.96546  22705133.463    22705139.762
       227.000         177.000
  23712457.159    -7721850.42949  -5985368.72545  23712458.187    23712463.615
       217.000         154.000
  20258375.171   -24419977.77449 -18628245.62348  20258374.919    20258379.742
       241.000         217.000
  22981082.555   -11080112.28649  -7822941.45146  22981081.988    22981089.420
       226.000         176.000
  21176277.951   -22136609.34749 -16919286.55147  21176277.488    21176284.587
       239.000         201.000
  22400054.351   -15427047.39649 -12003470.97846  22400054.285    22400061.561
       228.000         181.000
 03  4 18  0 46  0.0000000  0  8G25G18G31G21G14G23G15G 3
  23340094.620   -11704408.91249  -8767214.11445  23340094.309    23340102.825
       219.000         161.000
  22784116.719   -10783500.10649  -7996918.86246  22784116.634    22784122.908
       227.000         175.000
  22706754.612   -11973237.67449  -8983522.46346  22706754.591    22706760.851
       225.000         176.000
  23730628.694    -7626359.50749  -5910960.28945  23730628.038    23730637.289
       213.000         153.000
  20261348.451   -24404352.98649 -18616070.45548  20261348.201    20261352.932
       241.000         217.000
  22988932.653   -11038859.51849  -7790796.45646  22988932.473    22988939.778
       226.000         176.000
  21187773.150   -22076201.84949 -16872215.79947  21187772.460    21187779.499
       238.000         201.000
  22409246.564   -15378741.94749 -11965830.39746  22409246.461    22409253.764
       229.000         181.000
 03  4 18  0 46 30.0000000  0  8G25G18G31G21G14G23G15G 3
  23322059.479   -11799183.64949  -8841064.40545  23322059.964    23322066.844
       220.000         161.000
  22794030.627   -10731403.10349  -7956323.82946  22794030.021    22794036.517
       226.000         176.000
  22708474.289   -11964200.19749  -8976480.29046  22708473.181    22708480.024
       223.000         175.000
  23748845.108    -7530631.80649  -5836367.34745  23748844.867    23748854.231
       214.000         154.000
  20264409.861   -24388265.29649 -18603534.59048  20264409.531    20264414.298
       240.000         217.000
  22996785.228   -10997594.21149  -7758641.70246  22996784.008    22996792.099
       226.000         175.000
  21199348.745   -22015371.64949 -16824815.66847  21199348.287    21199355.139
       238.000         201.000
  22418510.137   -15330061.35749 -11927897.50946  22418510.018    22418517.475
       228.000         181.000
 03  4 18  0 47  0.0000000  0  8G25G18G31G21G14G23G15G 3
  23304038.483   -11893884.25249  -8914856.93345  23304039.829    23304045.107
       219.000         162.000
  22803955.121   -10679249.24449  -7915684.50046  22803954.291    22803961.463
       226.000         175.000
  22710291.943   -11954647.89449  -8969036.93646  22710291.872    22710299.212
       226.000         176.000
  23767106.474    -7434668.20349  -5761590.58145  23767104.896    23767111.956
       211.000         151.000
  20267559.075   -24371715.84849 -18590638.91048  20267558.761    20267563.526
       240.000         217.000
  23004640.284   -10956315.56249  -7726476.53346  23004639.589    23004647.042
       225.000         175.000
  21211004.744   -21954119.00149 -16777086.35447  21211004.397    21211011.192
       238.000         201.000
  22427844.773   -15281007.77349 -11889673.97046  22427844.746    22427851.663
       228.000         181.000
 03  4 18  0 47 30.0000000  0  8G25G18G31G21G14G23G15G 3
  23286031.976   -11988508.05849  -8988589.62045  23286031.926    23286039.633
       219.000         162.000
  22813890.538   -10627038.47249  -7875000.82846  22813890.073    22813896.539
       225.000         174.000
  22712207.574   -11944581.92949  -8961193.34746  22712207.726    22712214.363
       225.000         177.000
  23785412.189    -7338471.53149  -5686632.23445  23785411.812    23785419.998
       215.000         154.000
  20270795.872   -24354706.25349 -18577384.67948  20270795.560    20270800.301
       241.000         217.000
  23012498.062   -10915023.07949  -7694300.58846  23012497.929    23012504.746
       228.000         175.000
  21222740.982   -21892444.87249 -16729028.61747  21222740.732    21222747.568
       239.000         201.000
  22437249.933   -15231583.54649 -11851161.61346  22437249.985    22437257.032
       229.000         181.000
 03  4 18  0 48  0.0000000  0  8G25G18G31G21G14G23G15G 3
  23268040.588   -12083052.48649  -9062260.46045  23268039.941    23268047.855
       217.000         162.000
  22823836.782   -10574770.76449  -7834272.76546  22823837.246    22823842.100
       225.000         172.000
  22714220.506   -11934003.81749  -8952950.65846  22714219.873    22714227.538
       224.000         176.000
  23803761.935    -7242042.39549  -5611492.72145  23803763.128    23803768.434
       215.000         151.000
  20274119.902   -24337238.38149 -18563773.34348  20274119.629    20274124.453
       241.000         217.000
  23020358.559   -10873716.49249  -7662113.65746  23020358.218    23020365.623
       225.000         175.000
  21234557.252   -21830349.96949 -16680643.00747  21234556.722    21234563.984
       238.000         200.000
  22446725.083   -15181791.54449 -11812362.68246  22446725.585    22446733.038
       228.000         181.000
 03  4 18  0 48 30.0000000  0  8G25G18G31G21G14G23G15G 3
  23250065.009   -12177514.37049  -9135866.98846  23250064.415    23250072.263
       218.000         163.000
  22833794.038   -10522445.46049  -7793499.83446  22833794.673    22833798.523
       228.000         172.000
  22716330.647   -11922914.37649  -8944309.53446  22716330.652    22716337.883
       225.000         176.000
  23822156.265    -7145381.54249  -5536172.63745  23822154.136    23822162.687
       208.000         152.000
  20277530.873   -24319313.61349 -18549805.98548  20277530.668    20277535.300
       241.000         217.000
  23028221.573   -10832395.13949  -7629915.22346  23028220.515    23028228.795
       225.000         174.000
  21246453.526   -21767834.64549 -16631929.80247  21246453.147    21246460.183
       238.000         200.000
  22456269.764   -15131633.90449 -11773278.83846  22456269.808    22456277.013
       228.000         180.000
 03  4 18  0 49  0.0000000  0  8G25G18G31G21G14G23G15G 3
  23232105.694   -12271891.05849  -9209407.14546  23232104.928    23232113.811
       219.000         163.000
  22843762.431   -10470062.42749  -7752681.91246  22843761.933    22843767.895
       226.000         173.000
  22718537.931   -11911315.07649  -8935271.13046  22718538.143    22718543.923
       225.000         176.000
  23840594.092    -7048490.94049  -5460673.51745  23840594.850    23840600.665
       214.000         151.000
  20281028.413   -24300933.87749 -18535484.11148  20281028.226    20281032.883
       241.000         217.000
  23036087.466   -10791058.81049  -7597705.13646  23036086.619    23036095.447
       224.000         174.000
  21258429.655   -21704900.01449 -16582889.85447  21258429.106    21258436.196
       238.000         200.000
  22465883.551   -15081113.48349 -11733912.30346  22465883.522    22465890.973
       228.000         180.000
 03  4 18  0 49 30.0000000  0  8G25G18G31G21G14G23G15G 3
  23214162.903   -12366180.58949  -9282879.37646  23214161.570    23214170.895
       218.000         164.000
  22853741.449   -10417621.57249  -7711818.94846  22853740.585    22853747.067
       226.000         172.000
  22720842.040   -11899207.35749  -8925836.54346  22720841.988    22720847.998
       225.000         176.000
  23859074.979    -6951372.17849  -5384996.69545  23859075.496    23859083.666
       214.000         152.000
  20284612.185   -24282100.98749 -18520809.13048  20284611.945    20284616.828
       241.000         217.000
  23043956.447   -10749707.02349  -7565483.00246  23043956.741    23043964.356
       226.000         174.000
  21270485.357   -21641546.65049 -16533523.62647  21270484.690    21270491.945
       238.000         200.000
  22475565.833   -15030232.78049 -11694265.03746  22475565.650    22475573.127
       228.000         180.000
 03  4 18  0 50  0.0000000  0  8G25G18G31G21G14G23G15G 3
  23196237.299   -12460379.32549  -9356280.85646  23196236.320    23196244.662
       220.000         165.000
  22863731.476   -10365122.59149  -7670910.70346  22863731.258    22863737.935
       226.000         173.000
  22723242.548   -11886592.04749  -8916006.42046  22723241.587    22723249.134
       225.000         175.000
  23877599.286    -6854026.61049  -5309143.05545  23877598.712    23877606.081
       212.000         150.000
  20288281.985   -24262816.01949 -18505781.87748  20288281.795    20288286.616
       241.000         217.000
  23051828.731   -10708339.06349  -7533248.24146  23051829.021    23051834.689
       226.000         174.000
  21282620.692   -21577775.25049 -16483831.65347  21282620.169    21282627.293
       238.000         200.000
  22485316.221   -14978993.99049 -11654338.72446  22485316.279    22485323.644
       228.000         180.000
 03  4 18  0 50 30.0000000  0  8G25G18G31G21G14G23G15G 3
  23178329.544   -12554484.57549  -9429609.51546  23178329.147    23178337.152
       221.000         165.000
  22873732.985   -10312565.08449  -7629956.81846  22873733.474    22873738.810
       228.000         174.000
  22725739.528   -11873470.60949  -8905781.93846  22725739.878    22725746.587
       227.000         175.000
  23896166.245    -6756455.72149  -5233113.89045  23896166.808    23896175.541
       214.000         150.000
  20292037.460   -24243080.69149 -18490403.69948  20292037.175    20292042.031
       241.000         217.000
  23059703.997   -10666954.51949  -7501000.55946  23059703.100    23059710.062
       223.000         173.000
  21294835.457   -21513586.70449 -16433814.63647  21294835.002    21294841.855
       237.000         199.000
  22495134.335   -14927399.68249 -11614135.40146  22495134.512    22495141.546
       228.000         180.000
 03  4 18  0 51  0.0000000  0  8G25G18G31G21G14G23G15G 3
  23160440.098   -12648493.67349  -9502863.25046  23160440.231    23160448.294
       222.000         166.000
  22883745.592   -10259949.41049  -7588957.65646  22883746.062    22883750.906
       225.000         173.000
  22728332.568   -11859844.84749  -8895164.48546  22728333.142    22728338.932
       225.000         176.000
  23914776.099    -6658662.01449  -5156911.08945  23914774.356    23914782.804
       214.000         149.000
  20295878.220   -24222897.38749 -18474676.45248  20295877.906    20295882.834
       242.000         217.000
  23067582.182   -10625553.33949  -7468739.93546  23067581.915    23067589.650
       223.000         172.000
  21307129.207   -21448982.39649 -16383473.65447  21307128.592    21307135.820
       237.000         199.000
  22505019.501   -14875453.10349 -11573657.57946  22505019.060    22505027.466
       227.000         180.000
 03  4 18  0 51 30.0000000  0  8G25G18G31G21G14G23G15G 3
  23142569.489   -12742403.82549  -9576039.88546  23142569.782    23142576.400
       222.000         166.000
  22893769.235   -10207274.69849  -7547912.43746  22893769.473    22893774.815
       226.000         171.000
  22731021.156   -11845715.55649  -8884154.64446  22731021.201    22731028.191
       225.000         175.000
  23933427.993    -6560646.32449  -5080535.30545  23933428.102    23933436.458
       212.000         148.000
  20299804.038   -24202267.23749 -18458601.00648  20299803.658    20299808.491
       241.000         217.000
  23075463.812   -10584134.44949  -7436465.51146  23075463.609    23075471.196
       224.000         172.000
  21319502.061   -21383962.65049 -16332808.94147  21319501.506    21319508.794
       237.000         199.000
  22514971.291   -14823156.09949 -11532906.69646  22514971.779    22514978.977
       227.000         180.000
 03  4 18  0 52  0.0000000  0  8G25G18G31G21G14G23G15G 3
  23124718.333   -12836211.63749  -9649136.78346  23124718.610    23124725.777
       222.000         166.000
  22903804.137   -10154540.72449  -7506821.05346  22903803.557    22903809.888
       225.000         171.000
  22733805.456   -11831083.98849  -8872753.44246  22733805.224    22733811.254
       226.000         175.000
  23952121.793    -6462409.95649  -5003987.59245  23952122.471    23952129.850
       212.000         148.000
  20303814.576   -24181191.80349 -18442178.59148  20303814.372    20303819.023
       241.000         218.000
  23083349.154   -10542697.23949  -7404176.81146  23083349.350    23083355.976
       224.000         173.000
  21331953.891   -21318527.70249 -16281820.69247  21331953.476    21331960.642
       237.000         199.000
  22524989.294   -14770511.09749 -11491884.65546  22524989.464    22524996.578
       228.000         180.000
 03  4 18  0 52 30.0000000  0  8G25G18G31G21G14G23G15G 3
  23106887.085   -12929915.10549  -9722152.37246  23106887.195    23106895.604
       222.000         167.000
  22913850.262   -10101747.55349  -7465683.55846  22913849.092    22913856.757
       222.000         171.000
  22736684.992   -11815952.00049  -8860962.30546  22736685.540    22736691.615
       226.000         176.000
  23970857.191    -6363955.27149  -4927269.72545  23970857.731    23970864.149
       211.000         147.000
  20307909.409   -24159673.31349 -18425410.93548  20307909.177    20307913.752
       242.000         218.000
  23091237.955   -10501241.72649  -7371873.83346  23091238.388    23091245.257
       225.000         173.000
  21344484.500   -21252679.06549 -16230510.08547  21344484.201    21344491.264
       238.000         199.000
  22535072.944   -14717521.28149 -11450593.91746  22535073.074    22535080.111
       227.000         180.000
 03  4 18  0 53  0.0000000  0  8G25G18G31G21G14G23G15G 3
  23089076.337   -13023510.85749  -9795084.03946  23089076.885    23089083.809
       223.000         168.000
  22923907.778   -10048894.34949  -7424499.27946  22923907.159    22923913.765
       224.000         171.000
  22739659.614   -11800320.55549  -8848781.96846  22739660.081    22739666.886
       225.000         177.000
  23989633.917    -6265283.40849  -4850382.69445  23989632.803    23989643.156
       211.000         149.000
  20312088.309   -24137713.09749 -18408299.07948  20312087.894    20312092.801
       243.000         217.000
  23099130.401   -10459766.99249  -7339555.88846  23099130.005    23099137.765
       225.000         173.000
  21357093.816   -21186417.22149 -16178877.49447  21357093.262    21357100.376
       237.000         198.000
  22545221.782   -14664188.78249 -11409036.16346  22545222.157    22545228.963
       227.000         179.000
 03  4 18  0 53 30.0000000  0  8G25G18G31G21G14G23G15G 3
  23071286.594   -13116996.44349  -9867929.86246  23071285.731    23071293.970
       222.000         168.000
  22933976.933    -9995981.20449  -7383268.30146  22933976.498    22933983.059
       224.000         170.000
  22742728.967   -11784191.35349  -8836213.77646  22742728.906    22742736.043
       225.000         177.000
  24008451.449    -6166396.13049  -4773327.73845  24008451.735    24008459.053
       211.000         146.000
  20316350.879   -24115313.07749 -18390844.51448  20316350.583    20316355.284
       243.000         218.000
  23107026.488   -10418272.69349  -7307222.70346  23107025.729    23107034.305
       224.000         173.000
  21369781.435   -21119743.42949 -16126923.91347  21369780.749    21369787.888
       237.000         198.000
  22555435.255   -14610516.75349 -11367213.83146  22555435.367    22555442.748
       228.000         179.000
 03  4 18  0 54  0.0000000  0  8G25G18G31G21G14G23G15G 3
  23053518.373   -13210368.82849  -9940687.47846  23053518.201    23053525.448
       222.000         168.000
  22944057.492    -9943007.84349  -7341990.38746  22944056.990    22944062.338
       223.000         170.000
  22745892.727   -11767565.78249  -8823258.80446  22745892.556    22745898.545
       225.000         176.000
  24027309.835    -6067294.98349  -4696106.19645  24027309.909    24027319.703
       211.000         148.000
  20320696.754   -24092475.18149 -18373048.75348  20320696.584    20320701.258
       243.000         218.000
  23114926.429   -10376758.31949  -7274873.86946  23114926.939    23114933.473
       226.000         174.000
  21382547.310   -21052658.47849 -16074649.95147  21382546.871    21382553.863
       237.000         198.000
  22565712.922   -14556507.54449 -11325128.76946  22565713.032    22565720.030
       227.000         179.000
 03  4 18  0 54 30.0000000  0  8G25G18G31G21G14G23G15G 3
  23035772.141   -13303625.25349 -10013354.73446  23035771.867    23035779.179
       221.000         168.000
  22954149.316    -9889973.95949  -7300665.30746  22954148.484    22954155.700
       223.000         169.000
  22749150.566   -11750445.27349  -8809918.17046  22749150.311    22749156.971
       226.000         175.000
  24046208.531    -5967981.66549  -4618719.30045  24046208.856    24046213.782
       211.000         145.000
  20325125.736   -24069200.89849 -18354912.94648  20325125.448    20325130.239
       244.000         218.000
  23122830.472   -10335223.30349  -7242508.92546  23122830.458    23122837.436
       226.000         174.000
  21395391.209   -20985163.31049 -16022056.35347  21395390.579    21395397.967
       237.000         198.000
  22576054.227   -14502163.88049 -11282783.08546  22576054.193    22576061.402
       227.000         178.000
 03  4 18  0 55  0.0000000  0  8G25G18G31G21G14G23G15G 3
  23018048.627   -13396762.85649 -10085929.39946  23018048.407    23018056.042
       221.000         169.000
  22964252.909    -9836878.92549  -7259292.58946  22964253.618    22964258.919
       223.000         169.000
  22752502.503   -11732831.26649  -8796192.99146  22752502.740    22752508.692
       226.000         176.000
  24065147.548    -5868457.62049  -4541168.18145  24065146.716    24065156.828
       208.000         146.000
  20329637.406   -24045492.00749 -18336438.48148  20329637.175    20329641.792
       243.000         218.000
  23130738.344   -10293667.09949  -7210127.49846  23130738.203    23130744.774
       226.000         173.000
  21408313.029   -20917258.62149 -15969143.65747  21408312.444    21408319.389
       236.000         197.000
  22586458.725   -14447488.14749 -11240178.66646  22586459.120    22586465.944
       227.000         178.000
 03  4 18  0 55 30.0000000  0  8G25G18G31G21G14G23G15G 3
  23000348.160   -13489779.08549 -10158409.49146  23000347.701    23000355.304
       221.000         169.000
  22974368.500    -9783722.63049  -7217872.11346  22974368.106    22974374.799
       224.000         169.000
  22755948.011   -11714725.45449  -8782084.59146  22755947.325    22755954.618
       225.000         176.000
  24084126.069    -5768724.92249  -4463454.50745  24084126.066    24084131.833
       211.000         145.000
  20334231.352   -24021350.60549 -18317627.00048  20334231.105    20334235.713
       244.000         218.000
  23138650.360   -10252089.20849  -7177729.16946  23138649.786    23138657.591
       225.000         172.000
  21421312.548   -20848945.72949 -15915912.87147  21421312.074    21421319.288
       237.000         197.000
  22596925.863   -14392483.06749 -11197317.60446  22596925.564    22596932.925
       227.000         178.000
 03  4 18  0 56  0.0000000  0  8G25G18G31G21G14G23G15G 3
  22982671.364   -13582671.14249 -10230792.83846  22982671.278    22982678.387
       222.000         169.000
  22984495.437    -9730504.97349  -7176403.85146  22984496.444    22984501.395
       225.000         169.000
  22759486.691   -11696129.28449  -8767594.08746  22759486.375    22759493.161
       226.000         175.000
  24103143.924    -5668784.96149  -4385579.31145  24103143.011    24103153.380
       207.000         145.000
  20338907.306   -23996778.38649 -18298479.81348  20338907.118    20338911.761
       244.000         218.000
  23146566.607   -10210489.02649  -7145313.46046  23146566.585    23146573.114
       225.000         172.000
  21434389.621   -20780225.49349 -15862364.66647  21434389.261    21434396.214
       236.000         197.000
  22607455.246   -14337151.36049 -11154202.03246  22607454.815    22607462.488
       227.000         178.000
 03  4 18  0 56 30.0000000  0  8G25G18G31G21G14G23G15G 3
  22965018.680   -13675435.88149 -10303076.97246  22965018.898    22965025.847
       223.000         170.000
  22994634.306    -9677225.63249  -7134887.47946  22994633.776    22994640.808
       224.000         169.000
  22763118.453   -11677044.07749  -8752722.52946  22763117.702    22763125.354
       224.000         175.000
  24122201.116    -5568639.28449  -4307543.82545  24122201.567    24122208.120
       212.000         145.000
  20343664.927   -23971776.95649 -18278998.17548  20343664.764    20343669.398
       244.000         218.000
  23154487.499   -10168865.72949  -7112879.71446  23154486.503    23154494.141
       226.000         172.000
  21447544.041   -20711098.66749 -15808499.64047  21447543.674    21447550.527
       236.000         197.000
  22618046.242   -14281495.48049 -11110833.85046  22618045.853    22618054.094
       227.000         178.000
 03  4 18  0 57  0.0000000  0  8G25G18G31G21G14G23G15G 3
  22947390.724   -13768070.85949 -10375259.99546  22947390.622    22947397.894
       223.000         170.000
  23004784.845    -9623884.15949  -7093322.73146  23004784.989    23004790.022
       223.000         168.000
  22766842.899   -11657471.76649  -8737471.38746  22766843.282    22766849.512
       225.000         176.000
  24141297.154    -5468289.70649  -4229349.47145  24141296.848    24141306.309
       210.000         145.000
  20348503.755   -23946348.62149 -18259183.88648  20348503.354    20348508.143
       244.000         218.000
  23162412.607   -10127219.28549  -7080427.96146  23162411.906    23162420.555
       225.000         173.000
  21460775.613   -20641566.57549 -15754318.81647  21460775.075    21460782.453
       236.000         196.000
  22628698.361   -14225518.56949 -11067215.51746  22628698.108    22628706.301
       225.000         178.000
 03  4 18  0 57 30.0000000  0  8G25G18G31G21G14G23G15G 3
  22929788.171   -13860572.42349 -10447339.04946  22929787.918    22929795.220
       222.000         171.000
  23014947.322    -9570479.74049  -7051708.93446  23014948.553    23014952.569
       225.000         168.000
  22770659.973   -11637413.27349  -8721841.40646  22770659.311    22770667.345
       224.000         176.000
  24160431.668    -5367737.19249  -4150996.96045  24160431.281    24160439.709
       211.000         144.000
  20353423.658   -23920494.30549 -18239037.66048  20353423.398    20353428.127
       244.000         218.000
  23170342.329   -10085548.42249  -7047957.17646  23170341.836    23170350.368
       225.000         173.000
  21474084.196   -20571629.61349 -15699822.50247  21474083.851    21474090.513
       236.000         196.000
  22639411.115   -14169222.60449 -11023348.57146  22639410.562    22639418.816
       227.000         177.000
 03  4 18  0 58  0.0000000  0  8G25G18G31G21G14G23G15G 3
  22912211.222   -13952939.83449 -10519313.58446  22912211.716    22912218.614
       223.000         171.000
  23025121.767    -9517013.89949  -7010047.22546  23025122.130    23025126.662
       227.000         168.000
  22774568.827   -11616872.05749  -8705835.27846  22774568.844    22774575.824
       224.000         175.000
  24179603.893    -5266985.57549  -4072489.31045  24179603.219    24179612.483
       209.000         143.000
  20358423.895   -23894217.76749 -18218562.43448  20358423.607    20358428.379
       244.000         218.000
  23178276.512   -10043854.47049  -7015468.41046  23178276.263    23178283.946
       226.000         173.000
  21487469.240   -20501290.61549 -15645012.92347  21487468.835    21487475.983
       236.000         196.000
  22650183.777   -14112611.92849 -10979236.38946  22650183.814    22650191.127
       226.000         177.000
 03  4 18  0 58 30.0000000  0  8G25G18G31G21G14G23G15G 3
  22894660.732   -14045168.01549 -10591179.61746  22894660.726    22894668.366
       225.000         172.000
  23035308.251    -9463484.49049  -6968336.01246  23035307.159    23035312.890
       221.000         168.000
  22778569.538   -11595847.96149  -8689452.87246  22778569.724    22778576.394
       226.000         176.000
  24198814.561    -5166034.24849  -3993826.04745  24198813.620    24198822.814
       206.000         143.000
  20363504.425   -23867519.21449 -18197758.36248  20363504.159    20363508.886
       244.000         218.000
  23186215.439   -10002134.83149  -6982959.61846  23186214.528    23186221.606
       224.000         171.000
  21500931.042   -20430548.45249 -15589889.19047  21500930.805    21500937.501
       237.000         196.000
  22661016.224   -14055687.33949 -10934879.60046  22661015.885    22661023.594
       227.000         177.000
 03  4 18  0 59  0.0000000  0  8G25G18G31G21G14G23G15G 3
  22877137.273   -14137254.46349 -10662935.22946  22877136.988    22877144.360
       224.000         172.000
  23045506.515    -9409891.01049  -6926574.89546  23045505.768    23045512.617
       222.000         168.000
  22782661.943   -11574342.47649  -8672695.36146  22782662.401    22782668.777
       226.000         175.000
  24218062.741    -5064885.12749  -3915008.63645  24218062.394    24218071.043
       208.000         143.000
  20368664.965   -23840400.37849 -18176626.79648  20368664.637    20368669.522
       244.000         218.000
  23194159.006    -9960388.96349  -6950430.39346  23194158.728    23194165.291
       223.000         170.000
  21514469.402   -20359404.24249 -15534452.17147  21514468.863    21514476.059
       236.000         195.000
  22671907.823   -13998451.63949 -10890280.38646  22671907.885    22671915.273
       226.000         177.000
 03  4 18  0 59 30.0000000  0  8G25G18G31G21G14G23G15G 3
  22859641.162   -14229196.70149 -10734578.45746  22859640.800    22859647.908
       223.000         172.000
  23055717.092    -9356233.22049  -6884763.67046  23055717.149    23055723.570
       223.000         169.000
  22786845.588   -11552357.55549  -8655564.27846  22786844.866    22786851.611
       224.000         175.000
  24237348.231    -4963540.02349  -3836038.53745  24237349.032    24237354.727
       206.000         142.000
  20373905.130   -23812863.20049 -18155169.25548  20373904.979    20373909.736
       243.000         218.000
  23202108.268    -9918616.46149  -6917880.39846  23202108.445    23202114.583
       226.000         171.000
  21528083.928   -20287859.31849 -15478702.90647  21528083.278    21528090.679
       236.000         195.000
  22682858.094   -13940907.53549 -10845440.85946  22682857.534    22682865.225
       225.000         176.000
 03  4 18  1  0  0.0000000  0  9G25G18G31G11G21G14G23G15G 3
  22842171.922   -14320998.08949 -10806111.94046  22842171.863    22842178.343
       223.000         173.000
  23065939.186    -9302517.36149  -6842907.16046  23065939.952    23065943.785
       225.000         169.000
  22791118.927   -11529901.04049  -8638065.71546  22791118.167    22791126.302
       224.000         175.000
  24669502.695    -4895874.66549  -3781921.79645  24669502.589    24669510.032
       206.000         141.000
  24256669.306    -4862006.88049  -3756921.95945  24256669.847    24256678.997
       209.000         143.000
  20379223.344   -23784916.00549 -18133392.21748  20379223.117    20379227.876
       244.000         218.000
  23210061.517    -9876823.01049  -6885314.07746  23210060.589    23210067.113
       225.000         170.000
  21541773.344   -20215921.03949 -15422647.13147  21541772.731    21541780.123
       235.000         195.000
  22693865.310   -13883064.34149 -10800368.26946  22693865.224    22693872.374
       226.000         176.000
 03  4 18  1  0 30.0000000  0  9G25G18G31G11G21G14G23G15G 3
  22824731.381   -14412648.27849 -10877527.59846  22824730.868    22824738.536
       223.000         173.000
  23076173.661    -9248735.65749  -6800999.35046  23076173.727    23076178.860
       223.000         168.000
  22795482.927   -11506967.29449  -8620195.26346  22795482.216    22795490.086
       224.000         174.000
  24650550.599    -4995468.12549  -3859527.02045  24650550.759    24650557.219
       208.000         139.000
  24276027.588    -4760279.94849  -3677654.27845  24276027.056    24276036.275
       202.000         142.000
  20384620.605   -23756553.15049 -18111291.28948  20384620.191    20384625.030
       244.000         218.000
  23218020.042    -9835000.59749  -6852725.20846  23218019.300    23218026.099
       224.000         170.000
  21555538.829   -20143583.02249 -15366279.87647  21555538.541    21555545.600
       235.000         195.000
  22704930.396   -13824917.25649 -10755058.88746  22704930.384    22704938.550
       227.000         176.000
 03  4 18  1  1  0.0000000  0  9G25G18G31G11G21G14G23G15G 3
  22807320.382   -14504143.38549 -10948822.43346  22807319.821    22807327.189
       222.000         173.000
  23086420.488    -9194886.63149  -6759039.10346  23086419.524    23086426.513
       222.000         168.000
  22799937.835   -11483557.10949  -8601953.58246  22799937.881    22799944.513
       225.000         174.000
  24631610.749    -5094997.48049  -3937082.30045  24631610.591    24631617.485
       207.000         136.000
  24295422.326    -4658359.83449  -3598236.15145  24295422.339    24295431.101
       210.000         142.000
  20390096.742   -23727775.76049 -18088867.34748  20390096.500    20390101.261
       244.000         218.000
  23225984.343    -9793147.75649  -6820112.62946  23225984.755    23225992.067
       225.000         171.000
  21569380.385   -20070845.55549 -15309601.35547  21569380.199    21569386.868
       235.000         194.000
  22716052.933   -13766468.19549 -10709514.18546  22716053.074    22716060.349
       225.000         176.000
 03  4 18  1  1 30.0000000  0  9G25G18G31G11G21G14G23G15G 3
  22789939.172   -14595481.92949 -11019995.24846  22789938.214    22789946.546
       224.000         174.000
  23096680.179    -9140971.39149  -6717027.27246  23096680.071    23096684.778
       223.000         168.000
  22804482.783   -11459673.62949  -8583343.09146  22804481.956    22804489.222
       224.000         174.000
  24612683.258    -5194461.86749  -4014586.99045  24612683.704    24612689.730
       208.000         133.000
  24314853.235    -4556250.11249  -3518670.24245  24314853.837    24314860.659
       208.000         140.000
  20395651.178   -23698587.16749 -18066122.98748  20395650.965    20395655.549
       244.000         218.000
  23233954.468    -9751265.23849  -6787476.90246  23233953.389    23233961.655
       224.000         171.000
  21583297.353   -19997711.32649 -15252613.66047  21583296.924    21583303.700
       235.000         194.000
  22727232.058   -13707721.22349 -10663737.34846  22727232.394    22727239.962
       225.000         176.000
 03  4 18  1  2  0.0000000  0  9G25G18G31G11G21G14G23G15G 3
  22772588.208   -14686661.57849 -11091044.27446  22772588.115    22772596.011
       224.000         174.000
  23106952.756    -9086989.94749  -6674963.83746  23106952.879    23106957.140
       224.000         167.000
  22809117.244   -11435319.10449  -8564365.54646  22809117.407    22809124.372
       225.000         175.000
  24593768.428    -5293859.75849  -4092039.87144  24593767.669    24593773.191
       209.000         131.000
  24334319.954    -4453952.62349  -3438958.06145  24334319.061    24334328.877
       207.000         142.000
  20401283.387   -23668989.43049 -18043059.82048  20401283.166    20401287.877
       245.000         218.000
  23241929.968    -9709352.78949  -6754817.90446  23241929.187    23241938.051
       220.000         170.000
  21597289.564   -19924181.71549 -15195317.87847  21597288.988    21597295.738
       234.000         194.000
  22738467.295   -13648679.57249 -10617730.90646  22738467.836    22738474.910
       226.000         176.000
 03  4 18  1  2 30.0000000  0  9G25G18G31G11G21G14G23G15G 3
  22755267.903   -14777680.06149 -11161967.69346  22755267.246    22755274.629
       225.000         174.000
  23117237.703    -9032942.49949  -6632848.94146  23117237.080    23117242.614
       222.000         166.000
  22813841.056   -11410495.49149  -8545022.48446  22813840.967    22813847.134
       224.000         175.000
  24574866.660    -5393189.30949  -4169439.51845  24574866.594    24574871.982
       212.000         133.000
  24353821.936    -4351469.45149  -3359101.13845  24353823.289    24353829.018
       209.000         140.000
  20406993.040   -23638985.15349 -18019679.86448  20406992.653    20406997.656
       244.000         218.000
  23249911.049    -9667410.02049  -6722135.26446  23249910.862    23249917.782
       221.000         169.000
  21611356.761   -19850257.91449 -15137714.94747  21611356.479    21611363.446
       234.000         193.000
  22749758.099   -13589346.09349 -10571497.05246  22749757.720    22749765.973
       226.000         176.000
 03  4 18  1  3  0.0000000  0  9G25G18G31G11G21G14G23G15G 3
  22737978.919   -14868534.00749 -11232762.91146  22737978.665    22737985.318
       225.000         174.000
  23127535.159    -8978828.10049  -6590681.91846  23127535.310    23127540.466
       223.000         166.000
  22818653.774   -11385204.45749  -8525315.20046  22818653.355    22818660.466
       223.000         174.000
  24555978.325    -5492448.17949  -4246784.04445  24555978.920    24555983.924
       211.000         138.000
  24373358.890    -4248801.93849  -3279100.64045  24373358.665    24373368.535
       206.000         141.000
  20412779.735   -23608575.78049 -17995984.25348  20412779.487    20412784.256
       244.000         218.000
  23257898.421    -9625436.07849  -6689428.31846  23257898.772    23257905.391
       224.000         169.000
  21625498.847   -19775940.93449 -15079805.65047  21625498.709    21625505.781
       234.000         193.000
  22761103.838   -13529723.49349 -10525037.91646  22761102.976    22761111.095
       225.000         175.000
 03  4 18  1  3 30.0000000  0  9G25G18G31G11G21G14G23G15G 3
  22720721.589   -14959221.23549 -11303428.21046  22720721.442    22720728.200
       225.000         175.000
  23137845.593    -8924647.13749  -6548463.01446  23137845.623    23137850.905
       223.000         168.000
  22823554.915   -11359448.38449  -8505245.54346  22823554.722    22823562.599
       225.000         174.000
  24537103.851    -5591634.71349  -4324072.20745  24537102.937    24537110.048
       211.000         143.000
  24392930.759    -4145952.65749  -3198958.42445  24392930.825    24392938.428
       205.000         137.000
  20418643.048   -23577763.98749 -17971975.06648  20418642.768    20418647.439
       244.000         218.000
  23265892.228    -9583431.08249  -6656697.16046  23265892.558    23265898.017
       225.000         169.000
  21639715.342   -19701232.71049 -15021591.48847  21639714.987    21639722.174
       234.000         193.000
  22772504.057   -13469815.02049 -10478356.03546  22772504.533    22772512.461
       225.000         174.000
 03  4 18  1  4  0.0000000  0  9G25G18G31G11G21G14G23G15G 3
  22703496.451   -15049739.66749 -11373961.99146  22703496.866    22703503.713
       226.000         175.000
  23148168.568    -8870399.96449  -6506192.52146  23148167.987    23148174.575
       222.000         168.000
  22828544.355   -11333229.71949  -8484815.42946  22828544.527    22828552.071
       225.000         175.000
  24518243.210    -5690747.78149  -4401303.12045  24518242.754    24518249.205
       211.000         146.000
  24412536.645    -4042923.90149  -3118676.43945  24412536.383    24412546.131
       207.000         142.000
  20424582.411   -23546552.34049 -17947654.30448  20424582.226    20424586.984
       244.000         218.000
  23273891.612    -9541394.96549  -6623941.76546  23273891.260    23273898.160
       223.000         169.000
  21654005.991   -19626135.04949 -14963073.87147  21654005.554    21654012.998
       234.000         193.000
  22783957.990   -13409624.13049 -10431454.07846  22783957.984    22783965.909
       226.000         175.000
 03  4 18  1  4 30.0000000  0  9G25G18G31G11G21G14G23G15G 3
  22686304.224   -15140085.18949 -11444361.03446  22686304.668    22686311.041
       226.000         176.000
  23158504.350    -8816084.96349  -6463869.18346  23158505.160    23158509.570
       222.000         167.000
  22833621.512   -11306549.29549  -8464025.50046  22833621.303    22833627.981
       224.000         174.000
  24499397.107    -5789784.03749  -4478474.16745  24499396.661    24499403.581
       207.000         147.000
  24432176.500    -3939716.35349  -3038255.09945  24432175.547    24432182.636
       205.000         138.000
  20430597.704   -23514941.73949 -17923022.67048  20430597.472    20430602.335
       244.000         218.000
  23281896.957    -9499325.99149  -6591160.77746  23281895.539    23281903.116
       220.000         168.000
  21668370.769   -19550648.15749 -14904252.96147  21668370.499    21668377.457
       234.000         193.000
  22795465.400   -13349152.49449 -10384333.35746  22795465.278    22795473.528
       225.000         175.000
 03  4 18  1  5  0.0000000  0  9G25G18G31G11G21G14G23G15G 3
  22669145.445   -15230254.90749 -11514623.08646  22669144.908    22669152.650
       226.000         176.000
  23168853.181    -8761701.68649  -6421492.60446  23168853.816    23168857.788
       225.000         166.000
  22838786.118   -11279408.59949  -8442876.92646  22838785.888    22838793.492
       224.000         173.000
  24480566.097    -5888740.90249  -4555583.32645  24480565.257    24480573.113
       201.000         144.000
  24451850.083    -3836331.41449  -2957695.52245  24451848.528    24451860.480
       208.000         140.000
  20436688.601   -23482933.85349 -17898081.46448  20436688.235    20436693.099
       245.000         218.000
  23289908.603    -9457223.16249  -6558353.39546  23289907.433    23289915.468
       224.000         167.000
  21682809.348   -19474772.76549 -14845129.30347  21682808.804    21682816.064
       233.000         192.000
  22807025.799   -13288402.54549 -10336995.76546  22807025.185    22807033.393
       224.000         175.000
 03  4 18  1  5 30.0000000  0  9G25G18G31G11G21G14G23G15G 3
  22652020.608   -15320246.35949 -11584746.21946  22652020.582    22652027.326
       227.000         176.000
  23179215.190    -8707249.93049  -6379062.68946  23179214.314    23179221.001
       221.000         167.000
  22844037.898   -11251810.06149  -8421371.58646  22844037.202    22844045.427
       224.000         174.000
  24461750.415    -5987617.00949  -4632629.53645  24461750.223    24461758.025
       202.000         142.000
  24471557.072    -3732770.81049  -2876999.10845  24471558.053    24471562.141
       206.000         136.000
  20442854.655   -23450531.21049 -17872832.65248  20442854.426    20442859.040
       245.000         218.000
  23297926.982    -9415086.41249  -6525519.58346  23297925.202    23297933.672
       221.000         168.000
  21697321.465   -19398511.00749 -14785704.58547  21697321.097    21697328.309
       234.000         192.000
  22818638.482   -13227377.65049 -10289443.94546  22818638.605    22818645.932
       224.000         174.000
 03  4 18  1  6  0.0000000  0  9G25G18G31G11G21G14G23G15G 3
  22634930.154   -15410057.19349 -11654728.62946  22634929.984    22634936.992
       227.000         177.000
  23189589.985    -8652729.69949  -6336579.43146  23189590.011    23189595.789
       221.000         167.000
  22849376.267   -11223755.96749  -8399511.26446  22849375.846    22849383.428
       225.000         173.000
  24442950.686    -6086410.44449  -4709611.34245  24442951.077    24442957.149
       206.000         145.000
  24491296.997    -3629037.41449  -2796168.02245  24491297.318    24491307.893
       207.000         141.000
  20449095.329   -23417736.20049 -17847278.09948  20449095.056    20449099.668
       244.000         217.000
  23305951.756    -9372915.38549  -6492659.08946  23305952.265    23305959.285
       222.000         168.000
  21711906.919   -19321864.24949 -14725979.86347  21711906.930    21711913.754
       234.000         192.000
  22830302.894   -13166080.92449 -10241680.29446  22830303.170    22830310.283
       225.000         173.000
 03  4 18  1  6 30.0000000  0  9G25G18G31G11G21G14G23G15G 3
  22617874.737   -15499684.03349 -11724567.63846  22617874.521    22617881.976
       228.000         177.000
  23199977.850    -8598140.65249  -6294042.54346  23199978.569    23199985.678
       224.000         168.000
  22854801.207   -11195248.13849  -8377297.38646  22854801.610    22854807.786
       224.000         173.000
  24424167.189    -6185118.76249  -4786526.86245  24424166.861    24424174.028
       212.000         148.000
  24511069.379    -3525132.97549  -2715203.65045  24511070.369    24511077.651
       212.000         139.000
  20455410.306   -23384550.69049 -17821419.26148  20455410.004    20455414.722
       244.000         217.000
  23313983.491    -9330709.21149  -6459771.18346  23313983.375    23313991.591
       223.000         168.000
  21726565.435   -19244833.65549 -14665956.06047  21726564.832    21726572.151
       233.000         192.000
  22842018.505   -13104514.96649 -10193706.84046  22842018.969    22842025.507
       224.000         173.000
 03  4 18  1  7  0.0000000  0  9G25G18G31G11G21G14G23G15G 3
  22600854.564   -15589124.98949 -11794261.81246  22600853.924    22600861.540
       227.000         178.000
  23210378.983    -8543482.91249  -6251452.14346  23210379.479    23210385.453
       223.000         167.000
  22860312.026   -11166289.10249  -8354731.93246  22860311.736    22860318.716
       225.000         173.000
  24405400.256    -6283740.34349  -4863374.80345  24405400.093    24405405.924
       216.000         151.000
  24530874.123    -3421059.64349  -2634107.65345  24530873.879    24530882.614
       199.000         137.000
  20461799.113   -23350977.19849 -17795258.10148  20461798.732    20461803.645
       244.000         217.000
  23322021.806    -9288467.89849  -6426855.90446  23322021.650    23322028.755
       222.000         168.000
  21741296.648   -19167421.02749 -14605634.57047  21741296.034    21741303.312
       233.000         191.000
  22853784.699   -13042683.36349 -10145526.41746  22853785.434    22853792.576
       225.000         173.000
 03  4 18  1  7 30.0000000  0  9G25G18G31G11G21G14G23G15G 3
  22583870.600   -15678376.37249 -11863808.28246  22583871.011    22583877.997
       227.000         178.000
  23220793.127    -8488755.33049  -6208807.28846  23220793.669    23220799.797
       222.000         165.000
  22865908.566   -11136879.81349  -8331815.62746  22865908.771    22865915.167
       225.000         174.000
  24386650.218    -6382272.59149  -4940153.14745  24386649.694    24386656.044
       216.000         151.000
  24550710.547    -3316818.12349  -2552880.65345  24550712.346    24550718.124
       212.000         140.000
  20468261.561   -23317016.70449 -17768795.38348  20468261.328    20468266.026
       244.000         217.000
  23330066.932    -9246189.80149  -6393911.95646  23330065.891    23330073.525
       219.000         166.000
  21756100.440   -19089626.76549 -14545015.72247  21756100.385    21756106.898
       233.000         191.000
  22865601.127   -12980587.92949 -10097140.40846  22865601.004    22865607.869
       225.000         173.000
 03  4 18  1  8  0.0000000  0  9G25G18G31G11G21G14G23G15G 3
  22566923.155   -15767435.60049 -11933205.00146  22566922.605    22566930.362
       228.000         178.000
  23231220.926    -8433957.48849  -6166107.68246  23231220.421    23231228.243
       221.000         165.000
  22871590.326   -11107022.51149  -8308550.22446  22871590.437    22871596.986
       225.000         173.000
  24367917.589    -6480713.20249  -5016860.09945  24367916.592    24367922.559
       214.000         146.000
  24570578.747    -3212410.18249  -2471523.96045  24570578.722    24570587.104
       211.000         138.000
  20474797.231   -23282671.41849 -17742032.82248  20474797.043    20474801.912
       245.000         217.000
  23338119.076    -9203874.35349  -6360938.90046  23338118.976    23338125.930
       223.000         166.000
  21770976.583   -19011452.31949 -14484100.61747  21770976.387    21770982.840
       233.000         191.000
  22877467.170   -12918231.64849 -10048551.13946  22877466.999    22877474.656
       224.000         173.000
 03  4 18  1  8 30.0000000  0  8G25G18G31G11G14G23G15G 3
  22550012.793   -15856299.83949 -12002449.80046  22550012.661    22550019.397
       227.000         179.000
  23241661.790    -8379088.89349  -6123352.99146  23241661.173    23241667.602
       220.000         164.000
  22877356.790   -11076719.11349  -8284937.21046  22877355.776    22877363.030
       225.000         173.000
  24349202.680    -6579060.19249  -5093494.10845  24349201.988    24349207.212
       211.000         140.000
  20481405.791   -23247943.37749 -17714972.01648  20481405.338    20481410.375
       244.000         217.000
  23346178.897    -9161520.94349  -6327936.27146  23346180.036    23346186.779
       226.000         167.000
  21785924.765   -18932898.95749 -14422890.24147  21785924.518    21785931.445
       234.000         190.000
  22889382.297   -12855617.29849  -9999760.76446  22889382.370    22889390.034
       224.000         172.000
 03  4 18  1  9  0.0000000  0  8G25G18G31G11G14G23G15G 3
  22533140.240   -15944965.48349 -12071539.82946  22533140.461    22533146.861
       227.000         180.000
  23252116.657    -8324148.54049  -6080542.35046  23252117.394    23252121.019
       222.000         164.000
  22883207.958   -11045970.99149  -8260977.65046  22883207.425    22883214.248
       224.000         173.000
  24330506.181    -6677310.38149  -5170052.69045  24330506.391    24330511.809
       211.000         138.000
  20488086.812   -23212834.29749 -17687614.29048  20488086.513    20488091.392
       245.000         217.000
  23354246.218    -9119128.27449  -6294903.03846  23354245.772    23354254.170
       223.000         169.000
  21800944.955   -18853967.31049 -14361385.09547  21800944.690    21800951.839
       234.000         190.000
  22901346.190   -12792746.99149  -9950770.94846  22901346.278    22901353.795
       224.000         172.000
 03  4 18  1  9 30.0000000  0  8G25G18G31G11G14G23G15G 3
  22516305.819   -16033430.83449 -12140473.78646  22516305.826    22516312.431
       228.000         180.000
  23262585.078    -8269137.09549  -6037676.34946  23262584.378    23262591.353
       218.000         164.000
  22889143.122   -11014781.35049  -8236674.04946  22889142.237    22889149.915
       223.000         173.000
  24311828.243    -6775462.88249  -5246535.10445  24311827.702    24311834.183
       210.000         141.000
  20494839.817   -23177346.98749 -17659961.84548  20494839.518    20494844.371
       244.000         217.000
  23362320.707    -9076696.74749  -6261839.56646  23362320.682    23362328.447
       224.000         169.000
  21816036.723   -18774659.81949 -14299587.08347  21816036.212    21816043.529
       233.000         190.000
  22913357.958   -12729624.81149  -9901584.85746  22913357.972    22913365.957
       224.000         172.000
 03  4 18  1 10  0.0000000  0  8G25G18G31G11G14G23G15G 3
  22499510.099   -16121692.63049 -12209249.14246  22499509.953    22499516.748
       228.000         181.000
  23273067.061    -8214053.77149  -5994754.32546  23273068.060    23273073.519
       223.000         165.000
  22895161.912   -10983151.69049  -8212027.57346  22895160.930    22895168.588
       224.000         172.000
  24293169.441    -6873515.13249  -5322939.39745  24293170.118    24293175.716
       210.000         145.000
  20501664.472   -23141483.17149 -17632016.02048  20501664.143    20501669.129
       244.000         217.000
  23370402.844    -9034225.18549  -6228744.86946  23370402.307    23370411.393
       223.000         168.000
  21831199.832   -18694977.24549 -14237496.79447  21831198.876    21831206.678
       233.000         190.000
  22925417.201   -12666253.00149  -9852204.26646  22925416.884    22925424.637
       224.000         172.000
 03  4 18  1 10 30.0000000  0  8G25G18G31G11G14G23G15G 3
  22482753.586   -16209748.79949 -12277864.26346  22482753.234    22482760.191
       228.000         181.000
  23283563.065    -8158899.09649  -5951776.69146  23283565.413    23283568.741
       225.000         166.000
  22901264.094   -10951084.91349  -8187040.49246  22901263.625    22901270.289
       225.000         172.000
  24274530.006    -6971465.48349  -5399264.26245  24274528.514    24274535.532
       207.000         146.000
  20508560.237   -23105245.58649 -17603778.94448  20508560.089    20508564.843
       245.000         217.000
  23378492.530    -8991713.71249  -6195619.07046  23378493.166    23378498.770
       225.000         168.000
  21846433.855   -18614921.94649 -14175116.08047  21846433.699    21846440.898
       232.000         189.000
  22937523.332   -12602635.19349  -9802631.98846  22937523.463    22937531.258
       223.000         172.000
 03  4 18  1 11  0.0000000  0  8G25G18G31G11G14G23G15G 3
  22466036.665   -16297596.33949 -12346316.82146  22466036.417    22466043.453
       228.000         181.000
  23294072.578    -8103672.22149  -5908742.79646  23294072.359    23294076.741
       222.000         164.000
  22907449.018   -10918582.79649  -8161714.18246  22907449.003    22907455.845
       225.000         172.000
  24255910.384    -7069311.51249  -5475507.82745  24255910.503    24255916.122
       206.000         145.000
  20515526.853   -23068635.89849 -17575251.91748  20515526.666    20515531.460
       245.000         217.000
  23386590.205    -8949161.36949  -6162461.40046  23386590.410    23386597.431
       224.000         168.000
  21861738.652   -18534494.97249 -14112445.74347  21861738.014    21861745.852
       232.000         189.000
  22949675.787   -12538773.71549  -9752869.83946  22949675.910    22949683.541
       224.000         172.000
 03  4 18  1 11 30.0000000  0  8G25G18G31G11G14G23G15G 3
  22449360.235   -16385231.23049 -12414603.67746  22449360.521    22449366.646
       228.000         181.000
  23304595.886    -8048371.63949  -5865651.46146  23304595.374    23304601.002
       222.000         163.000
  22913716.624   -10885646.56749  -8136049.60746  22913716.254    22913722.723
       223.000         172.000
  24237311.237    -7167050.24049  -5551667.78945  24237311.468    24237317.044
       209.000         145.000
  20522563.970   -23031655.63349 -17546436.13448  20522563.755    20522568.434
       245.000         217.000
  23394695.669    -8906566.54049  -6129270.67546  23394693.531    23394702.149
       218.000         167.000
  21877113.938   -18453697.04049 -14049486.34847  21877113.440    21877120.794
       232.000         188.000
  22961874.208   -12474670.79949  -9702919.55546  22961874.225    22961882.719
       223.000         172.000
 03  4 18  1 12  0.0000000  0  8G25G18G31G11G14G23G15G 3
  22432724.632   -16472651.39449 -12482723.20046  22432723.629    22432731.258
       229.000         181.000
  23315133.309    -7992997.39649  -5822502.72446  23315133.649    23315139.089
       221.000         163.000
  22920066.206   -10852278.62449  -8110048.61546  22920065.799    22920072.910
       223.000         172.000
  24218733.018    -7264679.65849  -5627742.60445  24218733.180    24218739.671
       213.000         149.000
  20529671.209   -22994306.97049 -17517333.27948  20529670.935    20529675.704
       245.000         217.000
  23402808.948    -8863928.73649  -6096046.44846  23402808.193    23402816.313
       220.000         166.000
  21892559.545   -18372529.89949 -13986239.26547  21892558.867    21892566.577
       233.000         188.000
  22974117.941   -12410329.61349  -9652783.60546  22974118.199    22974125.834
       223.000         171.000
 03  4 18  1 12 30.0000000  0  8G25G18G31G11G14G23G15G 3
  22416130.488   -16559853.79849 -12550673.06746  22416130.626    22416137.344
       229.000         181.000
  23325684.762    -7937549.25949  -5779296.42845  23325684.485    23325689.576
       221.000         162.000
  22926497.648   -10818481.21549  -8083712.99146  22926498.026    22926504.165
       224.000         172.000
  24200175.982    -7362197.67849  -5703730.62345  24200175.847    24200182.295
       215.000         153.000
  20536848.102   -22956592.24249 -17487945.18448  20536847.876    20536852.463
       245.000         217.000
  23410931.040    -8821247.40649  -6062788.28546  23410930.440    23410938.227
       222.000         166.000
  21908075.156   -18290994.74449 -13922705.41247  21908074.566    21908081.885
       232.000         188.000
  22986406.450   -12345753.24149  -9602464.38546  22986405.942    22986413.932
       223.000         170.000
 03  4 18  1 13  0.0000000  0  8G25G18G31G11G14G23G15G 3
  22399578.109   -16646836.79749 -12618451.95246  22399577.885    22399584.450
       229.000         182.000
  23336250.250    -7882027.04849  -5736032.41145  23336249.920    23336255.605
       219.000         161.000
  22933010.346   -10784257.11649  -8057044.88246  22933010.777    22933017.644
       225.000         173.000
  24181640.433    -7459602.68849  -5779630.57045  24181640.369    24181647.121
       213.000         155.000
  20544094.136   -22918514.09649 -17458273.90548  20544093.830    20544098.685
       245.000         217.000
  23419061.395    -8778522.57449  -6029496.22546  23419061.411    23419068.068
       224.000         166.000
  21923660.443   -18209093.60749 -13858886.37146  21923659.726    21923667.753
       231.000         187.000
  22998739.161   -12280944.97849  -9551964.48446  22998739.074    22998747.601
       222.000         171.000
 03  4 18  1 13 30.0000000  0  8G25G18G31G11G14G23G15G 3
  22383068.129   -16733597.16449 -12686057.36646  22383067.565    22383074.661
       229.000         182.000
  23346829.890    -7826430.40449  -5692710.37045  23346829.057    23346835.500
       220.000         161.000
  22939603.953   -10749608.21249  -8030045.74346  22939603.753    22939611.582
       224.000         173.000
  24163126.713    -7556892.35749  -5855440.62445  24163126.566    24163132.890
       212.000         154.000
  20551408.994   -22880074.16349 -17428320.71248  20551408.676    20551413.544
       245.000         217.000
  23427200.257    -8735753.14749  -5996169.41846  23427200.716    23427207.608
       223.000         167.000
  21939315.136   -18126827.96549 -13794783.30846  21939314.798    21939322.113
       232.000         187.000
  23011115.458   -12215907.50849  -9501285.96846  23011115.256    23011123.154
       223.000         171.000
 03  4 18  1 14  0.0000000  0  8G25G18G31G11G14G23G15G 3
  22366601.108   -16820131.36349 -12753486.54646  22366600.445    22366608.118
       230.000         183.000
  23357423.915    -7770758.50849  -5649329.70045  23357423.512    23357430.161
       221.000         162.000
  22946277.973   -10714536.25349  -8002716.96946  22946277.762    22946284.444
       224.000         172.000
  24144635.549    -7654063.79549  -5931158.55145  24144635.577    24144641.971
       214.000         153.000
  20558792.408   -22841274.25149 -17398087.01948  20558792.114    20558796.879
       245.000         217.000
  23435347.816    -8692937.91249  -5962806.92246  23435347.576    23435354.249
       222.000         168.000
  21955039.079   -18044198.55349 -13730396.79446  21955038.373    21955045.974
       232.000         187.000
  23023534.896   -12150643.04449  -9450430.57946  23023534.759    23023543.189
       222.000         170.000
 03  4 18  1 14 30.0000000  0  8G25G18G31G11G14G23G15G 3
  22350177.647   -16906437.16249 -12820737.75546  22350177.574    22350183.937
       231.000         183.000
  23368032.338    -7715011.22249  -5605890.30746  23368032.778    23368039.428
       222.000         163.000
  22953031.923   -10679043.86249  -7975060.57046  22953031.247    22953038.892
       224.000         172.000
  24126167.325    -7751115.45049  -6006783.17745  24126167.492    24126173.987
       215.000         151.000
  20566243.762   -22802116.93849 -17367574.82948  20566243.636    20566248.310
       245.000         217.000
  23443504.143    -8650076.63349  -5929408.54646  23443503.340    23443511.483
       222.000         168.000
  21970831.796   -17961207.58049 -13665728.54046  21970831.350    21970838.433
       232.000         187.000
  23035996.837   -12085155.09149  -9399401.04146  23035996.531    23036004.708
       220.000         169.000
 03  4 18  1 15  0.0000000  0  8G25G18G31G11G14G23G15G 3
  22333798.306   -16992510.97749 -12887808.18046  22333798.413    22333804.574
       230.000         184.000
  23378655.364    -7659187.58749  -5562391.39046  23378654.664    23378661.263
       221.000         164.000
  22959865.631   -10643132.68249  -7947077.85246  22959864.477    22959873.265
       224.000         172.000
  24107722.418    -7848044.20849  -6082312.07645  24107721.652    24107727.037
       212.000         146.000
  20573762.911   -22762603.65949 -17336785.26548  20573762.700    20573767.373
       245.000         217.000
  23451669.224    -8607167.90349  -5895973.21146  23451669.417    23451676.382
       221.000         167.000
  21986693.123   -17877855.71349 -13600779.07246  21986692.919    21986700.195
       232.000         187.000
  23048500.866   -12019445.77749  -9348199.02246  23048501.265    23048509.374
       222.000         169.000
 03  4 18  1 15 30.0000000  0  8G25G18G31G11G14G23G15G 3
  22317463.283   -17078351.70649 -12954697.00046  22317463.651    22317469.367
       231.000         184.000
  23389292.562    -7603288.86249  -5518833.97646  23389292.590    23389298.825
       220.000         163.000
  22966778.247   -10606806.34449  -7918771.63746  22966778.380    22966785.510
       225.000         171.000
  24089300.797    -7944849.49849  -6157744.75245  24089299.855    24089307.815
       202.000         138.000
  20581349.035   -22722738.03449 -17305721.14848  20581348.829    20581353.655
       245.000         217.000
  23459843.319    -8564212.45849  -5862501.44746  23459843.438    23459850.062
       221.000         167.000
  22002622.579   -17794146.04249 -13535550.79546  22002622.272    22002629.523
       231.000         186.000
  23061046.228   -11953519.68249  -9296828.08246  23061046.050    23061053.785
       222.000         169.000
 03  4 18  1 16  0.0000000  0  8G25G18G31G11G14G23G15G 3
  22301173.466   -17163954.96849 -13021400.76846  22301173.229    22301180.133
       231.000         185.000
  23399944.621    -7547312.47449  -5475216.03046  23399944.456    23399951.371
       219.000         163.000
  22973769.923   -10570065.32949  -7890142.29846  22973769.091    22973776.872
       226.000         172.000
  24070903.203    -8041527.18849  -6233077.89645  24070903.270    24070909.199
       206.000         137.000
  20589002.213   -22682520.37249 -17274382.71648  20589001.931    20589006.772
       245.000         217.000
  23468026.876    -8521207.85249  -5828991.37446  23468027.293    23468033.707
       221.000         166.000
  22018620.152   -17710078.39549 -13470043.57546  22018619.707    22018627.110
       231.000         186.000
  23073632.657   -11887377.96849  -9245289.11546  23073632.597    23073639.721
       222.000         168.000
 03  4 18  1 16 30.0000000  0  8G25G18G31G11G14G23G15G 3
  22284929.262   -17249318.49749 -13087917.73346  22284929.185    22284935.777
       231.000         185.000
  23410611.323    -7491258.75849  -5431537.87346  23410610.951    23410617.050
       220.000         163.000
  22980839.987   -10532912.56549  -7861192.13146  22980839.816    22980847.429
       225.000         172.000
  24052530.732    -8138075.70749  -6308310.46945  24052530.640    24052536.849
       216.000         147.000
  20596721.868   -22641953.41349 -17242772.10448  20596721.646    20596726.479
       245.000         217.000
  23476219.724    -8478153.96749  -5795442.90946  23476220.021    23476227.751
       222.000         166.000
  22034685.547   -17625654.65149 -13404258.88046  22034685.105    22034692.025
       231.000         186.000
  23086259.383   -11821024.13649  -9193584.87546  23086259.855    23086267.089
       221.000         168.000
 03  4 18  1 17  0.0000000  0  8G25G18G31G11G14G23G15G 3
  22268731.262   -17334439.47349 -13154245.69346  22268731.038    22268737.836
       230.000         185.000
  23421292.754    -7435127.24249  -5387799.07246  23421293.096    23421299.324
       221.000         164.000
  22987987.881   -10495350.39149  -7831922.92346  22987987.857    22987995.003
       224.000         173.000
  24034183.432    -8234492.47249  -6383440.37745  24034183.761    24034188.686
       218.000         153.000
  20604507.606   -22601039.37349 -17210891.04248  20604507.316    20604512.236
       245.000         217.000
  23484422.307    -8435050.14349  -5761855.53446  23484423.122    23484430.365
       223.000         168.000
  22050818.272   -17540876.50049 -13338198.01946  22050817.926    22050825.480
       231.000         185.000
  23098925.860   -11754461.01049  -9141717.55146  23098926.236    23098933.714
       222.000         168.000
 03  4 18  1 17 30.0000000  0  8G25G18G31G11G14G23G15G 3
  22252579.790   -17419315.65149 -13220382.90446  22252579.540    22252586.034
       230.000         185.000
  23431989.146    -7378918.15949  -5343999.79545  23431987.772    23431993.707
       220.000         162.000
  22995213.180   -10457381.52249  -7802336.82746  22995212.765    22995220.612
       226.000         173.000
  24015861.309    -8330775.93649  -6458466.42845  24015861.585    24015866.787
       212.000         151.000
  20612358.822   -22559780.91449 -17178741.60348  20612358.641    20612363.541
       245.000         217.000
  23492634.439    -8391896.07149  -5728229.01546  23492633.688    23492642.885
       222.000         168.000
  22067018.082   -17455745.98749 -13271862.59746  22067017.632    22067025.212
       230.000         185.000
  23111631.720   -11687691.65849  -9089689.51346  23111631.980    23111639.763
       223.000         168.000
 03  4 18  1 18  0.0000000  0  8G25G18G31G11G14G23G15G 3
  22236475.515   -17503943.79649 -13286326.84346  22236475.259    22236482.015
       231.000         185.000
  23442700.141    -7322630.20749  -5300139.11045  23442698.697    23442706.206
       216.000         158.000
  23002515.650   -10419007.54449  -7772435.05046  23002515.860    23002522.821
       224.000         173.000
  23997564.998    -8426923.29049  -6533386.37545  23997564.292    23997571.521
       211.000         148.000
  20620275.302   -22518179.49349 -17146324.91848  20620275.290    20620279.755
       245.000         217.000
  23500856.151    -8348690.39849  -5694562.28646  23500855.976    23500863.413
       221.000         167.000
  22083284.784   -17370263.97949 -13205253.27646  22083284.400    22083291.724
       230.000         185.000
  23124376.325   -11620718.35849  -9037502.56346  23124376.607    23124383.950
       223.000         168.000
 03  4 18  1 18 30.0000000  0  8G25G18G31G11G14G23G15G 3
  22220418.612   -17588322.72149 -13352076.58646  22220418.434    22220424.887
       232.000         185.000
  23453425.867    -7266264.40549  -5256217.74645  23453426.081    23453434.216
       220.000         160.000
  23009894.444   -10380232.17549  -7742220.50346  23009894.142    23009901.904
       225.000         173.000
  23979294.894    -8522933.59049  -6608199.51445  23979294.310    23979300.654
       217.000         154.000
  20628256.453   -22476238.37149 -17113643.53248  20628256.215    20628261.129
       246.000         217.000
  23509087.742    -8305433.77849  -5660855.86246  23509087.437    23509094.486
       222.000         166.000
  22099617.809   -17284433.43649 -13138372.37646  22099617.423    22099625.070
       230.000         185.000
  23137159.012   -11553545.39549  -8985160.03546  23137159.068    23137167.433
       222.000         168.000
 03  4 18  1 19  0.0000000  0  8G25G18G31G11G14G23G15G 3
  22204410.005   -17672447.87349 -13417628.58946  22204409.997    22204416.576
       232.000         186.000
  23464167.371    -7209818.79649  -5212234.20446  23464169.024    23464173.503
       222.000         163.000
  23017349.390   -10341056.41049  -7711693.95746  23017349.171    23017356.416
       225.000         173.000
  23961051.618    -8618803.10049  -6682902.96445  23961051.669    23961058.619
       218.000         160.000
  20636302.035   -22433958.59949 -17080698.26348  20636301.836    20636306.582
       245.000         217.000
  23517329.393    -8262124.30849  -5627108.24946  23517328.222    23517336.817
       220.000         166.000
  22116017.116   -17198254.88349 -13071220.29846  22116016.850    22116024.255
       231.000         184.000
  23149979.258   -11486174.38649  -8932663.18946  23149979.693    23149987.137
       222.000         168.000
 03  4 18  1 19 30.0000000  0  8G25G18G31G11G14G23G15G 3
  22188450.323   -17756316.32249 -13482980.55846  22188449.946    22188457.025
       232.000         186.000
  23474923.928    -7153292.85149  -5168188.06945  23474922.999    23474930.448
       216.000         161.000
  23024880.046   -10301482.40449  -7680857.09346  23024879.927    23024886.602
       224.000         172.000
  23942835.480    -8714529.27349  -6757494.70345  23942835.290    23942841.839
       213.000         157.000
  20644411.676   -22391342.08049 -17047490.59348  20644411.461    20644416.282
       245.000         216.000
  23525581.150    -8218760.79549  -5593318.53146  23525581.449    23525589.261
       222.000         166.000
  22132482.368   -17111729.65249 -13003798.09046  22132482.171    22132489.366
       230.000         184.000
  23162836.751   -11418608.25649  -8880014.30446  23162835.932    23162843.666
       222.000         167.000
 03  4 18  1 20  0.0000000  0  8G25G18G31G11G14G23G15G 3
  22172540.059   -17839924.87649 -13548130.02146  22172539.840    22172546.626
       232.000         186.000
  23485695.758    -7096685.83249  -5124078.70345  23485694.932    23485703.320
       217.000         159.000
  23032486.104   -10261512.12249  -7649711.43646  23032485.422    23032493.222
       224.000         172.000
  23924646.990    -8810109.47449  -6831972.68845  23924646.942    23924652.890
       211.000         150.000
  20652585.089   -22348390.61049 -17014021.92748  20652584.913    20652589.556
       245.000         216.000
  23533843.459    -8175342.12949  -5559485.82646  23533841.570    23533850.276
       219.000         164.000
  22149013.341   -17024859.02249 -12936106.72746  22149013.147    22149020.450
       230.000         184.000
  23175730.795   -11350849.43749  -8827215.27746  23175730.606    23175738.490
       221.000         167.000
 03  4 18  1 20 30.0000000  0  8G25G18G31G11G14G23G15G 3
  22156679.718   -17923271.36649 -13613075.27146  22156679.530    22156686.295
       233.000         187.000
  23496483.091    -7039997.46949  -5079905.99645  23496485.452    23496491.175
       223.000         160.000
  23040167.122   -10221148.17649  -7618259.03446  23040167.364    23040174.493
       224.000         172.000
  23906486.762    -8905541.74149  -6906335.48845  23906485.634    23906492.051
       217.000         149.000
  20660821.770   -22305106.55449 -16980294.10148  20660821.591    20660826.218
       245.000         216.000
  23542116.192    -8131867.74849  -5525609.73045  23542115.543    23542121.721
       219.000         162.000
  22165609.719   -16937644.65249 -12868147.51146  22165609.118    22165616.776
       229.000         184.000
  23188660.979   -11282901.06549  -8774268.53946  23188660.504    23188669.041
       220.000         167.000
 03  4 18  1 21  0.0000000  0  8G25G18G31G11G14G23G15G 3
  22140869.734   -18006353.56449 -13677814.58746  22140869.855    22140876.357
       233.000         187.000
  23507286.163    -6983228.03049  -5035670.09745  23507285.985    23507294.551
       218.000         160.000
  23047922.334   -10180393.80549  -7586502.39446  23047922.215    23047928.896
       223.000         171.000
  23888355.073    -9000824.73749  -6980581.94545  23888355.086    23888360.884
       215.000         153.000
  20669121.242   -22261492.82049 -16946309.37848  20669120.955    20669125.831
       245.000         216.000
  23550399.690    -8088337.75249  -5491690.29445  23550400.937    23550407.148
       221.000         162.000
  22182271.011   -16850088.90149 -12799922.28346  22182270.564    22182277.788
       230.000         183.000
  23201626.556   -11214766.91249  -8721177.04446  23201626.858    23201634.873
       220.000         166.000
 03  4 18  1 21 30.0000000  0  8G25G18G31G11G14G23G15G 3
  22125110.650   -18089168.09749 -13742345.33547  22125110.695    22125117.333
       233.000         188.000
  23518104.555    -6926376.65049  -4991370.37145  23518103.336    23518109.623
       217.000         159.000
  23055751.532   -10139250.93549  -7554443.04046  23055751.236    23055758.763
       224.000         170.000
  23870252.206    -9095955.46249  -7054709.66245  23870251.369    23870258.267
       209.000         153.000
  20677483.035   -22217551.11649 -16912069.09948  20677482.827    20677487.678
       245.000         216.000
  23558693.925    -8044750.92749  -5457726.57045  23558692.896    23558700.827
       217.000         162.000
  22198997.072   -16762193.15949 -12731432.15146  22198996.794    22199004.209
       229.000         183.000
  23214626.942   -11146449.45449  -8667942.70846  23214626.878    23214635.208
       221.000         166.000
 03  4 18  1 22  0.0000000  0  8G25G18G31G11G14G23G15G 3
  22109402.963   -18171712.48849 -13806665.57447  22109402.829    22109409.438
       233.000         188.000
  23528938.886    -6869442.68649  -4947006.27045  23528939.664    23528944.319
       222.000         159.000
  23063654.234   -10097721.78449  -7522082.67946  23063653.015    23063661.104
       222.000         170.000
  23852178.642    -9190931.30649  -7128716.69845  23852178.560    23852185.327
       213.000         152.000
  20685906.904   -22173283.45649 -16877574.82048  20685906.695    20685911.365
       245.000         216.000
  23566998.924    -8001106.26049  -5423717.79445  23566998.436    23567007.250
       215.000         161.000
  22215787.533   -16673958.90249 -12662678.22246  22215787.450    22215794.847
       230.000         182.000
  23227661.718   -11077951.26449  -8614567.54046  23227662.574    23227669.929
       221.000         166.000
 03  4 18  1 22 30.0000000  0  8G25G18G31G11G14G23G15G 3
  22093747.058   -18253984.28149 -13870773.40947  22093747.037    22093753.178
       233.000         188.000
  23539789.271    -6812426.17549  -4902577.83545  23539790.322    23539792.047
       221.000         159.000
  23071629.900   -10055809.18849  -7489423.55246  23071629.713    23071637.047
       222.000         169.000
  23834135.105    -9285750.79049  -7202601.97645  23834134.922    23834139.788
       218.000         153.000
  20694392.300   -22128692.39249 -16842828.53748  20694391.931    20694396.841
       245.000         216.000
  23575315.106    -7957403.48049  -5389663.73645  23575314.409    23575323.488
       216.000         161.000
  22232642.007   -16585388.29149 -12593662.20146  22232641.393    22232649.280
       229.000         182.000
  23240730.271   -11009275.83149  -8561054.25346  23240730.497    23240737.998
       221.000         165.000
 03  4 18  1 23  0.0000000  0  8G25G18G31G11G14G23G15G 3
  22078143.431   -18335981.68849 -13934667.44047  22078143.409    22078149.390
       233.000         189.000
  23550654.993    -6755327.06449  -4858085.07445  23550655.940    23550660.570
       219.000         158.000
  23079678.100   -10013515.98949  -7456467.83646  23079678.061    23079685.703
       223.000         170.000
  23816121.796    -9380411.54549  -7276363.58045  23816120.753    23816126.943
       216.000         153.000
  20702938.711   -22083780.51749 -16807832.27548  20702938.624    20702943.196
       245.000         216.000
  23583642.778    -7913642.21949  -5355564.09145  23583643.573    23583650.073
       220.000         161.000
  22249560.124   -16496483.25349 -12524385.58746  22249559.790    22249567.315
       229.000         182.000
  23253831.886   -10940426.09249  -8507405.15046  23253832.447    23253841.126
       222.000         165.000
 03  4 18  1 23 30.0000000  0  8G25G18G31G11G14G23G15G 3
  22062592.684   -18417701.16349 -13998344.89247  22062592.665    22062599.112
       234.000         189.000
  23561536.244    -6698144.57549  -4813527.29945  23561537.897    23561542.445
       223.000         157.000
  23087798.388    -9970844.16149  -7423217.09646  23087798.540    23087804.811
       223.000         170.000
  23798139.061    -9474910.90249  -7349999.35045  23798138.092    23798144.062
       214.000         153.000
  20711545.898   -22038549.60249 -16772587.41048  20711545.455    20711550.588
       245.000         215.000
  23591981.842    -7869821.19049  -5321417.88145  23591981.521    23591990.109
       218.000         161.000
  22266541.569   -16407245.12049 -12454849.42546  22266541.174    22266548.030
       228.000         181.000
  23266966.426   -10871404.43249  -8453622.08946  23266966.534    23266974.743
       219.000         165.000
 03  4 18  1 24  0.0000000  0  8G25G18G31G11G14G23G15G 3
  22047095.404   -18499139.64349 -14061803.39247  22047095.343    22047101.626
       234.000         189.000
  23572433.686    -6640877.89649  -4768903.92345  23572434.603    23572440.770
       220.000         156.000
  23095990.215    -9927795.98949  -7389673.10546  23095989.589    23095996.734
       222.000         169.000
  23780187.463    -9569246.47149  -7423507.51545  23780187.149    23780194.076
       218.000         156.000
  20720213.354   -21993001.55049 -16737095.42448  20720213.025    20720217.952
       246.000         215.000
  23600332.164    -7825939.52549  -5287224.40045  23600331.610    23600339.285
       220.000         162.000
  22283586.063   -16317675.23549 -12385054.75746  22283585.275    22283593.521
       230.000         181.000
  23280132.956   -10802213.92549  -8399707.43246  23280132.909    23280141.170
       220.000         165.000
 03  4 18  1 24 30.0000000  0  8G25G18G31G11G14G23G15G 3
  22031652.109   -18580294.63149 -14125040.98847  22031651.865    22031658.549
       233.000         190.000
  23583347.387    -6583526.87549  -4724214.79845  23583345.759    23583352.136
       214.000         155.000
  23104253.098    -9884374.12549  -7355837.92346  23104253.698    23104259.298
       223.000         169.000
  23762267.652    -9663415.99949  -7496886.32145  23762267.924    23762273.553
       217.000         157.000
  20728940.753   -21947138.77249 -16701358.19748  20728940.523    20728945.184
       245.000         215.000
  23608694.445    -7781996.64949  -5252983.25045  23608694.471    23608699.499
       219.000         162.000
  22300693.461   -16227775.72249 -12315003.22046  22300693.171    22300700.575
       229.000         181.000
  23293331.111   -10732857.50549  -8345663.52246  23293331.152    23293339.017
       220.000         165.000
 03  4 18  1 25  0.0000000  0  8G25G18G31G11G14G23G15G 3
  22016263.239   -18661163.32349 -14188055.49647  22016263.428    22016269.671
       234.000         190.000
  23594276.366    -6526090.82149  -4679459.50745  23594275.353    23594281.163
       211.000         153.000
  23112586.733    -9840580.99349  -7321713.44146  23112586.579    23112593.957
       223.000         169.000
  23744379.801    -9757417.13249  -7570133.90645  23744379.518    23744385.226
       215.000         154.000
  20737727.678   -21900963.34649 -16665377.34748  20737727.350    20737732.334
       245.000         215.000
  23617068.396    -7737991.65849  -5218693.66045  23617068.394    23617075.124
       219.000         161.000
  22317863.286   -16137548.17149 -12244696.08246  22317862.795    22317870.481
       230.000         180.000
  23306560.257   -10663338.03549  -8291492.53946  23306560.844    23306567.995
       219.000         165.000
 03  4 18  1 25 30.0000000  0  8G25G18G31G11G14G23G15G 3
  22000929.529   -18741742.52849 -14250844.43947  22000929.254    22000935.711
       234.000         191.000
  23605222.339    -6468568.51749  -4634636.97345  23605223.144    23605228.556
       219.000         156.000
  23120990.694    -9796418.24849  -7287300.93946  23120990.062    23120998.200
       223.000         169.000
  23726524.538    -9851246.65449  -7643247.74945  23726523.819    23726530.121
       217.000         156.000
  20746573.792   -21854476.57249 -16629153.89348  20746573.716    20746578.324
       246.000         215.000
  23625454.356    -7693922.95449  -5184354.45145  23625453.919    23625461.629
       219.000         161.000
  22335095.278   -16046993.38049 -12174133.95646  22335095.075    22335102.552
       228.000         180.000
  23319819.958   -10593657.72949  -8237196.23146  23319820.244    23319827.609
       218.000         165.000
 03  4 18  1 26  0.0000000  0  8G25G18G31G11G14G23G15G 3
  21985651.199   -18822030.67549 -14313406.57747  21985650.841    21985657.346
       234.000         192.000
  23616184.896    -6410960.81349  -4589747.90045  23616185.445    23616192.955
       218.000         159.000
  23129464.130    -9751889.79349  -7252603.47446  23129463.636    23129471.676
       224.000         169.000
  23708702.237    -9944903.64349  -7716227.16645  23708701.727    23708708.237
       218.000         159.000
  20755478.494   -21807682.11549 -16592690.68748  20755478.301    20755482.886
       246.000         215.000
  23633852.580    -7649791.10249  -5149966.03246  23633854.943    23633861.477
       223.000         164.000
  22352389.008   -15956114.36149 -12103319.19146  22352388.274    22352395.954
       228.000         180.000
  23333109.548   -10523820.86749  -8182777.95946  23333110.644    23333116.305
       221.000         165.000
 03  4 18  1 26 30.0000000  0  8G25G18G31G11G14G23G15G 3
  21970428.654   -18902025.26949 -14375739.97447  21970428.879    21970434.837
       234.000         192.000
  23627163.671    -6353267.17549  -4544791.85445  23627164.175    23627167.418
       219.000         157.000
  23138006.716    -9706998.23049  -7217623.05946  23138005.892    23138014.201
       222.000         169.000
  23690913.137   -10038385.85549  -7789070.39045  23690911.983    23690919.962
       217.000         157.000
  20764441.365   -21760581.97149 -16555989.28348  20764441.226    20764445.828
       245.000         215.000
  23642262.903    -7605595.40549  -5115527.86746  23642263.671    23642271.927
       221.000         163.000
  22369744.040   -15864913.07149 -12032253.29446  22369744.008    22369751.356
       228.000         180.000
  23346428.389   -10453830.31349  -8128239.89846  23346428.804    23346435.472
       219.000         165.000
 03  4 18  1 27  0.0000000  0  8G25G18G31G11G14G23G15G 3
  21955262.631   -18981722.88749 -14437841.96047  21955262.138    21955268.578
       234.000         192.000
  23638159.111    -6295486.37549  -4499767.86045  23638157.924    23638164.722
       213.000         155.000
  23146618.038    -9661745.01249  -7182360.85146  23146618.689    23146626.152
       222.000         169.000
  23673157.878   -10131689.71549  -7861774.65745  23673158.094    23673163.099
       218.000         157.000
  20773462.126   -21713177.54549 -16519050.77648  20773461.922    20773466.621
       245.000         215.000
  23650685.370    -7561334.06749  -5081038.53645  23650685.441    23650691.775
       218.000         160.000
  22387160.362   -15773390.38249 -11960936.95946  22387159.882    22387167.297
       228.000         179.000
  23359776.061   -10383688.06649  -8073583.64246  23359775.804    23359784.352
       219.000         165.000
 03  4 18  1 27 30.0000000  0  8G25G18G31G11G14G23G15G 3
  21940153.685   -19061120.69449 -14499710.32647  21940153.678    21940159.714
       235.000         193.000
  23649170.920    -6237618.21849  -4454675.79245  23649171.369    23649178.158
       218.000         156.000
  23155297.808    -9616132.88749  -7146818.96146  23155297.411    23155305.005
       222.000         169.000
  23655437.052   -10224813.15549  -7934338.33345  23655437.541    23655442.496
       219.000         158.000
  20782540.360   -21665471.21449 -16481877.02148  20782540.117    20782544.899
       245.000         215.000
  23659120.942    -7517006.45549  -5046497.54445  23659121.811    23659128.028
       221.000         162.000
  22404637.361   -15681548.19249 -11889371.64546  22404636.733    22404644.633
       227.000         179.000
  23373152.072   -10313396.98049  -8018811.40546  23373152.153    23373159.977
       220.000         164.000
 03  4 18  1 28  0.0000000  0  8G25G18G31G11G14G23G15G 3
  21925102.092   -19140217.00949 -14561343.76147  21925102.088    21925108.429
       235.000         193.000
  23660199.620    -6179663.02849  -4409515.91345  23660198.935    23660207.513
       215.000         157.000
  23164045.053    -9570165.40149  -7111000.17346  23164044.965    23164051.955
       222.000         168.000
  23637750.803   -10317754.86449  -8006760.39145  23637751.075    23637756.941
       218.000         159.000
  20791675.452   -21617466.04349 -16444470.40348  20791675.303    20791679.852
       246.000         215.000
  23667568.946    -7472612.78249  -5011905.08345  23667568.523    23667576.122
       218.000         160.000
  22422174.612   -15589389.56349 -11817559.76046  22422173.932    22422182.077
       227.000         179.000
  23386555.656   -10242961.10249  -7963926.35046  23386556.084    23386564.318
       219.000         164.000
 03  4 18  1 28 30.0000000  0  8G25G18G31G11G14G23G15G 3
  21910108.602   -19219008.19049 -14622739.43347  21910108.418    21910114.696
       235.000         193.000
  23671244.868    -6121619.20349  -4364287.03845  23671244.428    23671251.835
       215.000         157.000
  23172859.655    -9523843.98849  -7074905.58346  23172859.853    23172866.897
       221.000         168.000
  23620099.792   -10410511.35149  -8079038.13545  23620099.355    23620105.925
       218.000         160.000
  20800867.201   -21569162.91449 -16406831.61148  20800867.059    20800871.893
       245.000         215.000
  23676029.653    -7428150.93049  -4977259.53045  23676029.176    23676036.919
       220.000         160.000
  22439772.030   -15496914.80249 -11745501.54746  22439771.300    22439779.422
       226.000         178.000
  23399986.378   -10172382.27249  -7908929.88546  23399986.067    23399994.041
       217.000         163.000
 03  4 18  1 29  0.0000000  0  8G25G18G31G11G14G23G15G 3
  21895173.717   -19297491.49749 -14683895.20947  21895173.717    21895180.134
       236.000         194.000
  23682307.181    -6063486.28149  -4318988.71145  23682307.220    23682314.628
       216.000         157.000
  23181741.194    -9477171.21649  -7038537.20846  23181740.965    23181749.165
       222.000         168.000
  23602484.437   -10503080.24749  -8151169.68345  23602483.431    23602490.556
       216.000         159.000
  20810115.269   -21520564.19149 -16368962.48248  20810114.907    20810119.791
       245.000         214.000
  23684503.432    -7383620.34949  -4942560.37845  23684501.401    23684509.261
       215.000         159.000
  22457429.220   -15404125.79549 -11673198.47246  22457428.416    22457436.831
       226.000         178.000
  23413443.649   -10101663.35749  -7853824.28645  23413443.450    23413450.852
       218.000         162.000
 03  4 18  1 29 30.0000000  0  8G25G18G31G11G14G23G15G 3
  21880297.932   -19375664.56349 -14744809.23247  21880297.805    21880304.129
       235.000         194.000
  23693386.374    -6005264.03349  -4273620.73945  23693383.202    23693392.077
       209.000         153.000
  23190689.021    -9430149.94149  -7001897.27446  23190688.331    23190695.650
       222.000         168.000
  23584905.306   -10595459.31649  -8223153.31345  23584905.130    23584911.290
       218.000         160.000
  20819419.055   -21471672.32949 -16330864.93348  20819418.726    20819423.672
       245.000         214.000
  23692990.455    -7339020.46849  -4907807.27445  23692990.564    23692996.329
       219.000         160.000
  22475145.779   -15311024.65549 -11600652.16746  22475144.861    22475152.463
       226.000         178.000
  23426927.151   -10030807.30049  -7798611.80145  23426927.486    23426934.240
       219.000         162.000
 03  4 18  1 30  0.0000000  0  8G25G18G31G11G14G23G15G 3
  21865481.473   -19453525.10249 -14805479.72847  21865481.282    21865487.573
       236.000         194.000
  23704482.616    -5946952.25249  -4228182.99445  23704483.887    23704489.564
       219.000         154.000
  23199702.737    -9382782.81349  -6964987.85346  23199703.180    23199709.744
       221.000         168.000
  23567362.659   -10687646.43149  -8294987.40145  23567362.025    23567368.265
       218.000         160.000
  20828778.218   -21422489.56649 -16292540.70948  20828778.067    20828782.931
       246.000         214.000
  23701490.886    -7294350.48449  -4872999.49745  23701490.819    23701496.993
       220.000         159.000
  22492921.427   -15217613.34449 -11527864.17146  22492920.725    22492928.360
       226.000         177.000
  23440436.165    -9959817.22349  -7743294.91345  23440436.074    23440444.908
       219.000         162.000
 03  4 18  1 30 30.0000000  0  8G25G18G31G11G14G23G15G 3
  21850724.911   -19531071.07849 -14865905.11047  21850724.688    21850731.499
       235.000         194.000
  23715596.435    -5888550.58649  -4182675.26045  23715596.624    23715604.174
       218.000         157.000
  23208781.650    -9335072.77649  -6927811.21746  23208781.675    23208788.529
       223.000         168.000
  23549856.835   -10779639.38949  -8366670.15845  23549856.034    23549861.445
       216.000         158.000
  20838192.311   -21373018.41549 -16253991.76648  20838192.090    20838196.952
       245.000         214.000
  23710004.966    -7249609.99349  -4838136.78445  23710002.887    23710010.855
       215.000         158.000
  22510755.691   -15123893.96749 -11454836.13246  22510754.659    22510763.578
       224.000         177.000
  23453970.001    -9888696.46449  -7687876.17645  23453970.144    23453978.974
       218.000         161.000
 03  4 18  1 31  0.0000000  0  8G25G18G31G11G14G23G15G 3
  21836028.768   -19608299.40049 -14926082.97447  21836028.442    21836034.734
       236.000         194.000
  23726727.221    -5830058.79749  -4137097.26245  23726729.477    23726734.044
       220.000         156.000
  23217925.462    -9287022.40649  -6890369.37346  23217925.045    23217932.863
       223.000         169.000
  23532388.560   -10871435.66149  -8438199.66545  23532388.896    23532394.489
       223.000         162.000
  20847660.777   -21323261.10649 -16215219.84548  20847660.435    20847665.517
       245.000         214.000
  23718532.071    -7204798.17249  -4803218.50145  23718532.012    23718539.294
       217.000         157.000
  22528648.114   -15029868.29849 -11381569.40946  22528647.442    22528655.984
       226.000         176.000
  23467528.073    -9817447.70249  -7632357.71745  23467528.198    23467535.621
       218.000         161.000
 03  4 18  1 31 30.0000000  0  8G25G18G31G11G14G23G15G 3
  21821393.659   -19685207.42149 -14986011.24747  21821393.264    21821399.857
       236.000         195.000
  23737875.522    -5771476.15249  -4091448.46845  23737875.311    23737880.801
       218.000         157.000
  23227133.463    -9238634.18449  -6852664.28746  23227133.020    23227140.200
       222.000         168.000
  23514958.389   -10963032.91949  -8509574.14346  23514958.243    23514963.894
       220.000         165.000
  20857183.433   -21273219.44349 -16176226.34548  20857183.073    20857187.992
       245.000         214.000
  23727072.822    -7159914.04549  -4768243.89945  23727070.821    23727079.438
       215.000         154.000
  22546598.667   -14935537.95249 -11308065.27446  22546598.595    22546605.952
       225.000         176.000
  23481110.149    -9746073.83849  -7576741.76445  23481109.486    23481117.834
       218.000         161.000
 03  4 18  1 32  0.0000000  0  8G25G18G31G11G14G23G15G 3
  21806820.000   -19761792.43049 -15045687.82347  21806819.813    21806826.251
       236.000         195.000
  23749041.023    -5712802.05349  -4045728.43845  23749041.171    23749047.225
       217.000         158.000
  23236405.275    -9189910.60949  -6814697.88646  23236405.601    23236412.627
       222.000         168.000
  23497566.171   -11054428.56049  -8580791.45245  23497564.854    23497571.549
       213.000         159.000
  20866759.770   -21222895.44349 -16137012.84748  20866759.583    20866764.357
       246.000         214.000
  23735628.026    -7114956.82549  -4733212.31945  23735627.887    23735635.030
       216.000         155.000
  22564606.741   -14840904.94649 -11234325.31546  22564606.318    22564614.359
       225.000         176.000
  23494715.519    -9674577.53749  -7521030.39345  23494715.267    23494724.478
       218.000         161.000
 03  4 18  1 32 30.0000000  0  8G25G18G31G11G14G23G15G 3
  21792308.249   -19838052.19649 -15105110.96347  21792307.969    21792314.546
       237.000         196.000
  23760223.451    -5654036.20749  -3999936.88645  23760223.130    23760230.365
       214.000         154.000
  23245740.311    -9140854.80749  -6776472.59546  23245740.838    23245747.432
       223.000         168.000
  23480212.809   -11145620.53449  -8651850.09246  23480213.257    23480218.583
       222.000         163.000
  20876389.361   -21172291.85949 -16097581.48848  20876388.977    20876394.026
       245.000         214.000
  23744197.332    -7069926.03849  -4698123.41045  23744197.034    23744202.000
       218.000         156.000
  22582672.017   -14745971.38649 -11160351.13746  22582671.302    22582679.353
       224.000         175.000
  23508343.501    -9602962.25149  -7465226.30045  23508344.402    23508351.725
       219.000         161.000
 03  4 18  1 33  0.0000000  0  8G25G18G31G11G14G23G15G 3
  21777858.963   -19913983.46749 -15164278.13847  21777858.902    21777865.273
       237.000         196.000
  23771423.897    -5595177.63949  -3954073.07745  23771424.845    23771431.094
       218.000         152.000
  23255138.282    -9091468.54049  -6737989.80646  23255138.583    23255145.471
       221.000         168.000
  23462898.966   -11236606.00849  -8722747.81746  23462898.174    23462904.557
       214.000         163.000
  20886071.757   -21121410.18949 -16057933.44448  20886071.434    20886076.556
       244.000         214.000
  23752780.421    -7024820.11549  -4662975.95045  23752780.932    23752787.093
       216.000         153.000
  22600794.262   -14650738.39949 -11086143.65946  22600793.486    22600801.110
       225.000         175.000
  23521993.713    -9531230.15349  -7409331.22045  23521993.653    23522001.250
       218.000         160.000
 03  4 18  1 33 30.0000000  0  8G25G18G31G11G14G23G15G 3
  21763472.662   -19989583.60749 -15223187.28047  21763472.551    21763479.184
       237.000         196.000
  23782642.237    -5536225.96549  -3908136.71245  23782641.760    23782648.569
       213.000         153.000
  23264598.581    -9041754.45249  -6699251.58446  23264598.983    23264605.907
       222.000         168.000
  23445624.437   -11327382.54249  -8793482.69945  23445624.702    23445630.266
       219.000         158.000
  20895806.740   -21070252.40649 -16018070.24448  20895806.714    20895811.340
       245.000         213.000
  23761378.060    -6979638.22749  -4627769.29845  23761377.840    23761385.532
       213.000         155.000
  22618973.206   -14555207.83149 -11011704.29246  22618973.231    22618980.404
       225.000         175.000
  23535665.691    -9459383.77749  -7353347.07445  23535666.077    23535672.452
       215.000         159.000
 03  4 18  1 34  0.0000000  0  8G25G18G31G11G14G23G15G 3
  21749149.841   -20064850.57849 -15281836.82147  21749149.427    21749156.114
       237.000         197.000
  23793878.055    -5477180.94449  -3862127.67445  23793878.611    23793884.247
       219.000         157.000
  23274120.653    -8991715.64449  -6660260.33846  23274121.111    23274128.532
       222.000         168.000
  23428390.589   -11417947.68049  -8864052.93946  23428391.072    23428396.571
       224.000         165.000
  20905593.850   -21018820.99449 -15977993.82348  20905593.439    20905598.523
       244.000         213.000
  23769990.692    -6934379.82749  -4592503.02645  23769992.167    23769997.950
       220.000         158.000
  22637208.266   -14459382.12449 -10937034.93746  22637208.197    22637215.645
       225.000         174.000
  23549358.741    -9387426.45349  -7297276.46845  23549357.719    23549366.882
       216.000         159.000
 03  4 18  1 34 30.0000000  0  8G25G18G31G11G14G23G15G 3
  21734890.801   -20139782.22849 -15340225.07447  21734890.698    21734897.118
       237.000         197.000
  23805131.780    -5418042.85449  -3816046.10945  23805131.111    23805139.124
       217.000         157.000
  23283703.903    -8941355.48749  -6621018.68246  23283704.337    23283712.028
       220.000         168.000
  23411197.171   -11508300.06749  -8934457.32946  23411195.756    23411203.201
       217.000         165.000
  20915432.389   -20967119.05249 -15937706.60748  20915432.178    20915437.094
       244.000         213.000
  23778617.941    -6889044.93649  -4557177.13945  23778617.646    23778624.686
       218.000         160.000
  22655498.981   -14363263.98949 -10862137.72646  22655498.205    22655505.831
       223.000         174.000
  23563072.182    -9315362.10449  -7241122.47345  23563072.025    23563080.881
       216.000         159.000
 03  4 18  1 35  0.0000000  0  8G25G18G31G11G14G23G15G 3
  21720696.154   -20214375.25349 -15398349.46347  21720696.155    21720702.018
       237.000         197.000
  23816403.316    -5358810.06549  -3769890.71145  23816401.179    23816411.267
       211.000         155.000
  23293348.058    -8890675.49449  -6581527.80546  23293348.990    23293355.362
       221.000         168.000
  23394044.681   -11598435.91449  -9004692.99246  23394044.720    23394049.929
       223.000         164.000
  20925322.252   -20915147.52249 -15897209.31648  20925322.061    20925326.940
       244.000         213.000
  23787259.801    -6843631.60749  -4521790.12545  23787257.724    23787268.699
       216.000         159.000
  22673845.197   -14266853.93349 -10787013.05946  22673844.394    22673852.310
       223.000         173.000
  23576805.675    -9243192.39549  -7184886.36545  23576805.487    23576813.623
       217.000         160.000
 03  4 18  1 35 30.0000000  0  8G25G18G31G11G14G23G15G 3
  21706566.421   -20288627.37749 -15456208.21747  21706566.217    21706572.295
       237.000         197.000
  23827693.042    -5299482.12349  -3723661.15745  23827690.883    23827698.851
       213.000         153.000
  23303052.491    -8839678.50049  -6541789.91046  23303052.492    23303059.337
       222.000         167.000
  23376934.093   -11688353.26149  -9074758.45846  23376934.995    23376939.531
       221.000         165.000
  20935262.986   -20862908.67949 -15856503.73048  20935262.699    20935267.646
       244.000         213.000
  23795916.464    -6798139.18249  -4486341.53545  23795917.679    23795924.933
       220.000         161.000
  22692246.523   -14170154.09849 -10711662.55246  22692246.225    22692254.227
       225.000         173.000
  23590558.623    -9170920.18149  -7128570.39845  23590558.646    23590566.564
       216.000         159.000
 03  4 18  1 36  0.0000000  0  8G25G18G31G11G14G23G15G 3
  21692501.941   -20362536.22449 -15513799.47847  21692501.993    21692508.088
       238.000         198.000
  23839000.927    -5240059.17049  -3677357.61045  23839002.442    23839005.702
       218.000         154.000
  23312816.576    -8788367.78749  -6501807.55546  23312815.833    23312823.776
       220.000         167.000
  23359865.253   -11778050.12449  -9144652.02246  23359866.251    23359871.148
       219.000         165.000
  20945254.096   -20810405.12249 -15815591.87748  20945253.733    20945258.860
       244.000         213.000
  23804588.807    -6752567.27149  -4450830.97145  23804588.127    23804596.568
       216.000         159.000
  22710702.568   -14073166.98449 -10636088.20246  22710701.688    22710711.150
       223.000         172.000
  23604330.541    -9098548.81149  -7072177.16345  23604330.182    23604337.608
       217.000         160.000
 03  4 18  1 36 30.0000000  0  8G25G18G31G11G14G23G15G 3
  21678503.374   -20436099.27249 -15571121.29547  21678503.244    21678509.281
       238.000         198.000
  23850326.888    -5180540.52349  -3630979.47345  23850326.832    23850333.822
       215.000         153.000
  23322639.750    -8736745.94349  -6461582.76946  23322639.343    23322647.307
       222.000         166.000
  23342838.981   -11867523.64049  -9214371.60146  23342839.149    23342844.037
       221.000         166.000
  20955295.109   -20757638.96249 -15774475.39747  20955294.831    20955299.844
       244.000         212.000
  23813276.003    -6706915.11049  -4415257.88345  23813275.932    23813284.551
       219.000         158.000
  22729212.994   -13975894.24649 -10560291.31346  22729212.554    22729220.800
       223.000         172.000
  23618120.684    -9026081.08349  -7015708.84945  23618120.755    23618128.732
       217.000         160.000
 03  4 18  1 37  0.0000000  0  8G25G18G31G11G14G23G15G 3
  21664571.036   -20509313.92649 -15628171.63347  21664570.660    21664577.111
       237.000         198.000
  23861671.391    -5120925.67849  -3584526.35045  23861673.137    23861679.027
       220.000         154.000
  23332521.806    -8684815.36149  -6421117.40646  23332521.851    23332528.798
       221.000         165.000
  23325855.582   -11956771.70449  -9283915.53545  23325855.246    23325861.198
       219.000         161.000
  20965385.750   -20704612.24949 -15733155.89247  20965385.396    20965390.551
       244.000         212.000
  23821978.635    -6661181.64549  -4379621.45645  23821978.068    23821985.654
       217.000         156.000
  22747777.325   -13878337.88049 -10484273.39146  22747777.172    22747785.561
       223.000         172.000
  23631928.690    -8953519.56749  -6959167.45345  23631929.346    23631937.325
       217.000         158.000
 03  4 18  1 37 30.0000000  0  8G25G18G31G11G14G23G15G 3
  21650705.490   -20582177.57949 -15684948.46547  21650705.409    21650711.723
       238.000         198.000
  23873034.087    -5061214.12849  -3537997.94545  23873034.042    23873040.259
       215.000         153.000
  23342462.085    -8632578.72449  -6380413.56446  23342461.920    23342469.083
       220.000         165.000
  23308915.645   -12045791.56249  -9353281.60246  23308916.553    23308921.901
       223.000         166.000
  20975525.601   -20651326.95549 -15691634.89447  20975525.306    20975530.284
       244.000         212.000
  23830697.378    -6615365.83249  -4343920.82645  23830696.092    23830704.519
       217.000         158.000
  22766395.389   -13780499.45649 -10408035.69946  22766394.283    22766403.266
       224.000         172.000
  23645754.002    -8880867.20049  -6902555.26345  23645753.705    23645761.767
       217.000         158.000
 03  4 18  1 38  0.0000000  0  8G25G18G31G11G14G23G15G 3
  21636907.074   -20654688.31149 -15741450.29347  21636907.071    21636912.824
       238.000         199.000
  23884414.986    -5001406.22549  -3491394.39945  23884413.475    23884422.152
       211.000         151.000
  23352460.095    -8580039.59349  -6339474.01546  23352460.028    23352467.665
       221.000         166.000
  23292019.569   -12134581.44349  -9422468.47046  23292018.931    23292025.208
       219.000         165.000
  20985714.148   -20597785.99049 -15649914.67147  20985713.873    20985718.951
       244.000         212.000
  23839431.492    -6569467.59449  -4308155.99645  23839431.715    23839438.672
       218.000         156.000
  22785066.587   -13682382.07749 -10331580.63746  22785066.167    22785073.951
       222.000         172.000
  23659595.886    -8808127.53649  -6845875.05245  23659596.202    23659604.014
       217.000         157.000
 03  4 18  1 38 30.0000000  0  8G25G18G31G11G14G23G15G 3
  21623176.560   -20726842.68349 -15797674.43647  21623176.606    21623182.563
       238.000         199.000
  23895814.720    -4941500.49149  -3444714.65445  23895816.111    23895821.324
       219.000         153.000
  23362515.235    -8527199.81249  -6298300.17746  23362514.528    23362522.699
       220.000         165.000
  23275167.703   -12223138.11749  -9491473.65946  23275168.856    23275173.483
       225.000         164.000
  20995951.067   -20543990.63549 -15607996.22347  20995951.125    20995955.594
       244.000         212.000
  23848181.615    -6523485.31849  -4272325.66445  23848180.858    23848189.714
       214.000         156.000
  22803790.683   -13583986.84649 -10254909.07746  22803790.245    22803797.657
       222.000         171.000
  23673454.003    -8735302.54449  -6789128.33745  23673453.179    23673462.164
       215.000         157.000
 03  4 18  1 39  0.0000000  0  8G25G18G31G11G14G23G15G 3
  21609514.161   -20798638.89349 -15853619.49447  21609514.225    21609520.119
       239.000         199.000
  23907233.423    -4881496.72349  -3397958.44345  23907232.148    23907240.484
       216.000         154.000
  23372626.931    -8474062.48149  -6256894.49446  23372626.977    23372634.387
       220.000         165.000
  23258360.850   -12311459.43949  -9560295.45046  23258360.362    23258366.950
       221.000         168.000
  21006236.003   -20489943.27749 -15565881.40247  21006235.536    21006240.919
       243.000         211.000
  23856947.573    -6477418.61749  -4236429.56645  23856947.959    23856955.254
       217.000         155.000
  22822567.095   -13485316.02149 -10178022.74846  22822566.066    22822574.494
       222.000         171.000
  23687327.665    -8662395.74849  -6732317.90545  23687329.253    23687335.626
       216.000         157.000
 03  4 18  1 39 30.0000000  0  8G25G18G31G11G14G23G15G 3
  21595920.480   -20870074.12749 -15909283.27247  21595920.375    21595926.460
       239.000         200.000
  23918670.463    -4821394.22149  -3351125.37645  23918669.290    23918675.699
       211.000         151.000
  23382794.771    -8420630.12749  -6215258.91846  23382795.308    23382802.025
       221.000         165.000
  23241598.838   -12399543.18949  -9628932.02646  23241598.396    23241605.086
       221.000         166.000
  21016568.383   -20435646.15849 -15523571.96247  21016568.093    21016572.978
       244.000         211.000
  23865730.124    -6431266.51349  -4200466.91245  23865730.469    23865738.399
       219.000         157.000
  22841395.632   -13386371.27549 -10100922.97646  22841394.532    22841403.804
       220.000         170.000
  23701216.574    -8589409.57649  -6675445.61045  23701217.409    23701225.025
       216.000         156.000
 03  4 18  1 40  0.0000000  0  8G25G18G31G11G14G23G15G 3
  21582395.831   -20941146.31849 -15964664.15847  21582395.538    21582401.759
       238.000         200.000
  23930126.168    -4761192.72549  -3304215.14845  23930127.747    23930134.267
       219.000         150.000
  23393018.174    -8366905.84049  -6173395.87346  23393018.021    23393025.699
       220.000         165.000
  23224882.740   -12487386.84749  -9697381.63546  23224883.198    23224887.517
       224.000         167.000
  21026947.892   -20381101.59349 -15481069.71247  21026947.657    21026952.609
       244.000         211.000
  23874529.106    -6385028.30949  -4164437.15445  23874529.407    23874537.160
       217.000         157.000
  22860275.944   -13287154.80449 -10023611.47546  22860275.221    22860283.259
       222.000         170.000
  23715119.975    -8516346.98249  -6618513.76045  23715119.924    23715128.769
       216.000         156.000
 03  4 18  1 40 30.0000000  0  8G25G18G31G11G14G23G15G 3
  21568940.658   -21011853.42049 -16019760.56547  21568940.373    21568946.570
       239.000         200.000
  23941601.351    -4700892.34549  -3257227.84145  23941601.374    23941607.546
       216.000         151.000
  23403296.536    -8312892.60449  -6131307.67646  23403296.165    23403304.452
       220.000         165.000
  23208212.672   -12574988.41149  -9765642.53146  23208212.609    23208218.309
       219.000         165.000
  21037374.037   -20326311.96849 -15438376.50247  21037373.809    21037378.501
       244.000         211.000
  23883344.573    -6338703.52149  -4128339.91945  23883343.455    23883354.008
       216.000         156.000
  22879207.425   -13187669.06749  -9946090.16346  22879207.115    22879214.413
       221.000         170.000
  23729037.299    -8443211.13249  -6561524.85045  23729037.309    23729045.158
       215.000         156.000
 03  4 18  1 41  0.0000000  0  8G25G18G31G11G14G23G15G 3
  21555555.511   -21082192.67549 -16074570.32747  21555555.240    21555561.470
       239.000         201.000
  23953095.217    -4640492.37449  -3210162.98345  23953095.897    23953102.841
       216.000         152.000
  23413629.451    -8258593.00249  -6088996.31546  23413629.801    23413637.158
       220.000         165.000
  23191589.184   -12662345.32449  -9833712.82846  23191590.196    23191594.892
       226.000         168.000
  21047846.386   -20271278.97349 -15395493.65547  21047846.189    21047851.222
       243.000         211.000
  23892176.730    -6292291.05349  -4092174.42245  23892177.410    23892184.508
       219.000         160.000
  22898189.802   -13087915.95149  -9868360.50046  22898189.343    22898198.809
       222.000         170.000
  23742967.979    -8370004.86749  -6504481.03845  23742967.016    23742976.503
       214.000         156.000
 03  4 18  1 41 30.0000000  0  8G25G18G31G11G14G23G15G 3
  21542240.825   -21152161.68649 -16129091.59147  21542240.677    21542246.972
       239.000         201.000
  23964607.712    -4579992.16749  -3163020.05445  23964607.837    23964613.717
       214.000         150.000
  23424016.218    -8204009.72949  -6046463.92046  23424016.321    23424022.677
       219.000         164.000
  23175012.878   -12749455.10149  -9901590.55746  23175012.513    23175018.539
       221.000         168.000
  21058364.670   -20216004.91549 -15352422.96247  21058364.438    21058369.316
       243.000         211.000
  23901025.743    -6245790.12149  -4055939.96545  23901025.215    23901032.742
       219.000         161.000
  22917222.766   -12987897.27349  -9790423.92646  22917223.796    22917230.550
       223.000         170.000
  23756911.552    -8296731.07649  -6447384.61345  23756910.453    23756920.643
       213.000         156.000
 03  4 18  1 42  0.0000000  0  8G25G18G31G11G14G23G15G 3
  21528997.238   -21221757.32949 -16183321.92047  21528997.195    21529003.270
       239.000         201.000
  23976139.891    -4519390.95749  -3115798.33045  23976138.874    23976148.340
       213.000         148.000
  23434456.569    -8149145.21349  -6003712.37746  23434456.293    23434464.194
       218.000         164.000
  23158483.869   -12836314.77649  -9969273.34946  23158484.115    23158489.480
       225.000         168.000
  21068928.538   -20160491.56749 -15309165.80647  21068928.165    21068933.290
       243.000         210.000
  23909891.508    -6199199.61249  -4019635.69845  23909891.157    23909898.645
       217.000         159.000
  22936305.914   -12887614.64849  -9712281.65746  22936306.216    22936313.974
       223.000         170.000
  23770867.543    -8223392.05049  -6390237.36345  23770866.961    23770875.421
       214.000         156.000
 03  4 18  1 42 30.0000000  0  8G25G18G31G11G14G23G15G 3
  21515824.995   -21290977.82149 -16237259.92447  21515824.974    21515831.022
       240.000         202.000
  23987691.289    -4458688.55049  -3068497.77945  23987691.647    23987694.976
       216.000         149.000
  23444949.827    -8094002.29649  -5960743.91146  23444949.179    23444957.966
       218.000         164.000
  23142003.153   -12922922.08949 -10036759.55746  23142003.025    23142008.339
       221.000         168.000
  21079537.481   -20104741.13949 -15265723.91647  21079537.100    21079542.153
       243.000         210.000
  23918774.458    -6152518.72649  -3983261.00545  23918774.037    23918782.578
       217.000         157.000
  22955439.048   -12787070.23449  -9633935.39446  22955439.000    22955446.550
       222.000         169.000
  23784835.335    -8149990.50649  -6333041.41245  23784835.101    23784843.466
       215.000         155.000
 03  4 18  1 43  0.0000000  0  8G25G18G31G11G14G23G15G 3
  21502724.561   -21359820.72249 -16290903.69947  21502724.494    21502730.465
       240.000         202.000
  23999261.713    -4397884.26349  -3021117.86345  23999263.725    23999269.557
       216.000         150.000
  23455495.571    -8038584.07249  -5917560.90946  23455495.219    23455502.943
       218.000         164.000
  23125570.624   -13009274.79949 -10104047.31846  23125570.741    23125576.530
       222.000         168.000
  21090191.077   -20048755.88249 -15222099.04747  21090190.765    21090195.716
       243.000         210.000
  23927674.972    -6105746.91949  -3946815.45345  23927675.715    23927681.731
       219.000         159.000
  22974621.447   -12686266.20949  -9555386.86646  22974621.221    22974629.309
       221.000         168.000
  23798814.484    -8076529.60249  -6275799.21245  23798814.274    23798823.249
       213.000         155.000
 03  4 18  1 43 30.0000000  0  8G25G18G31G11G14G23G15G 3
  21489696.422   -21428283.94249 -16344251.62247  21489696.473    21489702.269
       240.000         202.000
  24010851.927    -4336978.12749  -2973658.57645  24010849.595    24010856.356
       207.000         147.000
  23466093.081    -7982893.39349  -5874165.60546  23466091.983    23466099.894
       217.000         163.000
  23109187.160   -13095370.63549 -10171134.93546  23109187.412    23109192.684
       223.000         169.000
  21100889.038   -19992537.98849 -15178292.89847  21100888.739    21100893.781
       244.000         210.000
  23936592.871    -6058883.36249  -3910298.42645  23936593.221    23936600.026
       217.000         158.000
  22993852.788   -12585204.77549  -9476637.72946  22993852.607    22993861.202
       220.000         168.000
  23812804.421    -8003012.26149  -6218513.01645  23812804.209    23812813.062
       215.000         155.000
 03  4 18  1 44  0.0000000  0  8G25G18G31G11G14G23G15G 3
  21476741.015   -21496364.85949 -16397301.64747  21476740.822    21476747.012
       240.000         203.000
  24022461.448    -4275969.40149  -2926119.31845  24022461.876    24022468.614
       216.000         148.000
  23476742.071    -7926932.79949  -5830559.99946  23476742.319    23476749.706
       219.000         164.000
  23092853.001   -13181206.91449 -10238020.33746  23092852.621    23092859.458
       224.000         169.000
  21111630.825   -19936089.50349 -15134307.08047  21111630.722    21111635.701
       244.000         210.000
  23945528.286    -6011927.12749  -3873709.15445  23945528.655    23945537.360
       215.000         157.000
  23013132.708   -12483887.96549  -9397689.61346  23013133.579    23013140.810
       221.000         167.000
  23826804.682    -7929441.11349  -6161184.90245  23826804.696    23826813.060
       213.000         155.000
 03  4 18  1 44 30.0000000  0  8G25G18G31G11G14G23G15G 3
  21463858.733   -21564061.66349 -16450052.36147  21463858.560    21463864.662
       240.000         203.000
  24034090.810    -4214858.00949  -2878500.05345  24034090.525    24034095.203
       215.000         148.000
  23487441.868    -7870705.85049  -5786746.83246  23487442.422    23487450.314
       223.000         165.000
  23076568.591   -13266781.74449 -10304701.92646  23076568.344    23076574.753
       223.000         172.000
  21122416.006   -19879413.12349 -15090143.67247  21122415.486    21122420.693
       243.000         209.000
  23954481.420    -5964878.02349  -3837047.53245  23954480.009    23954489.781
       214.000         156.000
  23032460.809   -12382318.59649  -9318544.66846  23032460.240    23032469.089
       219.000         167.000
  23840814.508    -7855819.68049  -6103817.61845  23840815.287    23840823.450
       216.000         155.000
 03  4 18  1 45  0.0000000  0  8G25G18G31G11G14G23G15G 3
  21451050.137   -21631371.29849 -16502501.38447  21451049.927    21451055.972
       240.000         203.000
  24045739.730    -4153642.90849  -2830799.99345  24045741.060    24045747.790
       217.000         152.000
  23498191.999    -7814214.51549  -5742727.65646  23498192.200    23498199.067
       221.000         166.000
  23060334.595   -13352091.89449 -10371177.35446  23060334.553    23060338.550
       228.000         171.000
  21133244.314   -19822510.04449 -15045803.62547  21133243.990    21133248.998
       243.000         209.000
  23963452.297    -5917734.35149  -3800312.26045  23963451.358    23963460.608
       213.000         156.000
  23051836.785   -12280497.81149  -9239203.84546  23051835.436    23051845.115
       218.000         167.000
  23854833.529    -7782149.94749  -6046412.69245  23854834.212    23854841.277
       215.000         155.000
 03  4 18  1 45 30.0000000  0  8G25G18G31G11G14G23G15G 3
  21438315.447   -21698292.20349 -16554647.50447  21438315.163    21438321.323
       240.000         203.000
  24057408.395    -4092324.48449  -2783019.47445  24057408.323    24057414.828
       216.000         152.000
  23508991.610    -7757462.50349  -5698505.33946  23508991.354    23508998.790
       219.000         165.000
  23044151.377   -13437135.98649 -10437445.46746  23044149.837    23044156.710
       219.000         169.000
  21144115.158   -19765383.43549 -15001289.39947  21144114.614    21144119.819
       242.000         209.000
  23972441.314    -5870496.35349  -3763503.46045  23972442.373    23972448.751
       218.000         156.000
  23071259.888   -12178428.47549  -9159669.34146  23071259.170    23071268.432
       220.000         166.000
  23868860.876    -7708435.58249  -5988972.98945  23868859.462    23868869.107
       213.000         155.000
 03  4 18  1 46  0.0000000  0  8G25G18G31G11G14G23G15G 3
  21425655.351   -21764821.10549 -16606488.17147  21425655.108    21425661.203
       241.000         204.000
  24069096.789    -4030901.34049  -2735157.31145  24069096.181    24069104.876
       214.000         151.000
  23519840.412    -7700451.67749  -5654081.36346  23519840.633    23519846.929
       220.000         164.000
  23028019.000   -13521910.51549 -10503503.42246  23028020.013    23028025.221
       229.000         172.000
  21155028.358   -19708034.22749 -14956601.71847  21155028.349    21155032.808
       243.000         209.000
  23981448.828    -5823162.12549  -3726619.65745  23981448.739    23981456.744
       215.000         155.000
  23090730.288   -12076111.62549  -9079941.95746  23090730.660    23090738.539
       221.000         166.000
  23882896.406    -7634678.51349  -5931500.00045  23882896.285    23882905.076
       213.000         154.000
 03  4 18  1 46 30.0000000  0  8G25G18G31G11G14G23G15G 3
  21413070.099   -21830956.86749 -16658022.49347  21413069.970    21413076.098
       240.000         204.000
  24080804.855    -3969373.60049  -2687213.63245  24080805.385    24080809.218
       215.000         145.000
  23530738.022    -7643185.39049  -5609458.32446  23530737.999    23530745.924
       220.000         165.000
  23011938.841   -13606413.72849 -10569350.14046  23011938.516    23011943.790
       222.000         169.000
  21165983.358   -19650465.31949 -14911742.83647  21165982.975    21165988.105
       243.000         209.000
  23990474.689    -5775731.40349  -3689660.69645  23990475.819    23990481.587
       219.000         155.000
  23110247.081   -11973550.14249  -9000023.95246  23110247.479    23110253.912
       220.000         166.000
  23896939.425    -7560882.12049  -5873996.38245  23896938.594    23896947.480
       214.000         154.000
 03  4 18  1 47  0.0000000  0  8G25G18G31G11G14G23G15G 3
  21400560.147   -21896696.92349 -16709248.46547  21400560.081    21400565.841
       240.000         204.000
  24092533.311    -3907740.81149  -2639188.09345  24092532.937    24092541.435
       216.000         149.000
  23541683.727    -7585666.53849  -5564638.48246  23541683.392    23541691.192
       219.000         165.000
  22995910.108   -13690643.37349 -10634983.51946  22995910.772    22995916.730
       228.000         171.000
  21176979.774   -19592678.75149 -14866714.35047  21176979.542    21176984.577
       243.000         209.000
  23999519.000    -5728203.40649  -3652625.91145  23999518.009    23999527.150
       212.000         152.000
  23129810.045   -11870746.01849  -8919916.89146  23129808.787    23129818.470
       218.000         165.000
  23910989.359    -7487048.99449  -5816464.12145  23910990.016    23910998.388
       212.000         155.000
 03  4 18  1 47 30.0000000  0  8G25G18G31G11G14G23G15G 3
  21388125.987   -21962038.46149 -16760163.90747  21388126.008    21388132.008
       241.000         204.000
  24104281.693    -3846002.27049  -2591080.14045  24104280.934    24104287.808
       215.000         146.000
  23552676.746    -7527897.76149  -5519623.88346  23552676.272    23552683.658
       219.000         164.000
  22979934.627   -13774596.52649 -10700401.49346  22979934.742    22979939.520
       225.000         178.000
  21188017.255   -19534676.23049 -14821517.59147  21188016.971    21188022.223
       243.000         209.000
  24008582.042    -5680577.16249  -3615514.52545  24008580.106    24008590.056
       211.000         151.000
  23149418.823   -11767701.02949  -8839622.13546  23149418.121    23149426.956
       217.000         165.000
  23925045.825    -7413181.81149  -5758905.32745  23925046.235    23925054.243
       214.000         154.000
 03  4 18  1 48  0.0000000  0  8G25G18G31G11G14G23G15G 3
  21375768.084   -22026979.58449 -16810767.33547  21375767.724    21375774.053
       240.000         204.000
  24116050.460    -3784157.67449  -2542889.60445  24116050.606    24116056.681
       215.000         149.000
  23563716.878    -7469881.86349  -5474416.72646  23563715.109    23563724.185
       219.000         164.000
  22964011.574   -13858270.75149 -10765602.16246  22964011.775    22964017.020
       227.000         169.000
  21199095.480   -19476459.86949 -14776154.20247  21199095.292    21199100.312
       243.000         209.000
  24017663.606    -5632851.77649  -3578325.97345  24017664.267    24017672.610
       215.000         154.000
  23169073.084   -11664417.29749  -8759141.35446  23169072.395    23169079.965
       218.000         165.000
  23939108.258    -7339283.17849  -5701322.04345  23939108.420    23939117.081
       213.000         154.000
 03  4 18  1 48 30.0000000  0  8G25G18G31G11G14G23G15G 3
  21363486.774   -22091518.04049 -16861057.00347  21363486.786    21363492.587
       241.000         205.000
  24127839.228    -3722206.97749  -2494616.36545  24127840.963    24127847.238
       215.000         149.000
  23574803.365    -7411621.85249  -5429019.35346  23574802.514    23574810.859
       219.000         163.000
  22948142.575   -13941664.02549 -10830583.90146  22948142.621    22948148.982
       226.000         177.000
  21210213.916   -19418032.21549 -14730626.17047  21210213.934    21210218.885
       243.000         209.000
  24026764.479    -5585026.85849  -3541059.82445  24026765.396    24026772.956
       217.000         156.000
  23188772.375   -11560897.24449  -8678476.42646  23188771.937    23188778.718
       219.000         164.000
  23953176.257    -7265356.13149  -5643716.58545  23953175.252    23953185.476
       211.000         153.000
 03  4 18  1 49  0.0000000  0  8G25G18G31G11G14G23G15G 3
  21351282.473   -22155652.01349 -16911031.48447  21351282.295    21351288.288
       241.000         205.000
  24139648.347    -3660149.74849  -2446260.12245  24139648.379    24139655.239
       212.000         147.000
  23585935.643    -7353120.94149  -5383434.27545  23585935.337    23585942.749
       217.000         162.000
  22932326.955   -14024774.10449 -10895344.87846  22932327.280    22932330.701
       225.000         172.000
  21221372.163   -19359395.37249 -14684935.13047  21221371.880    21221376.923
       243.000         208.000
  24035884.825    -5537101.74849  -3503715.62545  24035884.244    24035893.096
       214.000         157.000
  23208516.190   -11457143.09549  -8597629.08546  23208515.489    23208523.579
       219.000         164.000
  23967248.923    -7191403.94149  -5586091.56045  23967248.139    23967256.332
       210.000         152.000
 03  4 18  1 49 30.0000000  0  8G25G18G31G11G14G23G15G 3
  21339155.656   -22219378.73249 -16960688.62147  21339155.450    21339161.513
       241.000         205.000
  24151477.861    -3597984.83449  -2397819.92945  24151478.579    24151484.395
       213.000         145.000
  23597113.378    -7294381.33849  -5337663.18245  23597112.739    23597120.434
       219.000         162.000
  22916566.313   -14107597.81649 -10959882.89046  22916566.891    22916571.795
       226.000         172.000
  21232569.862   -19300550.87149 -14639082.28047  21232569.998    21232574.590
       243.000         208.000
  24045023.884    -5489075.02049  -3466292.22445  24045023.836    24045032.871
       216.000         155.000
  23228304.208   -11353156.58049  -8516600.65846  23228303.950    23228311.894
       218.000         163.000
  23981325.794    -7117428.96249  -5528448.76545  23981327.023    23981334.170
       214.000         152.000
 03  4 18  1 50  0.0000000  0  8G25G18G31G11G14G23G15G 3
  21327106.652   -22282696.43349 -17010027.05147  21327106.521    21327112.333
       241.000         205.000
  24163327.925    -3535712.24549  -2349295.90745  24163330.125    24163332.795
       213.000         146.000
  23608335.943    -7235406.48449  -5291708.76245  23608335.409    23608342.348
       219.000         162.000
  22900860.021   -14190133.63449 -11024196.35746  22900859.805    22900866.301
       226.000         174.000
  21243806.644   -19241501.19949 -14593069.55447  21243806.309    21243811.377
       243.000         208.000
  24054182.296    -5440946.34549  -3428789.43045  24054183.545    24054189.606
       214.000         152.000
  23248135.859   -11248940.40449  -8435393.30246  23248135.521    23248142.203
       217.000         163.000
  23995406.564    -7043434.04349  -5470790.46145  23995407.255    23995415.423
       213.000         151.000
 03  4 18  1 50 30.0000000  0  8G25G18G31G11G14G23G15G 3
  21315135.839   -22345603.22149 -17059045.28447  21315135.898    21315141.592
       241.000         206.000
  24175198.675    -3473332.19749  -2300688.05145  24175198.998    24175207.795
       214.000         149.000
  23619602.577    -7176199.58749  -5245573.55445  23619601.940    23619609.517
       216.000         162.000
  22885209.457   -14272378.95149 -11088283.65246  22885210.039    22885212.529
       227.000         173.000
  21255081.987   -19182248.86649 -14546898.91447  21255081.743    21255086.914
       243.000         207.000
  24063360.471    -5392715.41949  -3391206.87245  24063360.702    24063369.426
       215.000         152.000
  23268010.841   -11144497.00949  -8354008.89246  23268010.771    23268018.885
       217.000         163.000
  24009490.618    -6969422.20249  -5413118.92345  24009490.875    24009500.398
       212.000         151.000
 03  4 18  1 51  0.0000000  0  8G25G18G31G11G14G23G15G 3
  21303243.780   -22408096.33049 -17107741.17347  21303243.761    21303249.421
       243.000         206.000
  24187090.031    -3410843.51749  -2251995.59045  24187090.326    24187093.978
       212.000         145.000
  23630912.996    -7116762.66949  -5199259.07545  23630912.750    23630920.122
       217.000         160.000
  22869614.211   -14354331.17149 -11152142.42246  22869614.206    22869621.144
       226.000         172.000
  21266395.689   -19122795.16849 -14500571.36747  21266395.461    21266400.481
       243.000         207.000
  24072558.437    -5344380.57249  -3353543.37345  24072557.615    24072565.724
       214.000         152.000
  23287928.788   -11039827.84749  -8272448.53545  23287928.593    23287936.789
       217.000         162.000
  24023577.534    -6895395.42249  -5355435.76345  24023577.553    24023585.402
       214.000         151.000
 03  4 18  1 51 30.0000000  0  8G25G18G31G11G14G23G15G 3
  21291430.901   -22470173.34949 -17156112.83647  21291430.889    21291436.614
       243.000         206.000
  24199001.744    -3348245.82349  -2203218.25045  24199002.010    24199010.056
       211.000         147.000
  23642266.600    -7057098.84849  -5152767.82945  23642266.639    23642273.683
       218.000         159.000
  22854075.654   -14435987.90049 -11215771.00546  22854075.932    22854080.610
       227.000         178.000
  21277747.334   -19063142.11249 -14454088.47647  21277746.892    21277752.144
       242.000         207.000
  24081776.378    -5295941.20149  -3315798.42745  24081776.683    24081782.657
       216.000         153.000
  23307889.212   -10934934.96949  -8190713.86945  23307889.194    23307896.661
       218.000         162.000
  24037666.626    -6821356.82249  -5297743.40745  24037667.979    24037674.960
       215.000         152.000
 03  4 18  1 52  0.0000000  0  8G25G18G31G11G14G23G15G 3
  21279697.611   -22531832.18049 -17204158.64147  21279697.312    21279703.256
       243.000         207.000
  24210934.313    -3285538.35649  -2154355.28545  24210934.619    24210940.189
       206.000         143.000
  23653662.833    -6997210.69449  -5106101.78145  23653663.070    23653670.967
       217.000         159.000
  22838593.440   -14517346.33349 -11279167.15246  22838592.911    22838598.875
       226.000         172.000
  21289136.499   -19003291.64849 -14407451.76547  21289136.068    21289141.386
       242.000         207.000
  24091014.102    -5247396.06849  -3277971.11145  24091014.638    24091023.353
       216.000         153.000
  23327891.873   -10829820.34449  -8108806.39545  23327892.486    23327900.998
       218.000         162.000
  24051757.600    -6747308.95849  -5240043.81445  24051758.164    24051764.647
       214.000         151.000
 03  4 18  1 52 30.0000000  0  8G25G18G31G11G14G23G15G 3
  21268044.237   -22593070.93949 -17251877.11647  21268044.020    21268049.858
       243.000         207.000
  24222888.288    -3222720.73349  -2105406.54845  24222888.393    24222895.632
       213.000         148.000
  23665101.411    -6937101.03449  -5059263.11645  23665102.071    23665108.564
       218.000         160.000
  22823168.828   -14598403.93249 -11342328.86046  22823169.129    22823174.361
       228.000         178.000
  21300562.822   -18943245.83649 -14360662.82847  21300562.627    21300567.548
       242.000         207.000
  24100272.127    -5198744.61449  -3240060.92745  24100269.171    24100279.000
       209.000         150.000
  23347936.280   -10724486.20649  -8026727.86945  23347935.680    23347943.574
       217.000         161.000
  24065849.803    -6673254.50149  -5182339.09145  24065849.429    24065858.940
       213.000         151.000
 03  4 18  1 53  0.0000000  0  8G25G18G31G11G14G23G15G 3
  21256471.122   -22653887.67049 -17299266.73947  21256471.071    21256476.989
       243.000         207.000
  24234863.134    -3159793.25949  -2056372.14645  24234863.093    24234867.832
       213.000         145.000
  23676581.407    -6876773.51049  -5012254.69645  23676580.944    23676589.027
       216.000         160.000
  22807801.400   -14679159.42049 -11405255.15446  22807800.778    22807806.219
       228.000         174.000
  21312025.838   -18883007.32249 -14313723.74147  21312025.881    21312030.675
       243.000         207.000
  24109550.327    -5149986.68949  -3202067.76045  24109548.107    24109558.699
       212.000         150.000
  23368022.047   -10618935.26649  -7944480.46145  23368021.206    23368027.688
       216.000         161.000
  24079942.519    -6599196.73149  -5124631.77645  24079943.002    24079951.885
       214.000         151.000
 03  4 18  1 53 30.0000000  0  8G25G18G31G11G14G23G15G 3
  21244978.765   -22714280.06449 -17346325.71447  21244978.677    21244984.566
       243.000         207.000
  24246859.153    -3096755.32549  -2007251.69745  24246859.379    24246867.490
       209.000         149.000
  23688102.344    -6816230.86649  -4965078.63345  23688102.388    23688110.447
       219.000         160.000
  22792492.260   -14759609.72349 -11467943.67846  22792491.606    22792497.518
       227.000         176.000
  21323525.256   -18822577.91849 -14266635.90547  21323524.901    21323530.108
       242.000         207.000
  24118849.184    -5101121.22549  -3163990.78745  24118848.988    24118858.042
       214.000         151.000
  23388148.609   -10513169.49349  -7862065.59145  23388147.652    23388156.290
       217.000         161.000
  24094035.348    -6525138.43349  -5066924.10745  24094036.546    24094043.889
       214.000         151.000
 03  4 18  1 54  0.0000000  0  8G25G18G31G11G14G23G15G 3
  21233567.569   -22774246.38749 -17393052.68247  21233567.557    21233573.421
       243.000         207.000
  24258875.367    -3033606.00949  -1958044.52145  24258877.429    24258880.085
       216.000         142.000
  23699663.831    -6755475.47249  -4917736.80545  23699662.655    23699671.847
       215.000         160.000
  22777241.512   -14839752.42849 -11530392.49746  22777241.884    22777246.973
       231.000         176.000
  21335060.552   -18761959.35249 -14219400.67047  21335060.345    21335065.183
       242.000         206.000
  24128168.694    -5052147.08249  -3125829.15945  24128169.566    24128176.346
       213.000         151.000
  23408315.660   -10407190.93049  -7779484.95645  23408315.650    23408323.241
       219.000         160.000
  24108127.888    -6451081.87349  -5009217.75145  24108127.601    24108136.835
       211.000         150.000
 03  4 18  1 54 30.0000000  0  8G25G18G31G11G14G23G15G 3
  21222237.829   -22833784.33249 -17439445.84747  21222237.711    21222243.523
       244.000         208.000
  24270913.930    -2970345.31749  -1908750.51945  24270912.687    24270921.886
       211.000         146.000
  23711264.902    -6694510.61249  -4870231.75845  23711265.912    23711272.684
       218.000         160.000
  22762049.851   -14919585.24749 -11592599.85346  22762048.792    22762055.709
       225.000         175.000
  21346631.449   -18701153.70449 -14172019.65747  21346631.165    21346636.157
       242.000         206.000
  24137508.897    -5003063.70349  -3087582.41045  24137508.101    24137517.371
       212.000         149.000
  23428522.748   -10301002.08349  -7696740.45745  23428521.932    23428530.922
       216.000         160.000
  24122219.489    -6377029.85149  -4951514.90945  24122219.285    24122228.367
       215.000         151.000
 03  4 18  1 55  0.0000000  0  8G25G18G31G11G14G23G15G 3
  21210990.005   -22892892.01449 -17485503.74547  21210990.037    21210995.741
       243.000         208.000
  24282973.492    -2906972.87249  -1859369.30145  24282975.376    24282979.154
       215.000         145.000
  23722905.684    -6633339.13849  -4822565.70645  23722904.485    23722913.083
       216.000         161.000
  22746917.458   -14999105.67949 -11654563.79146  22746918.296    22746922.385
       231.000         177.000
  21358237.480   -18640163.15249 -14124494.57147  21358236.970    21358242.122
       241.000         205.000
  24146870.012    -4953870.44049  -3049249.99445  24146867.292    24146877.786
       211.000         149.000
  23448769.452   -10194605.02049  -7613833.69345  23448768.715    23448778.360
       215.000         159.000
  24136309.739    -6302985.33249  -4893817.94145  24136310.100    24136319.706
       213.000         149.000
 03  4 18  1 55 30.0000000  0  8G25G18G31G11G14G23G15G 3
  21199824.392   -22951567.50149 -17531224.86347  21199824.447    21199830.065
       243.000         208.000
  24295053.944    -2843488.31049  -1809900.88045  24295053.744    24295060.231
       212.000         143.000
  23734584.931    -6571964.02649  -4774740.98045  23734586.138    23734592.441
       218.000         160.000
  22731845.078   -15078311.56349 -11716282.61446  22731844.522    22731850.547
       225.000         175.000
  21369878.336   -18578989.93949 -14076827.14447  21369878.181    21369883.261
       242.000         205.000
  24156251.963    -4904566.74449  -3010831.57845  24156252.954    24156260.060
       214.000         150.000
  23469055.275   -10088002.13149  -7530766.53545  23469054.502    23469064.360
       214.000         159.000
  24150398.068    -6228951.07649  -4836128.97345  24150397.618    24150406.018
       213.000         150.000
 03  4 18  1 56  0.0000000  0  8G25G18G31G11G14G23G15G 3
  21188741.459   -23009808.59249 -17576607.50047  21188741.509    21188747.228
       243.000         208.000
  24307156.094    -2779890.82149  -1760344.38445  24307155.376    24307165.218
       210.000         146.000
  23746302.534    -6510387.87649  -4726759.60445  23746302.387    23746310.411
       217.000         160.000
  22716833.055   -15157200.22849 -11777754.26646  22716833.523    22716839.043
       231.000         180.000
  21381553.772   -18517635.54149 -14029018.53047  21381553.568    21381559.122
       242.000         205.000
  24165655.651    -4855151.34149  -2972326.07845  24165653.876    24165663.625
       212.000         151.000
  23489380.071    -9981195.19749  -7447540.38845  23489379.201    23489389.479
       216.000         159.000
  24164483.998    -6154929.45949  -4778449.82245  24164483.996    24164492.646
       213.000         149.000
 03  4 18  1 56 30.0000000  0  8G25G18G31G11G14G23G15G 3
  21177741.481   -23067613.69149 -17621650.40047  21177741.435    21177747.160
       244.000         208.000
  24319279.797    -2716180.73249  -1710700.30145  24319279.403    24319286.909
       213.000         149.000
  23758057.720    -6448614.25249  -4678624.34245  23758057.249    23758065.508
       216.000         159.000
  22701881.622   -15235770.05049 -11838977.49046  22701880.535    22701885.880
       227.000         174.000
  21393263.128   -18456102.54349 -13981070.75147  21393262.682    21393268.243
       241.000         205.000
  24175080.441    -4805624.23249  -2933733.56945  24175078.062    24175086.425
       212.000         151.000
  23509742.952    -9874187.04349  -7364157.44745  23509744.702    23509750.534
       218.000         159.000
  24178566.820    -6080923.72949  -4720783.12745  24178567.436    24178574.702
       213.000         148.000
 03  4 18  1 57  0.0000000  0  8G25G18G31G11G14G23G15G 3
  21166824.960   -23124980.29049 -17666351.60847  21166824.912    21166830.939
       243.000         209.000
  24331425.181    -2652357.27949  -1660967.64845  24331424.835    24331433.235
       212.000         145.000
  23769850.000    -6386645.61949  -4630337.12345  23769849.795    23769857.827
       216.000         159.000
  22686991.626   -15314017.87849 -11899949.79846  22686991.493    22686997.280
       230.000         179.000
  21405006.112   -18394392.60649 -13932985.09947  21405006.063    21405010.475
       241.000         205.000
  24184526.698    -4755983.96449  -2895052.83845  24184528.090    24184534.741
       218.000         151.000
  23530143.858    -9766979.36649  -7280619.06545  23530144.230    23530150.671
       218.000         158.000
  24192646.213    -6006936.08249  -4663130.44745  24192645.870    24192655.737
       211.000         148.000
 03  4 18  1 57 30.0000000  0  8G25G18G31G11G14G23G15G 3
  21155992.147   -23181906.83749 -17710709.92047  21155992.211    21155997.949
       244.000         209.000
  24343591.911    -2588420.34949  -1611146.76845  24343591.882    24343598.100
       211.000         143.000
  23781678.768    -6324485.05749  -4581900.36745  23781677.747    23781687.004
       214.000         159.000
  22672163.003   -15391941.96749 -11960669.81646  22672162.828    22672167.161
       229.000         176.000
  21416782.374   -18332508.03349 -13884763.35947  21416782.210    21416787.178
       242.000         204.000
  24193994.601    -4706230.07149  -2856283.59645  24193994.996    24194001.936
       216.000         151.000
  23550582.420    -9659574.71049  -7196927.13545  23550582.911    23550591.031
       215.000         158.000
  24206721.731    -5932969.45749  -4605494.19345  24206721.965    24206729.236
       211.000         148.000
 03  4 18  1 58  0.0000000  0  8G25G18G31G11G14G23G15G 3
  21145243.502   -23238391.10449 -17754723.59947  21145243.453    21145249.200
       244.000         209.000
  24355780.522    -2524369.22849  -1561236.70545  24355779.705    24355785.866
       215.000         141.000
  23793543.508    -6262135.37449  -4533316.23145  23793543.083    23793551.472
       217.000         160.000
  22657396.763   -15469539.39049 -12021135.34146  22657396.551    22657402.580
       228.000         178.000
  21428591.532   -18270450.60749 -13836406.93247  21428591.425    21428596.911
       241.000         205.000
  24203484.511    -4656361.69449  -2817425.08345  24203482.438    24203492.321
       209.000         151.000
  23571058.030    -9551975.08949  -7113083.29645  23571056.547    23571067.360
       214.000         157.000
  24220792.561    -5859026.34849  -4547876.23645  24220793.653    24220801.328
       213.000         147.000
 03  4 18  1 58 30.0000000  0  8G25G18G31G11G14G23G15G 3
  21134579.396   -23294431.20549 -17798391.17147  21134579.385    21134584.904
       244.000         209.000
  24367990.840    -2460203.29549  -1511237.40645  24367990.701    24367999.454
       214.000         146.000
  23805443.904    -6199599.30149  -4484586.84245  23805444.274    23805451.124
       219.000         159.000
  22642692.939   -15546807.87249 -12081344.47946  22642692.480    22642697.870
       229.000         178.000
  21440433.301   -18208221.96549 -13787917.08447  21440433.287    21440438.211
       242.000         204.000
  24212995.853    -4606377.81949  -2778476.67445  24212997.850    24213002.780
       217.000         151.000
  23591570.355    -9444182.66549  -7029089.25145  23591570.206    23591579.901
       216.000         158.000
  24234858.608    -5785109.31749  -4490278.58645  24234856.408    24234866.503
       209.000         146.000
 03  4 18  1 59  0.0000000  0  8G25G18G31G11G14G23G15G 3
  21124000.160   -23350025.37749 -17841711.27147  21123999.949    21124005.878
       243.000         209.000
  24380223.220    -2395922.98849  -1461148.70445  24380219.595    24380229.659
       198.000         140.000
  23817378.904    -6136880.08649  -4435714.76045  23817378.772    23817386.196
       216.000         158.000
  22628052.190   -15623745.27649 -12141295.69346  22628051.606    22628057.798
       228.000         176.000
  21452307.220   -18145824.46549 -13739295.65747  21452306.897    21452312.028
       240.000         204.000
  24222529.338    -4556278.11449  -2739437.97945  24222529.752    24222538.228
       216.000         147.000
  23612118.791    -9336199.92849  -6944946.89645  23612118.401    23612127.018
       216.000         157.000
  24248918.959    -5711221.31449  -4432703.59745  24248919.133    24248928.188
       211.000         148.000
 03  4 18  1 59 30.0000000  0  8G25G18G31G11G14G23G15G 3
  21113506.216   -23405171.27849 -17884682.06447  21113506.164    21113511.986
       243.000         210.000
  24392477.071    -2331527.08149  -1410970.26545  24392480.687    24392485.575
       220.000         151.000
  23829348.468    -6073980.29949  -4386701.94745  23829348.196    23829355.817
       216.000         158.000
  22613474.998   -15700348.86849 -12200986.75346  22613474.977    22613480.245
       231.000         180.000
  21464212.838   -18083259.73549 -13690543.93247  21464212.825    21464217.501
       241.000         204.000
  24232085.335    -4506061.31949  -2700308.00645  24232084.497    24232090.290
       211.000         146.000
  23632703.088    -9228028.73049  -6860657.69645  23632703.020    23632710.238
       216.000         157.000
  24262973.445    -5637364.63149  -4375153.06445  24262974.992    24262981.333
       212.000         147.000
 03  4 18  2  0  0.0000000  0  8G25G18G31G11G14G23G15G 3
  21103097.745   -23459867.93449 -17927302.80147  21103097.640    21103103.366
       243.000         210.000
  24404753.411    -2267016.01949  -1360701.81845  24404750.053    24404760.379
       206.000         143.000
  23841351.559    -6010903.56149  -4337551.28745  23841351.346    23841358.602
       215.000         158.000
  22598961.617   -15776617.33149 -12260416.70246  22598961.215    22598966.803
       227.000         179.000
  21476149.882   -18020530.34449 -13641663.89247  21476149.541    21476154.743
       240.000         204.000
  24241663.748    -4455727.53249  -2661086.86145  24241662.476    24241673.826
       212.000         150.000
  23653322.783    -9119672.11649  -6776223.99545  23653322.536    23653332.039
       214.000         157.000
  24277021.490    -5563542.57649  -4317629.39545  24277020.808    24277032.244
       211.000         147.000
 03  4 18  2  0 30.0000000  0  8G25G18G31G11G14G23G15G 3
  21092775.315   -23514112.67449 -17969571.39047  21092774.946    21092780.903
       244.000         210.000
  24417051.425    -2202388.71449  -1310342.97545  24417051.707    24417059.814
       212.000         147.000
  23853387.983    -5947651.86849  -4288264.26545  23853388.613    23853396.167
       216.000         158.000
  22584512.591   -15852546.97149 -12319582.59346  22584512.867    22584518.437
       229.000         180.000
  21488117.940   -17957637.57149 -13592656.54147  21488118.005    21488122.879
       241.000         203.000
  24251264.324    -4405275.09249  -2621773.31145  24251263.420    24251271.846
       212.000         149.000
  23673977.419    -9011131.36349  -6691646.80345  23673977.606    23673984.625
       214.000         156.000
  24291062.620    -5489756.97149  -4260134.21645  24291062.967    24291069.684
       213.000         147.000
 03  4 18  2  1  0.0000000  0  8G25G18G31G11G14G23G15G 3
  21082539.177   -23567903.79449 -18011486.50847  21082539.132    21082544.942
       243.000         210.000
  24429371.722    -2137644.91749  -1259893.26645  24429368.410    24429374.874
       205.000         139.000
  23865457.055    -5884228.47949  -4238843.47245  23865455.769    23865464.469
       214.000         158.000
  22570128.430   -15928136.23549 -12378483.27946  22570127.746    22570132.869
       229.000         179.000
  21500116.762   -17894583.48649 -13543523.50047  21500116.809    21500121.388
       240.000         203.000
  24260887.632    -4354703.64949  -2582367.05445  24260887.507    24260897.231
       210.000         147.000
  23694666.576    -8902408.88949  -6606928.03845  23694667.393    23694673.858
       215.000         156.000
  24305095.928    -5416010.75849  -4202669.71445  24305097.091    24305105.832
       212.000         147.000
 03  4 18  2  1 30.0000000  0  8G25G18G31G11G14G23G15G 3
  21072389.639   -23621239.84549 -18053047.02847  21072389.448    21072395.291
       244.000         210.000
  24441714.294    -2072784.61449  -1209352.68545  24441715.662    24441722.963
       214.000         146.000
  23877558.231    -5820636.51849  -4189291.30045  23877557.131    23877566.716
       211.000         157.000
  22555809.514   -16003382.73549 -12437116.89146  22555809.268    22555815.462
       229.000         179.000
  21512145.881   -17831370.20549 -13494266.40147  21512145.592    21512150.321
       240.000         203.000
  24270533.983    -4304012.54049  -2542867.47045  24270534.708    24270539.284
       214.000         146.000
  23715389.851    -8793507.29849  -6522069.67745  23715389.198    23715396.471
       214.000         155.000
  24319121.536    -5342306.93349  -4145238.19745  24319120.093    24319128.522
       207.000         146.000
 03  4 18  2  2  0.0000000  0  8G25G18G31G11G14G23G15G 3
  21062327.131   -23674118.67449 -18094251.27147  21062327.064    21062332.561
       244.000         211.000
  24454078.711    -2007807.35249  -1158721.21945  24454078.923    24454083.694
       211.000         140.000
  23889690.586    -5756879.11049  -4139610.22945  23889691.051    23889698.915
       217.000         156.000
  22541556.145   -16078284.34549 -12495481.75046  22541556.115    22541560.766
       230.000         179.000
  21524204.777   -17767999.76649 -13444886.85547  21524204.593    21524209.664
       239.000         202.000
  24280203.346    -4253201.27649  -2503274.24045  24280202.745    24280210.832
       212.000         146.000
  23736146.880    -8684429.01549  -6437073.61945  23736145.928    23736154.690
       213.000         155.000
  24333138.235    -5268648.31849  -4087841.94445  24333138.419    24333149.294
       212.000         147.000
 03  4 18  2  2 30.0000000  0  8G25G18G31G11G14G23G15G 3
  21052351.984   -23726538.48849 -18135097.83947  21052352.010    21052357.477
       244.000         211.000
  24466466.213    -1942712.84449  -1107998.04045  24466465.688    24466474.589
       207.000         142.000
  23901854.435    -5692958.68749  -4089802.11945  23901854.201    23901862.757
       216.000         157.000
  22527369.038   -16152838.19249 -12553575.61846  22527368.827    22527374.436
       231.000         181.000
  21536293.384   -17704473.87349 -13395386.16147  21536293.334    21536298.204
       240.000         202.000
  24289895.395    -4202268.60349  -2463586.52545  24289896.115    24289904.197
       213.000         148.000
  23756937.075    -8575176.01349  -6351941.44245  23756936.385    23756944.365
       213.000         154.000
  24347146.052    -5195037.00349  -4030482.58845  24347146.431    24347153.465
       212.000         145.000
 03  4 18  2  3  0.0000000  0  8G25G18G31G11G14G23G15G 3
  21042464.401   -23778497.92849 -18175585.67647  21042464.315    21042469.926
       244.000         211.000
  24478875.376    -1877500.64449  -1057183.52445  24478877.336    24478881.951
       214.000         143.000
  23914048.507    -5628878.55349  -4039869.56245  23914048.409    23914055.550
       216.000         157.000
  22513248.435   -16227042.58049 -12611397.17646  22513248.063    22513253.380
       229.000         181.000
  21548411.164   -17640794.66949 -13345766.00947  21548410.886    21548415.672
       240.000         202.000
  24299610.723    -4151214.25549  -2423803.98345  24299608.701    24299618.927
       207.000         148.000
  23777759.988    -8465750.89549  -6266675.14645  23777759.849    23777767.887
       217.000         155.000
  24361144.345    -5121475.92449  -3973162.35445  24361144.491    24361154.394
       210.000         147.000
 03  4 18  2  3 30.0000000  0  8G25G18G31G11G14G23G15G 3
  21032664.848   -23829994.62549 -18215712.93147  21032664.579    21032670.433
       244.000         211.000
  24491307.382    -1812170.34649  -1006276.63645  24491306.132    24491316.527
       205.000         136.000
  23926272.363    -5564641.36049  -3989814.64445  23926272.326    23926280.203
       214.000         156.000
  22499194.797   -16300894.92049 -12668944.43646  22499195.141    22499199.620
       231.000         182.000
  21560557.823   -17576963.68949 -13296027.59447  21560557.457    21560562.792
       239.000         202.000
  24309349.571    -4100037.30549  -2383925.79645  24309349.827    24309358.686
       213.000         150.000
  23798615.370    -8356155.60749  -6181276.23945  23798614.042    23798623.321
       214.000         154.000
  24375132.621    -5047967.22449  -3915882.95945  24375133.886    24375140.776
       214.000         146.000
 03  4 18  2  4  0.0000000  0  8G25G18G31G11G14G23G15G 3
  21022953.698   -23881027.06249 -18255478.42547  21022953.612    21022959.151
       244.000         211.000
  24503761.822    -1746721.78249   -955277.89245  24503763.198    24503771.358
       213.000         149.000
  23938525.485    -5500250.21649  -3939639.75845  23938524.304    23938533.242
       214.000         155.000
  22485208.547   -16374392.85849 -12726215.51346  22485207.515    22485213.784
       229.000         181.000
  21572732.935   -17512983.21949 -13246172.68647  21572732.748    21572738.000
       239.000         202.000
  24319111.802    -4048736.87349  -2343951.48745  24319111.999    24319117.278
       214.000         147.000
  23819502.568    -8246392.58649  -6095746.65745  23819501.332    23819510.343
       213.000         154.000
  24389110.482    -4974513.70249  -3858646.52945  24389109.791    24389120.950
       210.000         146.000
 03  4 18  2  4 30.0000000  0  8G25G18G31G11G14G23G15G 3
  21013331.168   -23931593.49649 -18294880.80147  21013331.144    21013336.664
       244.000         211.000
  24516239.193    -1681154.34749   -904186.37045  24516236.573    24516238.671
       209.000         141.000
  23950807.604    -5435707.96849  -3889347.11145  23950807.701    23950814.549
       215.000         154.000
  22471290.168   -16447534.12249 -12783208.69146  22471290.010    22471295.518
       230.000         181.000
  21584936.132   -17448855.02649 -13196202.67747  21584935.560    21584940.598
       239.000         201.000
  24328897.516    -3997312.33649  -2303880.36245  24328895.246    24328906.521
       206.000         145.000
  23840421.271    -8136464.04749  -6010088.08045  23840420.850    23840429.543
       213.000         154.000
  24403077.360    -4901118.09349  -3801455.29945  24403078.680    24403086.955
       210.000         146.000
 03  4 18  2  5  0.0000000  0  8G25G18G31G11G14G23G15G 3
  21003797.583   -23981692.59549 -18333919.01647  21003797.593    21003803.285
       244.000         211.000
  24528738.791    -1615468.13049   -853002.22345  24528738.128    24528748.714
       208.000         142.000
  23963117.705    -5371017.59849  -3838939.07545  23963117.749    23963125.737
       216.000         155.000
  22457440.073   -16520316.56249 -12839922.24546  22457440.198    22457445.354
       232.000         182.000
  21597167.106   -17384580.83449 -13146118.89547  21597167.032    21597172.078
       239.000         201.000
  24338706.699    -3945763.23849  -2263712.33345  24338706.134    24338714.871
       210.000         148.000
  23861371.178    -8026372.23349  -5924302.28145  23861369.747    23861377.423
       210.000         153.000
  24417032.599    -4827782.57449  -3744310.68445  24417032.610    24417042.143
       214.000         144.000
 03  4 18  2  5 30.0000000  0  8G25G18G31G11G14G23G15G 3
  20994353.380   -24031322.10349 -18372591.31847  20994353.202    20994358.974
       244.000         211.000
  24541261.097    -1549662.18249   -801724.95945  24541262.198    24541263.855
       212.000         139.000
  23975455.697    -5306181.67949  -3788417.61245  23975454.238    23975464.297
       210.000         156.000
  22443658.919   -16592737.39749 -12896354.03746  22443658.529    22443663.620
       231.000         183.000
  21609425.526   -17320162.30349 -13095922.64347  21609425.186    21609430.970
       239.000         201.000
  24348540.276    -3894088.42549  -2223446.19545  24348538.787    24348547.177
       208.000         145.000
  23882351.757    -7916118.93749  -5838390.65245  23882349.224    23882359.300
       210.000         153.000
  24430976.117    -4754509.94949  -3687215.21845  24430975.028    24430984.375
       210.000         145.000
 03  4 18  2  6  0.0000000  0  8G25G18G31G11G14G23G15G 3
  20984998.655   -24080481.16049 -18410897.03947  20984998.598    20985004.247
       244.000         212.000
  24553806.444    -1483736.84649   -750354.49945  24553804.945    24553815.247
       206.000         143.000
  23987820.580    -5241203.81349  -3737785.53945  23987821.697    23987828.679
       216.000         157.000
  22429946.797   -16664795.08949 -12952502.86946  22429946.561    22429951.142
       231.000         182.000
  21621710.922   -17255602.02849 -13045615.95447  21621711.011    21621715.478
       240.000         201.000
  24358397.577    -3842287.83249  -2183082.17045  24358397.702    24358405.594
       211.000         147.000
  23903362.391    -7805707.12449  -5752355.48345  23903361.137    23903369.398
       210.000         152.000
  24444906.840    -4681303.30749  -3630171.16945  24444907.972    24444915.604
       211.000         144.000
 03  4 18  2  6 30.0000000  0  8G25G18G31G11G14G23G15G 3
  20975733.882   -24129167.77149 -18448834.61747  20975733.842    20975739.425
       244.000         212.000
  24566374.414    -1417691.53749   -698890.70045  24566373.773    24566381.155
       211.000         144.000
  24000212.047    -5176086.42549  -3687044.76845  24000212.629    24000219.789
       216.000         156.000
  22416304.211   -16736487.10249 -13008366.75046  22416304.086    22416309.590
       231.000         183.000
  21634023.095   -17190901.42449 -12995199.89747  21634022.768    21634027.309
       238.000         200.000
  24368279.020    -3790360.43349  -2142619.19545  24368279.041    24368288.477
       211.000         145.000
  23924402.882    -7695138.84949  -5666198.44345  23924402.491    23924409.512
       212.000         153.000
  24458824.700    -4608164.83649  -3573180.27945  24458824.158    24458834.379
       210.000         144.000
 03  4 18  2  7  0.0000000  0  8G25G18G31G11G14G23G15G 3
  20966559.373   -24177380.17449 -18486402.68347  20966559.323    20966564.995
       244.000         212.000
  24578965.129    -1351526.00749   -647333.15345  24578965.836    24578968.682
       212.000         137.000
  24012629.634    -5110832.81849  -3636197.82445  24012628.833    24012636.444
       212.000         154.000
  22402731.705   -16807811.27249 -13063944.00746  22402731.492    22402736.906
       231.000         183.000
  21646361.465   -17126062.50849 -12944676.07647  21646361.206    21646366.957
       238.000         200.000
  24378184.894    -3738305.71649  -2102057.18945  24378185.833    24378192.048
       214.000         150.000
  23945472.620    -7584416.57849  -5579921.36245  23945473.224    23945481.023
       214.000         152.000
  24472729.008    -4535097.07249  -3516244.42745  24472729.642    24472738.224
       210.000         143.000
 03  4 18  2  7 30.0000000  0  8G25G18G31G11G14G23G15G 3
  20957475.323   -24225116.91249 -18523600.09647  20957475.042    20957480.884
       244.000         212.000
  24591579.338    -1285240.25349   -595681.81345  24591579.903    24591584.735
       208.000         142.000
  24025072.185    -5045445.96849  -3585247.05545  24025072.259    24025079.648
       215.000         154.000
  22389229.542   -16878765.53649 -13119233.02146  22389229.499    22389235.036
       232.000         183.000
  21658725.818   -17061087.44249 -12894046.15347  21658725.306    21658730.425
       237.000         200.000
  24388114.864    -3686122.97049  -2061395.26545  24388112.801    24388123.790
       209.000         146.000
  23966571.290    -7473542.88849  -5493526.30645  23966570.159    23966578.141
       211.000         151.000
  24486619.409    -4462102.88649  -3459365.95445  24486618.876    24486629.232
       212.000         144.000
 03  4 18  2  8  0.0000000  0  7G25G31G11G14G23G15G 3
  20948482.006   -24272376.83149 -18560425.97247  20948481.838    20948487.486
       244.000         212.000
  24037539.623    -4979928.85349  -3534194.80345  24037539.757    24037545.874
       215.000         154.000
  22375798.183   -16949347.55849 -13174231.95846  22375797.508    22375803.176
       230.000         184.000
  21671115.712   -16995978.09649 -12843311.60347  21671115.429    21671120.295
       238.000         200.000
  24398069.285    -3633811.68749  -2020633.25245  24398067.080    24398078.967
       207.000         148.000
  23987698.187    -7362520.03149  -5407015.03845  23987697.463    23987707.646
       212.000         151.000
  24500495.353    -4389185.02849  -3402546.90745  24500495.160    24500504.343
       206.000         143.000
 03  4 18  2  8 30.0000000  0  7G25G31G11G14G23G15G 3
  20939579.484   -24319159.71249 -18596880.13148  20939579.501    20939584.965
       244.000         213.000
  24050031.180    -4914286.05849  -3483044.58645  24050030.400    24050040.565
       212.000         156.000
  22362437.758   -17019556.77049 -13228940.42946  22362438.396    22362442.612
       234.000         184.000
  21683530.549   -16930737.62649 -12792474.87147  21683530.134    21683535.872
       238.000         199.000
  24408047.973    -3581372.66649  -1979771.66545  24408046.691    24408051.306
       206.000         141.000
  24008852.695    -7251351.89149  -5320390.53045  24008852.527    24008858.522
       212.000         149.000
  24514355.792    -4316347.53049  -3345790.62145  24514356.874    24514365.578
       213.000         143.000
 03  4 18  2  9  0.0000000  0  7G25G31G11G14G23G15G 3
  20930768.704   -24365460.60949 -18632958.71648  20930768.570    20930774.242
       245.000         213.000
  24062546.705    -4848517.00149  -3431796.01345  24062545.626    24062552.520
       213.000         156.000
  22349149.566   -17089387.42249 -13283353.90246  22349148.986    22349154.217
       231.000         184.000
  21695970.578   -16865364.66149 -12741534.90747  21695970.802    21695975.552
       238.000         199.000
  24418051.714    -3528801.97449  -1938807.47745  24418053.673    24418062.427
       215.000         146.000
  24030035.178    -7140037.24849  -5233651.92145  24030033.854    24030042.976
       211.000         151.000
  24528201.407    -4243589.48549  -3289096.14245  24528200.480    24528209.743
       206.000         142.000
 03  4 18  2  9 30.0000000  0  7G25G31G11G14G23G15G 3
  20922049.787   -24411278.66849 -18668661.06848  20922049.796    20922055.210
       245.000         213.000
  24075085.481    -4782625.49349  -3380452.04545  24075086.035    24075093.617
       217.000         156.000
  22335933.302   -17158838.59149 -13337471.64646  22335933.685    22335938.612
       234.000         185.000
  21708435.397   -16799861.67749 -12690493.62547  21708435.093    21708440.300
       238.000         199.000
  24428080.815    -3476099.76549  -1897740.83345  24428082.360    24428085.232
       214.000         146.000
  24051245.029    -7028579.36449  -5146801.58645  24051244.290    24051253.801
       211.000         148.000
  24542031.034    -4170914.07249  -3232466.03745  24542032.634    24542040.305
       213.000         143.000
 03  4 18  2 10  0.0000000  0  7G25G31G11G14G23G15G 3
  20913422.948   -24456612.94249 -18703986.44048  20913422.819    20913428.344
       245.000         213.000
  24087647.025    -4716614.86149  -3329015.19445  24087647.099    24087655.500
       216.000         155.000
  22322789.862   -17227908.09849 -13391292.00846  22322788.595    22322794.212
       230.000         184.000
  21720924.436   -16734231.01749 -12639352.84947  21720923.727    21720929.185
       237.000         198.000
  24438134.814    -3423265.72249  -1856571.50745  24438134.162    24438145.493
       212.000         148.000
  24072481.641    -6916980.86349  -5059841.77645  24072483.387    24072487.777
       216.000         149.000
  24555844.492    -4098324.32849  -3175902.71845  24555843.893    24555853.696
       203.000         142.000
 03  4 18  2 10 30.0000000  0  7G25G31G11G14G23G15G 3
  20904888.342   -24501462.48849 -18738934.10448  20904888.297    20904893.692
       244.000         213.000
  24100230.430    -4650488.36149  -3277488.11245  24100231.757    24100236.052
       215.000         154.000
  22309719.232   -17296594.19249 -13444813.60646  22309719.892    22309724.413
       234.000         186.000
  21733437.379   -16668474.88949 -12588114.30647  21733436.705    21733442.269
       237.000         198.000
  24448214.075    -3370299.66649  -1815299.26045  24448210.156    24448219.973
       203.000         146.000
  24093744.276    -6805244.60649  -4972774.61345  24093744.638    24093748.906
       212.000         147.000
  24569641.184    -4025822.89849  -3119408.08845  24569642.410    24569650.058
       213.000         144.000
 03  4 18  2 11  0.0000000  0  7G25G31G11G14G23G15G 3
  20896446.375   -24545825.14249 -18773502.37548  20896446.231    20896451.749
       245.000         213.000
  24112835.381    -4584248.33049  -3225872.54145  24112835.242    24112843.489
       214.000         153.000
  22296722.175   -17364894.05549 -13498034.23946  22296721.491    22296726.361
       232.000         185.000
  21745974.052   -16602594.35649 -12536778.82947  21745974.085    21745979.190
       238.000         198.000
  24458318.627    -3317200.17649  -1773922.97145  24458319.877    24458326.946
       213.000         146.000
  24115033.099    -6693372.22449  -4885601.33145  24115032.390    24115042.888
       211.000         149.000
  24583420.553    -3953412.13149  -3062984.28245  24583420.632    24583430.050
       207.000         143.000
 03  4 18  2 11 30.0000000  0  7G25G31G11G14G23G15G 3
  20888097.238   -24589699.83949 -18807690.41248  20888097.101    20888102.668
       245.000         214.000
  24125461.579    -4517898.08149  -3174171.08645  24125459.892    24125469.457
       212.000         156.000
  22283798.898   -17432805.99149 -13550952.58846  22283798.607    22283804.294
       233.000         185.000
  21758533.992   -16536591.69549 -12485348.18847  21758533.890    21758538.994
       238.000         198.000
  24468448.456    -3263966.97849  -1732442.61245  24468444.918    24468454.965
       203.000         143.000
  24136346.980    -6581366.19549  -4798323.91345  24136348.474    24136354.814
       214.000         145.000
  24597182.340    -3881094.84749  -3006633.20845  24597183.594    24597190.377
       212.000         143.000
 03  4 18  2 12  0.0000000  0  7G25G31G11G14G23G15G 3
  20879841.331   -24633084.74949 -18841496.79148  20879841.357    20879846.890
       245.000         214.000
  24138108.063    -4451440.39549  -3122385.90345  24138108.975    24138115.332
       215.000         156.000
  22270949.982   -17500327.52349 -13603566.71146  22270949.832    22270954.533
       232.000         186.000
  21771116.770   -16470468.76249 -12433823.83647  21771116.749    21771122.050
       238.000         198.000
  24478604.041    -3210599.41849  -1690857.45745  24478605.904    24478614.366
       216.000         147.000
  24157686.122    -6469228.81649  -4710944.22445  24157681.915    24157693.279
       207.000         147.000
  24610925.613    -3808873.20149  -2950356.75045  24610925.960    24610937.196
       211.000         143.000
 03  4 18  2 12 30.0000000  0  7G25G31G11G14G23G15G 3
  20871678.829   -24675978.93749 -18874920.79348  20871678.757    20871684.318
       245.000         214.000
  24150774.450    -4384878.47149  -3070519.52745  24150774.637    24150781.665
       214.000         155.000
  22258175.652   -17567456.95249 -13655875.32646  22258175.975    22258180.380
       234.000         186.000
  21783722.136   -16404227.23349 -12382207.05847  21783721.673    21783726.454
       236.000         197.000
  24488785.208    -3157097.05849  -1649167.38745  24488784.337    24488791.759
       210.000         143.000
  24179049.771    -6356962.66249  -4623464.02545  24179046.744    24179058.517
       206.000         146.000
  24624650.476    -3736749.89749  -2894156.87645  24624649.710    24624657.082
       207.000         142.000
 03  4 18  2 13  0.0000000  0  7G25G31G11G14G23G15G 3
  20863609.954   -24718380.95249 -18907961.28948  20863609.963    20863615.434
       245.000         214.000
  24163460.249    -4318214.89549  -3018573.90045  24163459.515    24163467.655
       214.000         154.000
  22245476.438   -17634191.63149 -13707876.31646  22245475.538    22245480.866
       232.000         186.000
  21796349.747   -16337868.58749 -12330499.02047  21796349.381    21796354.924
       237.000         197.000
  24498992.375    -3103459.14649  -1607371.49745  24498991.491    24499000.877
       200.000         143.000
  24200437.192    -6244569.82749  -4535885.26845  24200436.666    24200444.376
       208.000         146.000
  24638356.000    -3664727.16449  -2838035.41045  24638356.880    24638366.680
       211.000         142.000
 03  4 18  2 13 30.0000000  0  7G25G31G11G14G23G15G 3
  20855635.133   -24760288.92549 -18940616.81948  20855634.974    20855640.640
       245.000         214.000
  24176164.605    -4251452.36349  -2966551.21345  24176164.659    24176172.673
       214.000         153.000
  22232852.677   -17700529.25249 -13759567.92646  22232852.986    22232857.253
       234.000         186.000
  21808999.355   -16271394.47149 -12278701.00247  21808999.154    21809004.453
       237.000         197.000
  24509224.724    -3049684.41449  -1565469.18845  24509226.705    24509232.703
       214.000         145.000
  24221848.496    -6132052.59349  -4448209.53045  24221847.784    24221855.027
       210.000         145.000
  24652042.058    -3592807.23549  -2781994.04145  24652043.156    24652051.507
       209.000         142.000
 03  4 18  2 14  0.0000000  0  7G25G31G11G14G23G15G 3
  20847754.432   -24801702.14549 -18972886.82848  20847754.360    20847760.016
       245.000         214.000
  24188887.473    -4184594.33349  -2914454.04845  24188886.622    24188894.112
       213.000         152.000
  22220304.912   -17766468.25549 -13810948.92846  22220304.543    22220309.638
       233.000         187.000
  21821670.456   -16204807.31949 -12226814.91047  21821670.212    21821674.973
       237.000         197.000
  24519484.030    -2995773.24749  -1523460.48745  24519483.895    24519490.539
       214.000         145.000
  24243282.878    -6019413.82049  -4360439.07545  24243283.874    24243291.645
       210.000         146.000
  24665707.701    -3520993.25749  -2726035.20145  24665708.535    24665717.519
       210.000         139.000
 03  4 18  2 14 30.0000000  0  7G25G31G11G14G23G15G 3
  20839968.139   -24842619.27649 -19004770.27348  20839968.060    20839973.648
       245.000         214.000
  24201627.699    -4117643.77249  -2862284.82045  24201627.982    24201636.155
       215.000         153.000
  22207833.390   -17832006.58649 -13862017.71546  22207833.657    22207838.284
       233.000         187.000
  21834362.777   -16138108.73949 -12174841.99447  21834362.915    21834368.023
       237.000         197.000
  24529769.130    -2941724.83349  -1481344.75745  24529767.525    24529778.971
       203.000         142.000
  24264740.077    -5906655.81349  -4272575.71545  24264738.401    24264746.469
       207.000         141.000
  24679353.064    -3449287.64149  -2670160.80645  24679352.720    24679361.835
       205.000         141.000
 03  4 18  2 15  0.0000000  0  7G25G31G11G14G23G15G 3
  20832276.588   -24883038.42049 -19036265.67848  20832276.645    20832282.020
       245.000         214.000
  24214385.249    -4050603.05249  -2810045.32845  24214384.780    24214392.860
       213.000         153.000
  22195438.525   -17897141.43349 -13912772.11046  22195438.258    22195443.984
       233.000         186.000
  21847076.068   -16071300.06749 -12122783.28047  21847075.644    21847080.603
       237.000         196.000
  24540080.360    -2887538.12149  -1439121.41345  24540078.077    24540088.831
       204.000         142.000
  24286219.777    -5793780.42849  -4184620.89545  24286220.030    24286229.407
       208.000         145.000
  24692977.035    -3377692.34449  -2614372.40045  24692977.328    24692983.274
       207.000         137.000
 03  4 18  2 15 30.0000000  0  7G25G31G11G14G23G15G 3
  20824680.004   -24922958.45449 -19067372.17248  20824679.874    20824685.464
       245.000         214.000
  24227159.197    -3983475.53549  -2757738.23545  24227159.027    24227167.204
       216.000         154.000
  22183120.880   -17961871.20949 -13963210.86347  22183120.505    22183125.761
       233.000         188.000
  21859810.014   -16004383.16149 -12070640.23547  21859809.299    21859814.465
       236.000         196.000
  24550418.166    -2833212.85449  -1396789.93045  24550419.718    24550426.239
       214.000         142.000
  24307720.876    -5680790.13449  -4096576.58645  24307722.494    24307727.030
       213.000         142.000
  24706579.745    -3306210.17749  -2558672.16045  24706580.170    24706590.405
       205.000         139.000
 03  4 18  2 16  0.0000000  0  7G25G31G11G14G23G15G 3
  20817178.554   -24962378.42649 -19098089.00148  20817178.527    20817184.100
       245.000         215.000
  24239949.092    -3916264.03849  -2705365.67345  24239949.282    24239957.051
       213.000         153.000
  22170880.567   -18026194.02749 -14013332.51546  22170880.489    22170885.460
       234.000         187.000
  21872564.098   -15937359.88049 -12018414.30047  21872564.269    21872568.944
       237.000         196.000
  24560782.260    -2778748.30649  -1354350.13845  24560781.055    24560793.779
       206.000         142.000
  24329243.821    -5567687.54749  -4008444.70145  24329243.155    24329253.846
       208.000         143.000
  24720160.457    -3234843.31249  -2503061.84345  24720160.469    24720170.155
       207.000         139.000
 03  4 18  2 16 30.0000000  0  7G25G31G11G14G23G15G 3
  20809772.611   -25001297.02349 -19128415.14948  20809772.664    20809778.173
       245.000         215.000
  24252754.533    -3848971.01649  -2652929.59445  24252753.928    24252762.071
       212.000         153.000
  22158718.362   -18090107.23649 -14063134.98347  22158718.149    22158723.987
       234.000         189.000
  21885338.233   -15870231.51949 -11966106.48947  21885338.366    21885342.683
       238.000         196.000
  24571173.445    -2724143.74449  -1311801.02645  24571173.421    24571179.413
       212.000         143.000
  24350787.618    -5454474.38149  -3920226.67945  24350786.301    24350790.402
       208.000         141.000
  24733719.025    -3163593.69549  -2447542.65945  24733720.352    24733728.176
       203.000         138.000
 03  4 18  2 17  0.0000000  0  7G25G31G11G14G23G15G 3
  20802462.165   -25039713.44649 -19158349.99048  20802462.165    20802467.682
       245.000         215.000
  24265574.750    -3781600.08149  -2600432.79745  24265574.372    24265582.321
       213.000         152.000
  22146634.227   -18153609.26749 -14112617.05047  22146634.774    22146638.803
       235.000         188.000
  21898131.872   -15803000.53449 -11913718.70347  21898131.559    21898136.696
       236.000         195.000
  24581590.808    -2669399.00049  -1269142.84845  24581592.048    24581600.386
       216.000         146.000
  24372351.772    -5341153.65549  -3831924.82445  24372350.193    24372361.477
       204.000         142.000
  24747254.214    -3092464.46049  -2392117.39345  24747254.542    24747265.940
       205.000         138.000
 03  4 18  2 17 30.0000000  0  7G25G31G11G14G23G15G 3
  20795247.641   -25077626.09449 -19187892.27548  20795247.570    20795253.064
       245.000         215.000
  24278409.600    -3714153.82949  -2547877.31345  24278408.757    24278417.347
       210.000         153.000
  22134628.881   -18216697.82049 -14161776.95947  22134628.026    22134633.626
       233.000         188.000
  21910944.858   -15735668.07949 -11861251.84947  21910944.419    21910949.169
       237.000         195.000
  24592035.667    -2614513.35349  -1226374.76545  24592034.299    24592044.309
       202.000         147.000
  24393936.138    -5227727.47749  -3743540.77745  24393935.190    24393942.073
       205.000         140.000
  24760766.689    -3021458.21649  -2336787.97145  24760767.507    24760776.668
       206.000         138.000
 03  4 18  2 18  0.0000000  0  7G25G31G11G14G23G15G 3
  20788129.262   -25115033.17349 -19217040.60448  20788129.058    20788134.649
       245.000         215.000
  24291257.738    -3646634.88849  -2495265.21545  24291257.502    24291266.168
       213.000         153.000
  22122702.520   -18279370.72649 -14210612.95547  22122702.132    22122707.196
       234.000         188.000
  21923776.750   -15668235.69849 -11808707.13647  21923777.065    21923781.871
       238.000         196.000
  24602506.499    -2559485.83249  -1183496.25845  24602507.339    24602513.250
       213.000         142.000
  24415539.985    -5114198.02649  -3655076.33245  24415541.143    24415548.111
       213.000         142.000
  24774255.011    -2950576.75949  -2281555.77245  24774255.590    24774266.208
       204.000         138.000
 03  4 18  2 18 30.0000000  0  7G25G31G11G14G23G15G 3
  20781107.279   -25151933.95849 -19245794.42948  20781107.259    20781112.591
       245.000         215.000
  24304119.455    -3579046.15649  -2442598.75045  24304120.847    24304128.411
       215.000         155.000
  22110855.873   -18341625.65849 -14259123.29547  22110855.803    22110860.471
       235.000         188.000
  21936627.407   -15600705.00849 -11756085.83247  21936627.339    21936632.339
       237.000         195.000
  24613005.388    -2504316.12049  -1140506.75645  24613005.321    24613012.115
       210.000         140.000
  24437163.098    -5000567.54949  -3566533.13645  24437160.916    24437170.133
       205.000         139.000
  24787719.386    -2879822.44249  -2226422.70545  24787719.929    24787728.158
       203.000         138.000
 03  4 18  2 19  0.0000000  0  7G25G31G11G14G23G15G 3
  20774181.724   -25188327.88249 -19274153.29048  20774181.603    20774187.157
       245.000         215.000
  24316994.118    -3511391.14149  -2389880.57845  24316993.276    24317001.566
       212.000         153.000
  22099088.797   -18403461.49549 -14307307.02147  22099089.189    22099094.201
       236.000         189.000
  21949496.424   -15533078.37849 -11703389.75147  21949495.600    21949500.802
       236.000         195.000
  24623531.075    -2449003.94149  -1097406.29145  24623531.964    24623539.314
       210.000         143.000
  24458805.125    -4886838.93149  -3477913.37745  24458804.282    24458813.234
       206.000         142.000
  24801158.791    -2809198.03049  -2171390.82545  24801159.654    24801167.484
       206.000         137.000
 03  4 18  2 19 30.0000000  0  7G25G31G11G14G23G15G 3
  20767352.882   -25224213.33449 -19302115.94248  20767352.871    20767358.167
       245.000         215.000
  24329880.506    -3443672.13549  -2337112.56445  24329880.874    24329890.277
       213.000         152.000
  22087402.243   -18464875.35849 -14355161.96747  22087401.420    22087405.946
       234.000         189.000
  21962383.391   -15465356.86349 -11650619.73647  21962383.049    21962388.366
       236.000         194.000
  24634083.708    -2393548.11249  -1054194.07645  24634083.129    24634092.353
       208.000         145.000
  24480465.122    -4773013.82949  -3389218.64345  24480463.538    24480472.606
       208.000         141.000
  24814573.209    -2738705.79049  -2116461.93145  24814572.519    24814583.543
       205.000         137.000
 03  4 18  2 20  0.0000000  0  6G25G31G11G14G23G15
  20760621.627   -25259586.16249 -19329679.15248  20760621.571    20760627.156
       245.000         215.000
  24342779.122    -3375888.99649  -2284294.59745  24342778.875    24342785.550
       211.000         150.000
  22075796.695   -18525862.57049 -14402684.45247  22075796.544    22075801.481
       235.000         189.000
  21975288.543   -15397539.10549 -11597774.75447  21975288.724    21975292.917
       236.000         193.000
  24644664.555    -2337945.52349  -1010867.33745  24644664.844    24644669.825
       210.000         143.000
  24502144.217    -4659092.00549  -3300448.23845  24502142.700    24502154.592
       207.000         142.000
 03  4 18  2 20 30.0000000  0  6G25G31G11G14G23G15
  20753987.555   -25294448.18749 -19356844.32348  20753987.433    20753992.923
       245.000         215.000
  24355688.884    -3308047.82349  -2231431.38445  24355688.598    24355696.194
       211.000         148.000
  22064272.180   -18586424.06449 -14449875.17547  22064271.653    22064276.865
       235.000         190.000
  21988211.302   -15329630.01849 -11544858.58347  21988210.678    21988216.447
       235.000         194.000
  24655272.960    -2282198.54549   -967428.06445  24655272.940    24655282.029
       208.000         144.000
  24523839.965    -4545078.51749  -3211606.74445  24523841.828    24523848.057
       217.000         145.000
 03  4 18  2 21  0.0000000  0  6G25G31G11G14G23G15
  20747450.634   -25328799.78449 -19383611.75748  20747450.669    20747455.984
       246.000         216.000
  24368608.858    -3240152.63549  -2178526.12745  24368609.233    24368617.665
       210.000         149.000
  22052828.943   -18646558.98749 -14496733.54147  22052828.904    22052833.389
       235.000         190.000
  22001150.902   -15261632.15849 -11491873.23347  22001150.411    22001155.219
       235.000         194.000
  24665908.628    -2226307.56049   -923876.69445  24665908.977    24665915.323
       213.000         143.000
  24545552.829    -4430977.09449  -3122696.45145  24545551.358    24545561.723
       208.000         139.000
 03  4 18  2 21 30.0000000  0  6G25G31G11G14G23G15
  20741011.172   -25362639.39249 -19409980.24348  20741011.247    20741016.569
       245.000         216.000
  24381538.788    -3172205.56949  -2125580.40545  24381538.112    24381546.606
       210.000         149.000
  22041467.281   -18706264.87649 -14543257.56447  22041466.620    22041472.471
       235.000         190.000
  22014107.114   -15193546.50549 -11438819.47947  22014107.171    22014112.065
       237.000         193.000
  24676571.700    -2170271.67349   -880212.25045  24676568.457    24676581.455
       199.000         138.000
  24567282.202    -4316789.59349  -3033719.23445  24567281.395    24567289.238
       206.000         144.000
 03  4 18  2 22  0.0000000  0  6G25G31G11G14G23G15
  20734669.442   -25395965.24049 -19435948.40648  20734669.287    20734674.749
       245.000         216.000
  24394478.100    -3104209.08749  -2072596.20245  24394478.774    24394486.278
       211.000         150.000
  22030187.693   -18765539.35149 -14589445.43947  22030187.948    22030192.240
       236.000         190.000
  22027079.798   -15125374.32549 -11385698.30047  22027079.160    22027084.235
       234.000         192.000
  24687262.533    -2114089.91449   -836434.36045  24687262.864    24687270.751
       209.000         145.000
  24589027.328    -4202517.50549  -2944676.02245  24589027.560    24589034.259
       211.000         141.000
 03  4 18  2 22 30.0000000  0  5G25G31G11G14G15
  20728425.510   -25428777.21049 -19461516.14148  20728425.360    20728430.790
       246.000         216.000
  24407426.272    -3036166.97249  -2019576.43145  24407427.140    24407433.378
       213.000         149.000
  22018990.336   -18824381.23549 -14635296.20347  22018990.220    22018995.492
       236.000         191.000
  22040068.608   -15057118.09149 -11332511.61347  22040068.268    22040074.397
       235.000         193.000
  24610788.063    -4088164.34649  -2855569.68945  24610786.317    24610795.876
       205.000         142.000
 03  4 18  2 23  0.0000000  0  5G25G31G11G14G15
  20722279.119   -25461076.49249 -19486684.37648  20722279.045    20722284.468
       246.000         216.000
  24420382.154    -2968084.06449  -1966524.88445  24420381.022    24420391.066
       211.000         149.000
  22007875.487   -18882790.47249 -14680809.85847  22007874.815    22007880.149
       235.000         192.000
  22053072.614   -14988781.32449 -11279262.18947  22053072.905    22053077.626
       237.000         193.000
  24632563.093    -3973734.37849  -2766403.49345  24632563.781    24632571.135
       211.000         140.000
 03  4 18  2 23 30.0000000  0  5G25G31G11G14G15
  20716231.313   -25492857.79549 -19511448.99148  20716231.242    20716236.563
       246.000         216.000
  24433345.939    -2899958.68549  -1913440.25745  24433346.057    24433353.009
       211.000         147.000
  21996844.047   -18940760.60649 -14725981.35447  21996844.012    21996848.728
       237.000         191.000
  22066092.592   -14920361.06749 -11225947.70747  22066091.783    22066097.961
       234.000         192.000
  24654353.584    -3859225.36849  -2677175.69145  24654352.607    24654360.734
       207.000         139.000
 03  4 18  2 24  0.0000000  0  5G25G31G11G14G15
  20710282.246   -25524120.32149 -19535809.36748  20710282.220    20710287.544
       246.000         216.000
  24446317.307    -2831793.94449  -1860324.93945  24446317.177    24446325.985
       212.000         147.000
  21985896.554   -18998290.19849 -14770809.55947  21985896.371    21985901.914
       236.000         192.000
  22079128.069   -14851859.22549 -11172569.64947  22079127.928    22079131.726
       236.000         191.000
  24676158.325    -3744640.12649  -2587888.56645  24676158.671    24676166.115
       209.000         139.000
 03  4 18  2 24 30.0000000  0  5G25G31G11G14G15
  20704431.896   -25554864.03249 -19559765.47348  20704431.740    20704437.185
       246.000         216.000
  24459295.432    -2763593.59349  -1807181.88445  24459294.713    24459303.585
       210.000         148.000
  21975033.103   -19055378.09049 -14815293.60747  21975033.301    21975036.855
       236.000         192.000
  22092178.655   -14783278.24449 -11119129.91447  22092178.973    22092183.052
       236.000         191.000
  24697976.927    -3629981.96049  -2498544.47945  24697975.497    24697987.980
       206.000         138.000
 03  4 18  2 25  0.0000000  0  4G25G31G11G14
  20698680.415   -25585088.20149 -19583316.74548  20698680.252    20698685.648
       246.000         217.000
  24472279.869    -2695360.59149  -1754013.38445  24472281.332    24472287.890
       215.000         149.000
  21964253.972   -19112022.51649 -14859432.08047  21964254.113    21964259.367
       237.000         193.000
  22105244.017   -14714619.63649 -11065629.68947  22105243.358    22105248.410
       234.000         191.000
 03  4 18  2 25 30.0000000  0  4G25G31G11G14
  20693027.855   -25614792.41649 -19606462.85748  20693027.845    20693033.166
       246.000         217.000
  24485269.804    -2627098.26849  -1700822.05445  24485268.401    24485277.833
       209.000         148.000
  21953559.485   -19168222.03949 -14903223.88747  21953558.987    21953564.238
       236.000         192.000
  22118323.575   -14645885.68549 -11012070.76747  22118323.423    22118328.720
       234.000         191.000
 03  4 18  2 26  0.0000000  0  4G25G31G11G14
  20687474.554   -25643975.24449 -19629202.69048  20687474.609    20687479.845
       246.000         217.000
  24498264.882    -2558808.88849  -1647609.61645  24498264.345    24498272.889
       209.000         148.000
  21942950.066   -19223974.70749 -14946667.50247  21942949.902    21942954.785
       236.000         192.000
  22131417.352   -14577077.24849 -10958453.81547  22131417.099    22131422.185
       235.000         191.000
 03  4 18  2 26 30.0000000  0  4G25G31G11G14
  20682020.693   -25672635.34849 -19651535.20748  20682020.635    20682025.845
       246.000         217.000
  24511264.626    -2490494.69549  -1594377.86545  24511264.395    24511273.779
       210.000         148.000
  21932426.151   -19279277.70349 -14989760.71847  21932426.437    21932430.855
       237.000         192.000
  22144525.198   -14508195.31349 -10904779.57547  22144524.804    22144529.857
       234.000         191.000
 03  4 18  2 27  0.0000000  0  4G25G31G11G14
  20676666.407   -25700772.18349 -19673459.98248  20676666.402    20676671.638
       246.000         217.000
  24524268.509    -2422158.65349  -1541129.08645  24524267.353    24524277.662
       208.000         146.000
  21921988.268   -19334129.42849 -15032502.30147  21921987.964    21921993.259
       236.000         193.000
  22157646.627   -14439241.55949 -10851049.37347  22157646.750    22157651.083
       235.000         190.000
 03  4 18  2 27 30.0000000  0  4G25G31G11G14
  20671411.722   -25728385.52749 -19694976.83848  20671411.669    20671416.752
       246.000         217.000
  24537275.946    -2353804.36049  -1487866.04545  24537275.648    24537283.737
       209.000         146.000
  21911636.416   -19388528.63649 -15074891.25647  21911636.010    21911641.223
       238.000         194.000
  22170781.414   -14370218.12349 -10797264.86747  22170780.958    22170786.008
       233.000         189.000
 03  4 18  2 28  0.0000000  0  4G25G31G11G14
  20666256.879   -25755474.18949 -19716084.85948  20666256.798    20666262.011
       246.000         217.000
  24550286.415    -2285433.95949  -1434590.49645  24550286.400    24550293.729
       213.000         147.000
  21901371.178   -19442472.99749 -15116925.81347  21901371.206    21901375.560
       238.000         193.000
  22183929.183   -14301125.93049 -10743426.79547  22183928.776    22183933.957
       234.000         190.000
 03  4 18  2 28 30.0000000  0  4G25G31G11G14
  20661201.829   -25782038.48849 -19736784.28148  20661201.698    20661206.839
       246.000         217.000
  24563299.475    -2217051.02949  -1381305.14045  24563299.132    24563308.546
       208.000         147.000
  21891192.616   -19495961.38349 -15158605.03647  21891192.323    21891197.688
       238.000         194.000
  22197089.720   -14231967.07149 -10689536.77547  22197089.844    22197094.620
       234.000         190.000
 03  4 18  2 29  0.0000000  0  4G25G31G11G14
  20656246.831   -25808077.09149 -19757074.06348  20656246.728    20656252.012
       246.000         217.000
  24576314.164    -2148658.18849  -1328012.11945  24576314.202    24576322.452
       209.000         148.000
  21881101.244   -19548992.12549 -15199927.66947  21881100.979    21881105.215
       237.000         194.000
  22210262.638   -14162743.11449 -10635596.03647  22210262.395    22210267.769
       234.000         190.000
 03  4 18  2 29 30.0000000  0  4G25G31G11G14
  20651392.080   -25833588.79949 -19776953.28248  20651391.949    20651397.265
       246.000         217.000
  24589330.494    -2080257.80149  -1274713.18945  24589330.771    24589340.068
       211.000         147.000
  21871097.395   -19601562.70949 -15240891.73747  21871097.264    21871102.826
       238.000         195.000
  22223447.696   -14093455.02249 -10581605.30347  22223447.657    22223451.929
       234.000         189.000
 03  4 18  2 30  0.0000000  0  4G25G31G11G14
  20646637.601   -25858573.56349 -19796421.89848  20646637.570    20646642.776
       246.000         217.000
  24602347.489    -2011852.97149  -1221410.81245  24602347.489    24602356.885
       207.000         147.000
  21861181.257   -19653671.94049 -15281496.29747  21861181.239    21861185.626
       238.000         195.000
  22236644.723   -14024104.48849 -10527565.92247  22236643.922    22236649.592
       233.000         189.000
 03  4 18  2 30 30.0000000  0  4G25G31G11G14
  20641983.649   -25883030.17749 -19815478.96448  20641983.532    20641988.818
       246.000         217.000
  24615365.058    -1943445.85549  -1168106.64345  24615364.748    24615372.654
       206.000         146.000
  21851353.447   -19705317.35149 -15321739.45947  21851352.873    21851358.483
       237.000         194.000
  22249853.251   -13954692.25649 -10473478.46747  22249853.137    22249857.645
       233.000         188.000
 03  4 18  2 31  0.0000000  0  4G25G31G11G14
  20637430.169   -25906958.80149 -19834124.61448  20637430.164    20637435.170
       246.000         217.000
  24628382.342    -1875039.89149  -1114803.35045  24628382.126    24628391.271
       209.000         144.000
  21841614.047   -19756497.88949 -15361620.36447  21841614.295    21841618.886
       239.000         195.000
  22263073.303   -13885220.37649 -10419344.53847  22263072.426    22263078.143
       232.000         188.000
 03  4 18  2 31 30.0000000  0  4G25G31G11G14
  20632977.374   -25930358.31149 -19852357.96148  20632977.287    20632982.561
       246.000         217.000
  24641398.909    -1806637.60249  -1061502.95945  24641399.324    24641407.576
       211.000         144.000
  21831963.565   -19807211.59049 -15401137.51247  21831963.226    21831968.178
       237.000         194.000
  22276304.347   -13815690.18749 -10365165.16547  22276304.485    22276309.163
       233.000         188.000
 03  4 18  2 32  0.0000000  0  4G25G31G11G14
  20628625.252   -25953228.71449 -19870179.01748  20628625.140    20628630.309
       246.000         217.000
  24654414.247    -1738242.36849  -1008208.03145  24654414.304    24654420.418
       212.000         142.000
  21822402.091   -19857457.15349 -15440289.86247  21822402.335    21822406.496
       239.000         195.000
  22289546.292   -13746103.71749 -10310941.94047  22289546.138    22289551.230
       234.000         188.000
 03  4 18  2 32 30.0000000  0  4G25G31G11G14
  20624373.977   -25975569.21349 -19887587.16048  20624373.813    20624379.080
       246.000         217.000
  24667427.674    -1669856.63549   -954920.49945  24667428.235    24667436.184
       208.000         143.000
  21812930.114   -19907232.62049 -15479075.91447  21812929.583    21812934.248
       238.000         195.000
  22302798.769   -13676461.85949 -10256675.55446  22302797.804    22302803.104
       232.000         187.000
 03  4 18  2 33  0.0000000  0  4G25G31G11G14
  20620223.684   -25997378.94549 -19904581.71948  20620223.786    20620228.750
       246.000         217.000
  24680438.864    -1601482.50449   -901642.03445  24680438.268    24680448.345
       211.000         144.000
  21803548.027   -19956536.06349 -15517494.15947  21803547.428    21803552.371
       238.000         195.000
  22316061.408   -13606765.55349 -10202366.74946  22316061.072    22316065.972
       232.000         186.000
 03  4 18  2 33 30.0000000  0  4G25G31G11G14
  20616174.471   -26018657.52749 -19921162.40248  20616174.310    20616179.603
       246.000         217.000
  24693447.319    -1533123.26149   -848375.17445  24693447.252    24693455.057
       207.000         146.000
  21794255.935   -20005365.93749 -15555543.38647  21794256.021    21794260.582
       239.000         195.000
  22329334.325   -13537016.61049 -10148016.90846  22329334.294    22329338.616
       232.000         186.000
 03  4 18  2 34  0.0000000  0  4G25G31G11G14
  20612226.427   -26039404.60349 -19937328.92548  20612226.403    20612231.594
       246.000         218.000
  24706452.137    -1464781.43949   -795121.91845  24706452.729    24706460.941
       212.000         145.000
  21785054.273   -20053720.73949 -15593222.42447  21785054.011    21785058.578
       239.000         195.000
  22342616.922   -13467216.38249 -10093627.10546  22342616.778    22342621.685
       233.000         187.000
 03  4 18  2 34 30.0000000  0  4G25G31G11G14
  20608379.630   -26059619.56849 -19953080.81748  20608379.526    20608384.607
       246.000         218.000
  24719453.587    -1396460.02649   -741884.55345  24719453.888    24719462.180
       207.000         147.000
  21775943.355   -20101598.94849 -15630530.10247  21775942.779    21775948.214
       238.000         196.000
  22355908.934   -13397366.25149 -10039198.42046  22355907.717    22355913.303
       232.000         186.000
 03  4 18  2 35  0.0000000  0  4G25G31G11G14
  20604634.298   -26079301.26749 -19968417.17348  20604634.099    20604639.276
       247.000         218.000
  24732450.139    -1328161.05349   -688664.71545  24732450.311    24732458.149
       206.000         142.000
  21766923.506   -20148998.40349 -15667464.71147  21766923.612    21766927.997
       239.000         196.000
  22369210.240   -13327466.86349  -9984731.35946  22369209.868    22369215.108
       232.000         186.000
 03  4 18  2 35 30.0000000  0  4G25G31G11G14
  20600990.436   -26098449.78949 -19983338.07348  20600990.451    20600995.505
       246.000         218.000
  24745442.582    -1259887.58949   -635464.66045  24745441.907    24745450.183
       207.000         142.000
  21757995.019   -20195917.95849 -15704025.37247  21757994.774    21758000.062
       237.000         196.000
  22382520.669   -13257519.99849  -9930227.30146  22382519.844    22382525.422
       232.000         186.000
 03  4 18  2 36  0.0000000  0  4G25G31G11G14
  20597447.953   -26117065.56349 -19997843.83848  20597447.834    20597452.969
       246.000         218.000
  24758428.898    -1191642.72149   -582286.99845  24758429.006    24758437.843
       208.000         141.000
  21749158.165   -20242356.04449 -15740210.87747  21749157.791    21749162.293
       237.000         196.000
  22395839.787   -13187527.31849  -9875687.54346  22395838.903    22395844.452
       231.000         185.000
 03  4 18  2 36 30.0000000  0  4G25G31G11G14
  20594006.984   -26135147.74249 -20011933.81748  20594006.906    20594011.998
       246.000         217.000
  24771409.889    -1123428.92149   -529133.44945  24771410.949    24771417.803
       207.000         140.000
  21740413.132   -20288310.83749 -15776019.77647  21740414.075    21740418.099
       239.000         196.000
  22409167.441   -13117489.87449  -9821112.90846  22409166.717    22409172.060
       230.000         185.000
 03  4 18  2 37  0.0000000  0  5G25G31G11G20G14
  20590667.173   -26152698.41049 -20025609.63448  20590667.188    20590672.255
       247.000         217.000
  24784383.560    -1055251.36149   -476008.17845  24784384.258    24784393.366
       210.000         142.000
  21731760.020   -20333783.30249 -15811452.83547  21731759.486    21731763.731
       238.000         196.000
  24719508.324    -6275716.76449  -4579100.23545  24719507.341    24719514.834
       201.000         136.000
  22422502.750   -13047411.60849  -9766506.46246  22422502.624    22422507.772
       231.000         184.000
 03  4 18  2 37 30.0000000  0  5G25G31G11G20G14
  20587428.161   -26169719.41649 -20038872.72648  20587427.930    20587433.137
       248.000         217.000
  24797349.708     -987114.91849   -422914.94145  24797350.072    24797357.846
       211.000         145.000
  21723198.607   -20378774.21649 -15846510.67247  21723198.223    21723204.149
       238.000         197.000
  24703913.733    -6357666.00449  -4642956.63445  24703912.857    24703920.431
       198.000         135.000
  22435845.514   -12977295.63049  -9711870.61646  22435845.367    22435850.636
       232.000         185.000
 03  4 18  2 38  0.0000000  0  5G25G31G11G20G14
  20584291.478   -26186202.50049 -20051716.65848  20584291.322    20584296.458
       247.000         218.000
  24810308.845     -919014.31749   -369849.59545  24810308.571    24810318.679
       209.000         143.000
  21714730.404   -20423274.35349 -15881186.06547  21714730.435    21714734.156
       239.000         197.000
  24688305.819    -6439685.26349  -4706867.62245  24688305.002    24688311.933
       200.000         137.000
  22449196.426   -12907135.61749  -9657200.47346  22449195.545    22449201.155
       230.000         184.000
 03  4 18  2 38 30.0000000  0  5G25G31G11G20G14
  20581256.927   -26202149.08749 -20064142.54148  20581256.643    20581261.947
       247.000         218.000
  24823260.417     -850953.53249   -316815.34045  24823259.545    24823270.616
       208.000         146.000
  21706355.809   -20467283.31749 -15915478.73147  21706355.223    21706360.818
       238.000         197.000
  24672684.575    -6521775.13349  -4770833.64645  24672684.136    24672691.105
       205.000         139.000
  22462555.256   -12836934.18149  -9602498.04146  22462554.927    22462560.487
       230.000         183.000
 03  4 18  2 39  0.0000000  0  5G25G31G11G20G14
  20578324.357   -26217559.65749 -20076150.75048  20578324.283    20578329.414
       247.000         218.000
  24836203.701     -782936.44149   -263815.09245  24836204.703    24836210.799
       208.000         142.000
  21698074.690   -20510800.75149 -15949388.38247  21698074.596    21698078.809
       239.000         198.000
  24657049.792    -6603936.37549  -4834855.29645  24657049.600    24657056.449
       207.000         142.000
  22475921.592   -12766693.58949  -9547765.12446  22475920.694    22475926.216
       229.000         183.000
 03  4 18  2 39 30.0000000  0  5G25G31G11G20G14
  20575493.786   -26232434.43149 -20087741.45748  20575493.642    20575498.736
       247.000         217.000
  24849138.050     -714966.02549   -210851.20745  24849138.469    24849147.419
       205.000         141.000
  21689887.329   -20553825.63149 -15982914.23447  21689887.024    21689892.179
       239.000         198.000
  24641401.517    -6686168.75749  -4898932.39445  24641400.433    24641408.534
       208.000         143.000
  22489295.068   -12696415.41449  -9493002.89546  22489294.765    22489299.738
       230.000         182.000
 03  4 18  2 40  0.0000000  0  5G25G31G11G20G14
  20572765.094   -26246773.55949 -20098914.77848  20572765.051    20572770.002
       248.000         218.000
  24862063.021     -647045.45249   -157926.21545  24862061.953    24862074.029
       205.000         141.000
  21681793.903   -20596356.80549 -16016055.37147  21681793.377    21681798.241
       238.000         198.000
  24625739.704    -6768471.98849  -4963064.70545  24625739.515    24625745.956
       210.000         143.000
  22502675.409   -12626101.60649  -9438212.90646  22502675.282    22502680.374
       230.000         182.000
 03  4 18  2 40 30.0000000  0  5G25G31G11G20G14
  20570138.472   -26260576.67849 -20109670.42548  20570138.419    20570143.529
       247.000         218.000
  24874977.874     -579177.25549   -105041.99045  24874978.661    24874985.666
       209.000         137.000
  21673794.570   -20638393.01749 -16048810.82247  21673794.824    21673799.197
       240.000         198.000
  24610064.496    -6850845.54349  -5027251.80345  24610064.057    24610071.078
       210.000         142.000
  22516062.340   -12555753.02549  -9383395.82546  22516062.634    22516067.043
       231.000         183.000
 03  4 18  2 41  0.0000000  0  5G25G31G11G20G14
  20567613.750   -26273844.02049 -20120008.58748  20567613.807    20567618.704
       248.000         218.000
  24887882.453     -511364.40849    -52200.82645  24887881.788    24887892.132
       210.000         138.000
  21665889.798   -20679933.04849 -16081179.63747  21665888.907    21665894.223
       237.000         198.000
  24594375.997    -6933288.94749  -5091493.34445  24594375.168    24594383.029
       209.000         141.000
  22529455.625   -12485371.14749  -9328552.80046  22529455.652    22529460.403
       230.000         182.000
 03  4 18  2 41 30.0000000  0  5G25G31G11G20G14
  20565191.010   -26286575.40749 -20129929.12048  20565190.915    20565196.025
       247.000         218.000
  24900775.879     -443609.36049       595.13545  24900776.401    24900785.789
       213.000         143.000
  21658079.636   -20720975.23749 -16113160.54947  21658080.333    21658083.656
       240.000         198.000
  24578674.280    -7015801.51049  -5155788.77645  24578672.579    24578680.545
       207.000         140.000
  22542855.013   -12414957.15349  -9273684.75146  22542854.517    22542860.048
       229.000         182.000
 03  4 18  2 42  0.0000000  0  5G25G31G11G20G14
  20562870.339   -26298770.58249 -20139431.82848  20562870.311    20562875.218
       247.000         218.000
  24913657.965     -375914.42949     53344.38845  24913657.854    24913664.804
       213.000         139.000
  21650364.584   -20761518.08549 -16144752.32247  21650364.455    21650369.607
       239.000         198.000
  24562959.613    -7098382.37149  -5220137.41545  24562958.748    24562964.903
       210.000         139.000
  22556260.118   -12344511.97949  -9218792.41746  22556259.287    22556264.746
       227.000         181.000
 03  4 18  2 42 30.0000000  0  5G25G31G11G20G14
  20560651.797   -26310429.00749 -20148516.28448  20560651.727    20560656.764
       247.000         218.000
  24926527.958     -308282.08149    106044.92845  24926527.344    24926538.267
       209.000         138.000
  21642744.894   -20801559.95849 -16175953.76247  21642744.989    21642748.409
       239.000         198.000
  24547232.150    -7181030.55849  -5284538.51845  24547231.365    24547238.841
       210.000         140.000
  22569670.959   -12274036.64749  -9163876.55446  22569670.682    22569675.784
       229.000         180.000
 03  4 18  2 43  0.0000000  0  5G25G31G11G20G14
  20558535.213   -26321551.64749 -20157183.24248  20558535.102    20558540.191
       247.000         218.000
  24939385.601     -240715.63149    158693.98445  24939386.612    24939394.428
       211.000         142.000
  21635220.547   -20841100.32349 -16206764.40047  21635220.259    21635225.649
       239.000         198.000
  24531491.838    -7263746.29649  -5348992.29345  24531491.782    24531498.412
       211.000         139.000
  22583087.438   -12203532.98149  -9108938.62846  22583086.934    22583092.427
       229.000         181.000
 03  4 18  2 43 30.0000000  0  4G25G11G20G14
  20556516.921   -26332157.52749 -20165447.53448  20556516.810    20556521.963
       247.000         218.000
  21627788.235   -20880157.26349 -16237198.35047  21627788.014    21627792.147
       239.000         199.000
  24515735.160    -7346548.21749  -5413513.21445  24515734.690    24515740.204
       211.000         137.000
  22596505.409   -12133021.41149  -9053994.53046  22596505.255    22596510.196
       230.000         181.000
 03  4 18  2 44  0.0000000  0  4G25G11G20G14
  20554602.211   -26342219.27949 -20173287.83448  20554602.185    20554607.324
       247.000         218.000
  21620453.396   -20918702.01749 -16267233.19447  21620453.442    21620457.644
       239.000         199.000
  24499967.331    -7429408.31149  -5478079.47145  24499967.316    24499973.087
       211.000         135.000
  22609929.777   -12062476.05949  -8999024.12946  22609929.422    22609935.304
       228.000         181.000
 03  4 18  2 44 30.0000000  0  4G25G11G20G14
  20552790.610   -26351739.30249 -20180706.00648  20552790.629    20552795.560
       247.000         218.000
  21613215.850   -20956735.65549 -16296869.76647  21613215.762    21613220.432
       239.000         199.000
  24484188.166    -7512328.16449  -5542692.33245  24484185.671    24484194.729
       209.000         133.000
  22623359.934   -11991900.28249  -8944030.01346  22623360.453    22623363.812
       231.000         181.000
 03  4 18  2 45  0.0000000  0  4G25G11G20G14
  20551081.618   -26360720.06049 -20187703.96948  20551081.482    20551086.582
       248.000         218.000
  21606075.326   -20994259.31849 -16326108.96847  21606075.245    21606079.711
       240.000         200.000
  24468397.240    -7595309.48149  -5607353.07345  24468396.172    24468403.965
       204.000         132.000
  22636795.245   -11921297.49149  -8889014.82646  22636794.903    22636799.653
       228.000         179.000
 03  4 18  2 45 30.0000000  0  4G25G11G20G14
  20549475.098   -26369162.35149 -20194282.35348  20549474.865    20549479.988
       247.000         218.000
  21599031.819   -21031272.91449 -16354950.70147  21599031.622    21599036.284
       240.000         199.000
  24452594.536    -7678352.57449  -5672061.88545  24452592.672    24452601.536
       200.000         134.000
  22650235.077   -11850669.87449  -8833980.31346  22650235.468    22650240.603
       230.000         180.000
 03  4 18  2 46  0.0000000  0  5G25G11G20G 1G14
  20547972.608   -26377057.72749 -20200434.56748  20547972.425    20547977.514
       247.000         217.000
  21592087.320   -21067766.41449 -16383387.17447  21592086.899    21592091.491
       239.000         199.000
  24436781.784    -7761448.13549  -5736811.56545  24436782.308    24436787.749
       201.000         136.000
  24617134.804    -6514595.82949  -4196346.85145  24617132.084    24617143.509
       203.000         140.000
  22663681.490   -11780009.86049  -8778920.53646  22663681.010    22663686.121
       229.000         181.000
 03  4 18  2 46 30.0000000  0  5G25G11G20G 1G14
  20546572.781   -26384413.75749 -20206166.51848  20546572.664    20546577.680
       247.000         217.000
  21585240.648   -21103745.71749 -16411422.97447  21585240.449    21585245.052
       240.000         200.000
  24420957.841    -7844602.77849  -5801607.25345  24420956.654    24420964.765
       202.000         139.000
  24603927.671    -6583998.76749  -4250426.93545  24603928.745    24603936.167
       209.000         142.000
  22677131.955   -11709325.93249  -8723842.14846  22677131.109    22677136.119
       225.000         178.000
